[[{"header":{"parameterUnit":"m.s-1","parameterCategory":1,"la1":30.6,"la2":29.2853,"lo1":-89.7004,"lo2":-87.6739,"dy":0.0162,"dx":0.0183,"nx":112,"ny":82,"refTime":"2024-09-05T06:00:00:Z","depth":0,"parameterNumber":2,"parameterNumberName":"U-component_of_WINDS"},"data":[0.0,0.0,0.0,0.0,0.0,0.0,0.0,0.0,0.0,0.0,0.0,0.0,0.0,0.0,0.0,0.0,0.0,0.0,0.0,0.0,0.0,0.0,0.0,0.0,0.0,0.0,0.0,0.0,0.0,0.0,0.0,0.0,0.0,0.0,0.0,0.0,0.0,0.0,0.0,0.0,0.0,0.0,0.0,0.0,0.0,0.0,0.0,0.0,0.0,0.0,0.0,0.0,0.0,0.0,0.0,0.0,0.0,0.0,0.0,0.0,0.0,0.0,0.0,0.0,0.0,0.0,0.0,0.0,0.0,0.0,0.0,0.0,0.0,0.0,0.0,0.0,0.0,0.0,0.0,0.0,0.0,0.0,0.0,0.0,0.0,0.0,0.0,0.0,0.0,0.0,1.441,1.6332,1.4916,1.4295,1.5424,1.5297,1.4512,1.3029,0.0,0.0,0.0,0.0,0.0,0.0,0.0,0.0,0.0,0.0,0.0,0.0,0.0,0.0,0.0,0.0,0.0,0.0,0.0,0.0,0.0,0.0,0.0,0.0,0.0,0.0,0.0,0.0,0.0,0.0,0.0,0.0,0.0,0.0,0.0,0.0,0.0,0.0,0.0,0.0,0.0,0.0,0.0,0.0,0.0,0.0,0.0,0.0,0.0,0.0,0.0,0.0,0.0,0.0,0.0,0.0,0.0,0.0,0.0,0.0,0.0,0.0,0.0,0.0,0.0,0.0,0.0,0.0,0.0,0.0,0.0,0.0,0.0,0.0,0.0,0.0,0.0,0.0,0.0,0.0,0.0,0.0,0.0,0.0,0.0,0.0,0.0,0.0,0.0,0.0,0.0,0.0,0.0,0.0,0.0,0.0,0.0,0.0,0.0,0.0,0.0,0.0,0.0,0.0,1.6819,1.8404,1.8515,1.8467,1.8375,1.7073,1.5463,1.3596,0.0,0.0,0.0,0.0,0.0,0.0,0.0,0.0,0.0,0.0,0.0,0.0,0.0,0.0,0.0,0.0,0.0,0.0,0.0,0.0,0.0,0.0,0.0,0.0,0.0,0.0,0.0,0.0,0.0,0.0,0.0,0.0,0.0,0.0,0.0,0.0,0.0,0.0,0.0,0.0,0.0,0.0,0.0,0.0,0.0,0.0,0.0,0.0,0.0,0.0,0.0,0.0,0.0,0.0,0.0,0.0,0.0,0.0,0.0,0.0,0.0,0.0,0.0,0.0,0.0,0.0,0.0,0.0,0.0,0.0,0.0,0.0,0.0,0.0,0.0,0.0,0.0,0.0,0.0,0.0,0.0,0.0,0.0,0.0,0.0,0.0,0.0,0.0,0.0,0.0,0.0,0.0,0.0,0.0,0.0,0.0,0.0,0.0,0.0,0.0,0.0,0.0,0.0,1.4691,1.5753,1.5667,1.5982,1.6052,1.5681,1.4947,1.3878,1.2387,1.2208,0.0,0.0,0.0,0.0,0.0,0.0,0.0,0.0,0.0,0.0,0.0,0.0,0.0,0.0,0.0,0.0,0.0,0.0,0.0,0.0,0.0,0.0,0.0,0.0,0.0,0.0,0.0,0.0,0.0,0.0,0.0,0.0,0.0,0.0,0.0,0.0,0.0,0.0,0.0,0.0,0.0,0.0,0.0,0.0,0.0,0.0,0.0,0.0,0.0,0.0,0.0,0.0,0.0,0.0,0.0,0.0,0.0,0.0,0.0,0.0,0.0,0.0,0.0,0.0,0.0,0.0,0.0,0.0,0.0,0.0,0.0,0.0,0.0,0.0,0.0,0.0,0.0,0.0,0.0,0.0,0.0,0.0,0.0,0.0,0.0,0.0,0.0,0.0,0.0,0.0,0.0,0.0,0.0,0.0,0.0,0.0,0.0,0.0,0.0,0.0,0.0,0.0,1.4627,1.4644,1.3433,1.3697,1.3806,1.3326,1.2881,1.2208,1.1252,1.1074,0.0,0.0,0.0,0.0,0.0,0.0,0.0,0.0,0.0,0.0,0.0,0.0,0.0,0.0,0.0,0.0,0.0,0.0,0.0,0.0,0.0,0.0,0.0,0.0,0.0,0.0,0.0,0.0,0.0,0.0,0.0,0.0,0.0,0.0,0.0,0.0,0.0,0.0,0.0,0.0,0.0,0.0,0.0,0.0,0.0,0.0,0.0,0.0,0.0,0.0,0.0,0.0,0.0,0.0,0.0,0.0,0.0,0.0,0.0,0.0,0.0,0.0,0.0,0.0,0.0,0.0,0.0,0.0,0.0,0.0,0.0,0.0,0.0,0.0,0.0,0.0,0.0,0.0,0.0,0.0,0.0,0.0,0.0,0.0,0.0,0.0,0.0,0.0,0.0,0.0,0.0,0.0,0.0,0.0,0.0,0.0,0.0,0.0,0.0,0.0,0.0,0.0,1.4889,1.5555,1.4838,1.5349,1.5471,1.4796,1.3089,1.1811,1.1228,1.0733,0.0,0.0,0.0,0.0,0.0,0.0,0.0,0.0,0.0,0.0,0.0,0.0,0.0,0.0,0.0,0.0,0.0,0.0,0.0,0.0,0.0,0.0,0.0,0.0,0.0,0.0,0.0,0.0,0.0,0.0,0.0,0.0,0.0,0.0,0.0,0.0,0.0,0.0,0.0,0.0,0.0,0.0,0.0,0.0,0.0,0.0,0.0,0.0,0.0,0.0,0.0,0.0,0.0,0.0,0.0,0.0,0.0,0.0,0.0,0.0,0.0,0.0,0.0,0.0,0.0,0.0,0.0,0.0,0.0,0.0,0.0,0.0,0.0,0.0,0.0,0.0,0.0,0.0,0.0,0.0,0.0,0.0,0.0,0.0,0.0,0.0,0.0,0.0,0.0,0.0,0.0,0.0,0.0,0.0,0.0,0.0,0.0,0.0,0.0,0.0,0.0,0.0,1.4401,1.406,1.3811,1.419,1.4233,1.3631,1.2905,1.2127,1.1252,0.0,0.0,0.0,0.0,0.0,0.0,0.0,0.0,0.0,0.0,0.0,0.0,0.0,0.0,0.0,0.0,0.0,0.0,0.0,0.0,0.0,0.0,0.0,0.0,0.0,0.0,0.0,0.0,0.0,0.0,0.0,0.0,0.0,0.0,0.0,0.0,0.0,0.0,0.0,0.0,0.0,0.0,0.0,0.0,0.0,0.0,0.0,0.0,0.0,0.0,0.0,0.0,0.0,0.0,0.0,0.0,0.0,0.0,0.0,0.0,0.0,0.0,0.0,0.0,0.0,0.0,0.0,0.0,0.0,0.0,0.0,0.0,0.0,0.0,0.0,0.0,0.0,0.0,0.0,0.0,0.0,0.0,0.0,0.0,0.0,0.0,0.0,0.0,0.0,0.0,0.0,0.0,0.0,0.0,0.0,0.0,0.0,0.0,0.0,0.0,0.0,0.0,1.4126,1.3774,1.3287,1.3116,1.3474,1.3447,1.2856,1.2597,1.2134,1.1244,0.0,0.0,0.0,0.0,0.0,0.0,0.0,0.0,0.0,0.0,0.0,0.0,0.0,0.0,0.0,0.0,0.0,0.0,0.0,0.0,0.0,0.0,0.0,0.0,0.0,0.0,0.0,0.0,0.0,0.0,0.0,0.0,0.0,0.0,0.0,0.0,0.0,0.0,0.0,0.0,0.0,0.0,0.0,0.0,0.0,0.0,0.0,0.0,0.0,0.0,0.0,0.0,0.0,0.0,0.0,0.0,0.0,0.0,0.0,0.0,0.0,0.0,0.0,0.0,0.0,0.0,0.0,0.0,0.0,0.0,0.0,0.0,0.0,0.0,0.0,0.0,0.0,0.0,0.0,0.0,0.0,0.0,0.0,0.0,0.0,0.0,0.0,0.0,0.0,0.0,0.0,0.0,0.0,0.0,0.0,0.0,0.0,0.0,0.0,0.0,0.0,0.0,1.2116,1.3124,1.3693,1.3157,1.3579,1.3612,1.2864,1.219,1.1622,0.0,0.0,0.0,0.0,0.0,0.0,0.0,0.0,0.0,0.0,0.0,0.0,0.0,0.0,0.0,0.0,0.0,0.0,0.0,0.0,0.0,0.0,0.0,0.0,0.0,0.0,0.0,0.0,0.0,0.0,0.0,0.0,0.0,0.0,0.0,0.0,0.0,0.0,0.0,0.0,0.0,0.0,0.0,0.0,0.0,0.0,0.0,0.0,0.0,0.0,0.0,0.0,0.0,0.0,0.0,0.0,0.0,0.0,0.0,0.0,0.0,0.0,0.0,0.0,0.0,0.0,0.0,0.0,0.0,0.0,0.0,0.0,0.0,0.0,0.0,0.0,0.0,0.0,0.0,0.0,0.0,0.0,0.0,0.0,0.0,0.0,0.0,0.0,0.0,0.0,0.0,0.0,0.0,0.0,0.0,0.0,0.0,0.0,0.0,0.0,0.0,0.0,0.0,1.4367,1.4,1.3514,1.3447,1.3506,1.3392,1.3043,1.2596,1.2043,1.1244,0.0,0.0,0.0,0.0,0.0,0.0,0.0,0.0,0.0,0.0,0.0,0.0,0.0,0.0,0.0,0.0,0.0,0.0,0.0,0.0,0.0,0.0,0.0,0.0,0.0,0.0,0.0,0.0,0.0,0.0,0.0,0.0,0.0,0.0,0.0,0.0,0.0,0.0,0.0,0.0,0.0,0.0,0.0,0.0,0.0,0.0,0.0,0.0,0.0,0.0,0.0,0.0,0.0,0.0,0.0,0.0,0.0,0.0,0.0,0.0,0.0,0.0,0.0,0.0,0.0,0.0,0.0,0.0,0.0,0.0,0.0,0.0,0.0,0.0,0.0,0.0,0.0,0.0,0.0,0.0,0.0,0.0,0.0,0.0,0.0,0.0,0.0,0.0,0.0,0.0,0.0,0.0,0.0,0.0,0.0,0.0,0.0,0.0,0.0,0.0,0.0,0.0,1.4254,1.3955,1.3628,1.3698,1.3587,1.3409,1.3222,1.2841,1.2246,1.1386,0.0,0.0,0.0,0.0,0.0,0.0,0.0,0.0,0.0,0.0,0.0,0.0,0.0,0.0,0.0,0.0,0.0,0.0,0.0,0.0,0.0,0.0,0.0,0.0,0.0,0.0,0.0,0.0,0.0,0.0,0.0,0.0,0.0,0.0,0.0,0.0,0.0,0.0,0.0,0.0,0.0,0.0,0.0,0.0,0.0,0.0,0.0,0.0,0.0,0.0,0.0,0.0,0.0,0.0,0.0,0.0,0.0,0.0,0.0,0.0,0.0,0.0,0.0,0.0,0.0,0.0,0.0,0.0,0.0,0.0,0.0,0.0,0.0,0.0,0.0,0.0,0.0,0.0,0.0,0.0,0.0,0.0,0.0,0.0,0.0,0.0,0.0,0.0,0.0,0.0,0.0,0.0,0.0,0.0,0.0,0.0,0.0,0.0,0.0,0.0,0.0,0.0,1.2971,1.3464,1.3888,1.3896,1.3714,1.3536,1.3419,1.2922,1.2319,1.1573,0.0,0.0,0.0,0.0,0.0,0.0,0.0,0.0,0.0,0.0,0.0,0.0,0.0,0.0,0.0,0.0,0.0,0.0,0.0,0.0,0.0,0.0,0.0,0.0,0.0,0.0,0.0,0.0,0.0,0.0,0.0,0.0,0.0,0.0,0.0,0.0,0.0,0.0,0.0,0.0,0.0,0.0,0.0,0.0,0.0,0.0,0.0,0.0,0.0,0.0,0.0,0.0,0.0,0.0,0.0,0.0,0.0,0.0,0.0,0.0,1.9067,0.0,0.0,0.0,0.0,0.0,0.0,0.0,0.0,0.0,0.0,0.0,0.0,0.0,0.0,0.0,0.0,0.0,0.0,0.0,0.0,0.0,0.0,0.0,0.0,0.0,0.0,0.0,0.0,0.0,0.0,0.0,0.0,0.0,0.0,0.0,0.0,0.0,0.0,0.0,0.0,0.0,1.5149,1.4398,1.3714,1.3888,1.3714,1.3536,1.3419,1.3003,1.2475,1.179,1.1236,0.0,0.0,0.0,0.0,0.0,0.0,0.0,0.0,0.0,0.0,0.0,0.0,0.0,0.0,0.0,0.0,0.0,0.0,0.0,0.0,0.0,0.0,0.0,0.0,0.0,0.0,0.0,0.0,0.0,0.0,0.0,0.0,0.0,0.0,0.0,0.0,0.0,0.0,0.0,0.0,0.0,0.0,0.0,0.0,0.0,0.0,0.0,0.0,0.0,0.0,0.0,0.0,0.0,0.0,0.0,0.0,0.0,0.0,0.0,0.0,2.0033,0.0,0.0,0.0,0.0,0.0,0.0,0.0,0.0,0.0,0.0,0.0,0.0,0.0,0.0,0.0,0.0,0.0,0.0,0.0,0.0,0.0,0.0,0.0,0.0,0.0,0.0,0.0,0.0,0.0,0.0,0.0,0.0,0.0,0.0,0.0,0.0,0.0,0.0,0.0,0.0,1.4568,1.4156,1.3839,1.4018,1.3763,1.3569,1.3506,1.3173,1.2694,1.2069,1.1687,0.0,0.0,0.0,0.0,0.0,0.0,0.0,0.0,0.0,0.0,0.0,0.0,0.0,0.0,0.0,0.0,0.0,0.0,0.0,0.0,0.0,0.0,0.0,0.0,0.0,0.0,0.0,0.0,0.0,0.0,0.0,0.0,0.0,0.0,0.0,0.0,0.0,0.0,0.0,0.0,0.0,0.0,0.0,0.0,0.0,0.0,0.0,0.0,0.0,0.0,0.0,0.0,0.0,2.2886,2.3179,2.3618,2.3618,2.3761,2.393,2.2515,2.1949,2.1876,2.0985,0.0,0.0,0.0,0.0,0.0,0.0,0.0,0.0,0.0,0.0,0.0,0.0,0.0,0.0,0.0,0.0,0.0,0.0,0.0,0.0,0.0,0.0,0.0,0.0,1.4066,1.3738,1.3131,0.0,0.0,0.0,0.0,0.0,0.0,0.0,0.0,0.0,0.0,0.0,1.3511,1.3702,1.3969,1.4192,1.3888,1.3658,1.3658,1.3384,1.2962,1.2434,1.2223,1.1859,0.0,0.0,0.0,0.0,0.0,0.0,0.0,0.0,0.0,0.0,0.0,0.0,0.0,0.0,0.0,0.0,0.0,0.0,0.0,0.0,0.0,0.0,0.0,0.0,0.0,0.0,0.0,0.0,0.0,0.0,0.0,0.0,1.9874,2.0327,0.0,0.0,0.0,0.0,0.0,0.0,0.0,0.0,0.0,0.0,0.0,0.0,0.0,2.2784,2.3632,2.428,2.4763,2.5062,2.5666,2.5827,2.5637,2.5637,2.5603,2.5547,2.506,0.0,2.2886,2.2446,0.0,0.0,0.0,0.0,0.0,0.0,0.0,0.0,0.0,0.0,0.0,0.0,0.0,0.0,0.0,0.0,0.0,0.0,0.0,0.0,0.0,0.0,1.5358,1.421,1.4965,1.5518,0.0,1.2939,1.2499,1.3435,1.3151,0.0,0.0,0.0,0.0,0.0,0.0,0.0,1.4754,1.4258,1.3969,1.4192,1.3993,1.3863,1.3863,1.365,1.3309,1.2767,1.2596,1.232,1.1908,1.1606,0.0,0.0,0.0,0.0,0.0,0.0,0.0,0.0,0.0,0.0,0.0,0.0,0.0,0.0,0.0,0.0,0.0,0.0,0.0,0.0,0.0,0.0,0.0,0.0,0.0,0.0,0.0,0.0,0.0,1.974,2.1042,2.0998,2.1189,2.1057,0.0,0.0,0.0,0.0,0.0,0.0,0.0,0.0,0.0,2.3544,2.3975,2.4348,2.471,2.52,2.5584,2.5912,2.6182,2.6361,2.639,2.639,2.6387,2.633,2.6189,2.564,2.4738,2.3544,2.2705,2.2077,0.0,0.0,0.0,0.0,2.1355,2.1282,2.1641,2.1562,2.1173,2.0572,0.0,0.0,0.0,0.0,0.0,0.0,0.0,0.0,0.0,0.0,1.6194,1.4856,1.5093,1.5506,1.4764,1.4249,1.4034,0.0,1.4646,1.4502,1.3644,0.0,0.0,0.0,0.0,1.4267,1.4535,1.4344,1.4192,1.431,1.4164,1.4018,1.3912,1.3706,1.3423,1.3011,1.2905,1.2751,1.2459,1.2142,1.1792,0.0,0.0,0.0,0.0,0.0,0.0,0.0,0.0,0.0,0.0,0.0,0.0,0.0,0.0,0.0,0.0,0.0,0.0,0.0,0.0,0.0,0.0,0.0,0.0,0.0,0.0,0.0,0.0,2.094,2.1964,2.173,2.2254,2.2223,0.0,0.0,0.0,0.0,0.0,0.0,2.3436,2.4028,2.4527,2.4881,2.5419,2.5757,2.5903,2.614,2.6414,2.6714,2.6714,2.6825,2.706,2.699,2.6913,2.6906,2.6753,2.6482,2.605,2.4602,2.3732,2.3315,2.2517,2.2169,2.2155,2.2582,2.2619,2.2553,2.3079,2.3018,2.2605,2.2125,2.159,2.0831,1.9147,0.0,0.0,0.0,0.0,1.7365,1.7334,1.6869,1.6217,1.5325,1.5515,1.5772,1.5388,1.5929,1.6212,0.0,1.5387,1.5307,1.4139,0.0,0.0,0.0,1.3675,1.4263,1.422,1.4326,1.4411,1.446,1.4351,1.4188,1.405,1.3844,1.3604,1.3189,1.3165,1.3068,1.2815,1.2548,1.2337,1.207,0.0,0.0,0.0,0.0,0.0,0.0,0.0,0.0,0.0,0.0,0.0,0.0,0.0,0.0,0.0,0.0,0.0,0.0,0.0,0.0,0.0,0.0,0.0,0.0,0.0,0.0,0.0,0.0,0.0,2.3018,2.353,0.0,0.0,0.0,0.0,2.2762,2.3144,2.373,2.4665,2.5,2.555,2.647,2.6526,2.6958,2.785,2.7878,2.7932,2.8011,2.8011,2.8011,2.8011,2.7678,2.7523,2.7427,2.6852,2.6398,2.5993,2.5699,2.5244,2.4672,2.4289,2.4017,2.3732,2.3454,2.3509,2.3631,2.3111,2.3067,2.326,2.322,2.2819,2.201,2.0402,1.9683,0.0,0.0,1.5784,1.6066,1.5122,1.4987,1.5149,1.5398,1.6669,1.7341,1.5814,1.7884,1.9059,0.0,1.4731,1.4449,1.4392,0.0,1.5379,1.4044,1.5113,1.5623,1.4354,1.4326,1.446,1.4676,1.4492,1.4379,1.4371,1.4253,1.3956,1.3427,1.3394,1.3197,1.2815,1.2783,1.2613,1.2304,1.2255,0.0,0.0,0.0,0.0,0.0,0.0,0.0,0.0,0.0,0.0,0.0,0.0,0.0,0.0,0.0,0.0,0.0,0.0,0.0,0.0,0.0,0.0,0.0,0.0,0.0,0.0,0.0,0.0,2.3573,2.4257,0.0,2.3318,2.3367,2.3732,2.4345,2.4895,2.5482,2.6119,2.6693,2.7017,2.7065,2.7278,2.7482,2.7554,2.7554,2.7554,2.7595,2.7595,2.7595,2.7581,2.7445,2.7365,2.7351,2.7136,2.6961,2.6814,2.6783,2.6144,2.5235,2.4937,2.4747,2.4666,2.4557,2.4659,2.4716,2.335,2.2967,2.2781,2.1193,2.0422,2.0238,2.0709,2.0039,1.9215,1.9465,1.8974,1.8163,1.7038,1.6814,1.6665,1.5858,1.6117,1.6423,1.591,1.6738,1.7172,1.5884,1.6184,1.6265,1.5004,1.511,1.5134,1.4506,1.4881,1.5113,1.4743,1.4778,1.4797,1.4909,1.4716,1.4525,1.4403,1.4278,1.398,1.3443,1.3402,1.3214,1.2815,1.2807,1.2742,1.2621,1.2426,1.2004,0.0,0.0,0.0,0.0,0.0,0.0,0.0,0.0,0.0,0.0,0.0,0.0,0.0,0.0,0.0,0.0,0.0,0.0,0.0,0.0,0.0,0.0,0.0,0.0,0.0,2.3723,2.4714,2.4303,2.5182,2.5428,2.4481,2.4745,2.5217,2.5711,2.6174,2.6594,2.6999,2.751,2.7635,2.7443,2.7702,2.7756,2.7603,2.7603,2.755,2.7415,2.7415,2.7415,2.7415,2.7349,2.7021,2.6525,2.638,2.6013,2.5425,2.5425,2.496,2.4354,2.5203,2.5398,2.5148,2.4567,2.4481,2.4367,2.2609,2.2028,2.1754,2.0114,1.9479,1.9452,1.9984,1.9426,1.8731,1.9572,1.9055,1.8068,1.7369,1.7172,1.6986,1.6064,1.5861,1.591,1.6056,1.6088,1.6088,1.6088,1.6681,1.6775,1.5473,1.5226,1.5114,1.5,1.4927,1.4927,1.5041,1.5039,1.5006,1.5006,1.4862,1.4692,1.4419,1.4278,1.3977,1.349,1.3344,1.3173,1.2896,1.2831,1.2807,1.2807,1.2548,1.2304,1.2134,0.0,0.0,0.0,0.0,0.0,0.0,0.0,0.0,0.0,0.0,0.0,0.0,0.0,0.0,0.0,0.0,0.0,0.0,0.0,0.0,0.0,0.0,0.0,2.3454,2.4762,2.5625,2.5297,2.627,2.6625,2.5663,2.6061,2.6533,2.6827,2.6854,2.6974,2.7322,2.7336,2.7456,2.7709,2.7709,2.7856,2.8179,2.8179,2.8045,2.7709,2.7709,2.7709,2.7709,2.7456,2.6522,2.5071,2.4763,2.3607,2.1996,2.1943,2.1902,2.2181,2.5132,2.5909,2.5161,2.3469,2.2826,2.2516,2.0856,2.022,2.017,2.017,2.017,1.9847,1.8366,1.7864,1.7508,1.5989,1.556,1.5561,1.574,1.5829,1.5837,1.5975,1.6015,1.6064,1.6267,1.63,1.63,1.63,1.6024,1.5829,1.5821,1.5634,1.5528,1.5528,1.5318,0.0,1.5197,1.5082,1.5006,1.5006,1.5006,1.483,1.4435,1.4294,1.4034,1.3633,1.3303,1.31,1.31,1.2904,1.2823,1.2831,1.2686,1.2678,1.2823,0.0,0.0,0.0,0.0,0.0,0.0,0.0,0.0,0.0,0.0,0.0,0.0,0.0,0.0,0.0,0.0,0.0,0.0,0.0,0.0,0.0,2.3873,2.4843,2.4674,2.5756,2.6541,2.6391,2.6893,2.7095,2.684,2.6961,2.7148,2.7442,2.7455,2.7589,2.7924,2.7938,2.7978,2.8058,2.8058,2.8098,2.8179,2.8179,2.8138,2.8058,2.8058,2.8058,2.8058,2.7978,2.7727,2.733,2.721,2.6919,2.6318,2.4945,2.4289,2.4048,2.3338,2.2864,2.255,2.2055,2.1007,1.9755,1.9521,1.8363,1.7048,1.7048,1.696,1.6964,1.7666,1.7083,1.6324,1.7213,1.6616,1.5748,1.5926,1.6064,1.617,1.6219,1.6332,1.6405,1.6324,1.63,1.63,1.63,1.6227,1.6121,1.595,1.5821,1.5699,1.5699,1.5439,0.0,1.5197,1.5082,1.5006,1.5006,1.5082,1.5017,1.4667,1.4586,1.4302,1.365,1.3425,1.3329,1.3329,1.3246,1.3287,1.3382,1.3342,1.3303,0.0,0.0,0.0,0.0,0.0,0.0,0.0,0.0,0.0,0.0,0.0,0.0,0.0,0.0,0.0,0.0,0.0,0.0,0.0,0.0,0.0,0.0,2.5225,2.6096,2.6177,2.6784,2.7243,2.7175,2.7455,2.767,2.767,2.767,2.775,2.7911,2.7924,2.8005,2.8179,2.8179,2.8179,2.8179,2.8179,2.8179,2.8179,2.8312,2.8312,2.8179,2.8312,2.8312,2.8179,2.7405,2.6588,2.5811,2.5032,2.4263,2.3481,2.2363,2.1816,0.0,0.0,0.0,0.0,0.0,1.9311,1.7666,1.7865,1.7013,1.5886,1.5886,1.5821,1.5901,1.6811,1.6449,1.5917,1.6982,1.6661,1.6016,1.6129,1.6116,1.6161,1.638,1.6206,1.61,1.6459,1.6188,1.6061,1.6451,1.6358,0.0,1.6258,1.6113,1.5999,1.5999,1.5691,1.5463,1.5463,1.5309,1.5195,1.5195,1.5293,1.5197,1.4913,1.4789,0.0,0.0,0.0,1.3558,1.3455,1.3279,0.0,0.0,0.0,0.0,0.0,0.0,0.0,0.0,1.3874,1.4104,0.0,0.0,0.0,0.0,0.0,0.0,0.0,0.0,0.0,0.0,0.0,0.0,0.0,0.0,0.0,0.0,2.6543,2.7134,2.7722,2.7802,2.7789,2.7749,2.8031,2.8205,2.8232,2.8232,2.8245,2.8286,2.8286,2.8286,2.8286,2.8286,0.0,0.0,0.0,2.8286,2.8286,2.8524,2.8425,2.7989,2.8211,2.8057,2.7542,2.5903,2.4201,2.2492,2.0905,1.9273,1.7718,1.7499,1.7288,1.7395,2.0409,2.1431,2.1044,1.9479,1.7812,1.6332,1.6332,0.0,0.0,1.6039,1.6031,1.6031,1.6015,1.6007,1.6007,1.6031,1.6103,1.6224,1.624,1.604,1.5961,1.6353,1.5856,1.5524,1.6431,1.5979,1.5668,1.6463,1.6325,1.6113,1.6452,1.6344,1.624,1.6224,1.5892,1.5675,1.5659,1.5457,1.5353,1.5353,0.0,0.0,1.5089,1.4822,1.4629,1.4589,1.4163,1.3797,1.3552,1.3259,1.3267,1.3519,1.3665,1.3895,1.4161,1.4478,1.4648,1.4663,1.4006,1.4191,0.0,0.0,0.0,0.0,0.0,0.0,0.0,0.0,0.0,0.0,0.0,0.0,0.0,0.0,0.0,2.6196,2.7001,2.7736,2.835,2.843,2.8337,2.8125,2.8152,2.8286,2.8497,2.8524,2.8617,2.8845,2.8871,2.8871,2.8871,2.8871,2.8871,2.8871,2.8871,2.8871,2.8871,2.8881,2.813,2.6517,0.0,0.0,2.3924,2.3533,2.3119,2.2579,2.2234,2.1889,2.1414,1.996,1.8453,1.714,1.7646,1.7811,1.7716,1.7264,1.6849,1.6527,1.6527,1.6503,1.6454,1.63,1.6251,1.6227,1.6047,1.6007,0.0,1.6219,1.5991,1.5753,1.5936,1.5751,1.5536,1.5622,1.5598,1.5629,1.5655,1.5538,1.5451,1.5624,1.5581,1.5619,1.5811,1.5922,1.5921,1.5829,1.5293,1.487,1.4782,1.4574,1.4468,1.4468,1.4597,1.4605,1.439,1.4322,1.4171,1.3907,1.3883,1.3882,1.3835,1.4263,1.4408,1.4208,1.4497,1.4616,1.4508,1.4742,1.4971,1.5259,1.4994,1.4976,0.0,0.0,0.0,0.0,0.0,0.0,0.0,0.0,0.0,0.0,0.0,2.4156,2.475,0.0,2.6453,2.7348,2.7869,2.831,2.8721,2.8775,2.8764,2.8604,2.8591,2.8657,2.8804,2.8775,2.8938,2.9245,2.9259,2.9259,2.9259,2.9259,2.9148,2.9001,2.9001,2.8552,2.7566,2.7706,2.6712,2.4672,2.4797,2.4241,2.3028,2.2057,2.1598,2.1443,2.0423,1.999,1.9937,1.8926,1.7928,1.7104,1.6971,1.6939,1.693,1.6877,1.6795,1.6714,1.6714,1.6657,1.6568,1.647,1.6269,1.6084,1.5997,1.5806,1.5619,1.5705,1.5613,1.5526,1.561,1.5408,1.5272,1.549,1.525,1.511,1.5469,1.5184,1.4965,1.5447,1.5359,1.5294,1.5646,1.5563,1.5485,1.5534,1.513,1.4768,1.4694,1.4605,1.4553,1.4553,1.4635,1.4679,1.4679,1.4605,1.4449,1.4171,1.4029,1.3989,1.4068,1.4172,1.4217,1.4097,1.4366,1.4451,1.433,1.4607,1.4799,1.4948,1.4955,1.5044,0.0,0.0,0.0,0.0,0.0,0.0,0.0,2.2744,2.3208,2.4015,2.477,2.5558,2.6372,2.6907,2.7562,2.8537,2.8684,2.8791,2.9041,2.9081,2.9108,2.9161,2.9068,2.9015,2.9081,2.9081,2.9272,2.9677,2.9659,2.9717,2.974,2.974,2.9442,2.8762,2.8749,2.777,2.5778,2.5945,2.4969,2.2802,2.3,2.2789,2.2114,2.0599,1.9905,1.977,1.8124,1.7388,1.7372,1.7185,1.7112,1.7112,1.7024,1.698,1.698,1.7068,1.6979,1.6858,1.6727,1.6631,1.6545,1.6427,1.6113,1.5806,1.5775,1.5511,1.5227,1.5214,1.5268,1.5285,1.5314,1.5074,1.4955,1.5352,1.4873,1.452,1.5264,1.4829,1.452,1.5264,1.5131,1.4999,1.5352,1.5131,1.4942,1.522,1.4971,1.4711,1.4681,1.4674,1.4674,1.4674,1.4674,1.4732,1.4906,1.4797,1.4623,1.4458,1.4187,1.4091,1.4161,1.3906,1.3768,1.3883,1.4082,1.42,1.42,1.4428,1.4557,1.4557,1.4667,1.4888,2.0439,2.0757,2.1324,2.2372,2.2492,2.2984,0.0,2.5501,2.5543,2.6921,2.751,2.7911,2.8243,2.8534,2.8788,2.8921,2.8948,2.9055,2.9392,2.9432,2.9526,2.9793,2.9308,2.9095,2.9406,2.9432,2.9659,3.0266,3.0306,3.0413,3.0635,3.0648,2.9781,2.7884,2.7826,2.6781,2.4511,2.4532,2.3467,2.1321,2.1396,2.0382,1.8471,1.8296,1.8068,1.7895,1.7551,1.7388,1.7372,1.7185,1.7112,1.7068,1.6621,1.6489,1.6533,1.6928,1.7096,1.6992,1.6589,1.645,1.6315,1.5734,1.5515,1.5442,1.53,1.522,1.5207,1.5341,1.5097,1.4843,1.5023,1.472,1.4387,1.4431,1.4387,1.4343,1.4431,1.4387,1.4343,1.4431,1.4431,1.4387,1.4431,1.4431,1.4465,1.4836,1.4475,1.4103,1.3959,1.3903,1.3903,1.3903,1.3903,1.3952,1.3966,1.3952,1.3896,1.3875,1.4005,1.4087,1.4107,1.4193,1.4231,1.4251,1.4387,1.4462,1.4462,1.4586,1.4667,1.4674,1.4875,1.4908,2.2084,2.2307,2.2564,2.3261,2.3981,2.477,2.5891,2.6213,2.6547,2.7495,2.7978,2.8286,2.8551,2.8711,2.8898,2.9245,2.9299,2.9406,2.97,2.974,2.9713,2.9673,2.9593,2.9593,2.9726,2.974,2.998,3.0568,3.0608,3.0221,2.9271,2.9237,2.8213,2.5986,2.5893,2.4682,2.2162,2.2243,2.1057,1.8532,1.864,1.8131,1.7181,1.7181,1.7096,1.6872,1.6756,1.6625,1.6524,1.6346,1.6277,1.6277,1.6057,1.6013,1.6005,1.6233,1.6277,1.6277,1.6057,1.6013,1.5954,1.5666,1.5381,1.5148,1.5082,1.4894,1.469,1.4753,1.4643,1.4481,1.4588,1.4431,1.4299,1.4299,1.4299,1.4299,1.4299,1.4299,1.4299,1.4299,1.4299,1.4299,1.4299,1.4299,1.4367,1.4481,1.426,1.4048,1.398,1.3973,1.3973,1.3973,1.4055,1.4075,1.398,1.4055,1.4109,1.4109,1.417,1.4245,1.4326,1.4312,1.438,1.4512,1.4529,1.4557,1.4599,1.4801,1.4875,1.4875,1.5025,1.5059,2.2963,2.3273,2.3594,2.4258,2.5329,2.6279,2.6439,2.6827,2.7335,2.7843,2.8123,2.8406,2.8671,2.8791,2.8991,2.9419,2.9553,2.9673,2.9887,2.9847,2.9713,2.9513,2.9593,2.9713,2.9793,2.9873,3.0127,3.0635,3.0083,2.9157,2.796,2.7273,2.5883,2.3616,2.3568,2.2296,1.9677,1.982,1.8868,1.6748,1.6875,1.6867,1.6748,1.6703,1.6614,1.6448,1.6331,1.6151,1.6025,1.5816,1.5779,1.5727,1.5587,1.5528,1.5484,1.5352,1.5484,1.566,1.5572,1.5528,1.5484,1.5352,1.5087,1.4822,1.4822,1.4557,1.4299,1.4299,1.4299,1.4299,1.4299,1.4299,1.4299,1.4299,1.4333,1.4346,1.4306,1.4333,1.4346,1.4306,1.4299,1.4299,1.4299,1.4299,1.4299,1.4299,1.4204,1.418,1.418,1.418,1.418,1.418,1.4231,1.4251,1.4143,1.4238,1.4299,1.4299,1.434,1.4407,1.4509,1.4455,1.4523,1.4687,1.4672,1.4692,1.4755,1.4957,1.5078,1.5078,1.5133,1.5181,2.2418,2.3086,2.4138,2.5569,2.6346,2.6947,2.7522,2.7924,2.8232,2.8511,2.8591,2.8684,2.8921,2.9259,2.9459,2.9486,2.9713,2.99,2.9913,2.9673,2.9499,2.9486,2.9232,2.9179,2.9472,2.9753,3.0047,3.04,2.8313,2.7099,2.7333,2.5254,2.3092,2.096,2.0911,1.9769,1.7325,1.7427,1.7296,1.6872,1.6879,1.6879,1.6872,1.6755,1.6673,1.6666,1.6456,1.6389,1.6359,1.6039,1.5906,1.5846,1.5233,1.5036,1.4948,1.452,1.4918,1.5616,1.5168,1.5036,1.4955,1.4476,1.4343,1.4299,1.4299,1.4299,1.4299,1.4299,1.4299,1.4299,1.4299,1.4299,1.4299,1.4299,1.4407,1.4468,1.4333,1.4407,1.4462,1.4326,1.4299,1.4299,1.4299,1.4299,1.4299,1.4299,1.4299,1.4292,1.4292,1.4292,1.4292,1.4292,1.4299,1.4299,1.4292,1.4299,1.4299,1.4299,1.4428,1.4509,1.4509,1.4606,1.4687,1.4694,1.4882,1.5003,1.501,1.5106,1.5174,1.5174,1.5181,1.5181,2.3585,2.4543,2.5462,2.6306,2.6974,2.7509,2.7938,2.8272,2.8417,2.8366,2.8339,2.8312,2.8163,2.839,2.87,2.8871,2.9312,2.97,2.9887,2.9833,2.9633,2.9232,2.9402,2.8866,2.6969,2.7014,2.739,2.7891,2.5759,2.3967,2.2865,2.2168,2.088,1.8787,1.8738,1.8144,1.6809,1.696,1.6734,1.6042,1.6042,1.6042,1.6042,1.5986,1.5909,1.5844,1.569,1.5564,1.5458,1.5209,1.5118,1.5066,1.4882,1.4816,1.4771,1.4636,1.4709,1.4867,1.4636,1.4557,1.452,1.4343,1.4299,1.4299,1.4299,1.4299,1.4299,1.4299,1.4299,1.4299,1.4299,1.4299,1.4299,1.4299,1.434,1.436,1.4312,1.4414,1.4496,1.4448,1.4441,1.4441,1.4441,1.436,1.4299,1.4299,1.4299,1.4299,1.4299,1.4299,1.4299,1.4299,1.4299,1.4299,1.4299,1.4299,1.434,1.4434,1.4394,1.4502,1.4808,1.4672,1.4726,1.5031,1.5086,1.5113,1.5113,1.5262,1.5282,1.5181,1.5181,1.5181,2.473,2.5598,2.6346,2.7094,2.7575,2.7951,2.8138,2.8259,2.8203,2.7938,2.771,2.7496,2.7268,2.7429,2.7764,2.8337,2.8845,2.9339,2.9847,2.982,2.9619,2.9202,2.9256,2.8321,2.5808,2.4766,2.4472,2.5146,2.3088,2.1287,2.0128,1.9469,1.8491,1.7169,1.7126,1.6899,1.6349,1.6546,1.6299,1.5716,1.5716,1.5689,1.5593,1.5593,1.5539,1.5438,1.533,1.5215,1.5113,1.4909,1.4821,1.4814,1.4714,1.4694,1.4694,1.4694,1.4633,1.4525,1.4428,1.434,1.4299,1.4299,1.4299,1.4299,1.4299,1.4299,1.4299,1.4299,1.434,1.4367,1.4312,1.434,1.4367,1.4312,1.434,1.4373,1.4373,1.4489,1.459,1.459,1.459,1.4577,1.4523,1.4434,1.4373,1.4373,1.4373,1.4353,1.4306,1.4299,1.4299,1.4299,1.4299,1.4299,1.4299,1.4299,1.436,1.4502,1.4475,1.4611,1.5003,1.4828,1.4889,1.5174,1.5235,1.5235,1.5181,1.5337,1.533,1.5181,1.5181,1.5181,2.573,2.6279,2.6787,2.7911,2.8179,2.8179,2.8165,2.7938,2.7589,2.7309,2.6747,2.6333,2.6293,2.6333,2.68,2.7938,2.839,2.8938,2.9775,2.9655,2.9482,2.9482,2.8789,2.7599,2.5776,2.3088,2.1644,2.2116,2.0265,1.9111,1.9119,1.7184,1.6083,1.6083,1.6083,1.6058,1.5915,1.6058,1.6058,1.5915,1.5915,1.5791,1.5614,1.5614,1.5607,1.5593,1.5486,1.5418,1.5391,1.5099,1.503,1.497,1.4821,1.4714,1.4714,1.4714,1.4714,1.4687,1.4584,1.4434,1.4306,1.4299,1.4299,1.4299,1.4299,1.4299,1.4299,1.4299,1.4394,1.4468,1.4346,1.4407,1.4468,1.4353,1.4421,1.4516,1.4523,1.4599,1.4708,1.4708,1.4708,1.466,1.455,1.4523,1.4523,1.4523,1.4523,1.4468,1.4333,1.4306,1.4306,1.4312,1.4306,1.4306,1.4312,1.4312,1.4373,1.4523,1.462,1.4814,1.5023,1.5153,1.5174,1.5181,1.5337,1.5337,1.5181,1.5337,1.533,1.5181,1.5181,1.5181,2.6346,2.7175,2.7804,2.8112,2.8179,2.8125,2.7856,2.763,2.7215,2.6479,2.5999,2.5531,2.4877,2.5651,2.656,2.7081,2.815,2.9057,2.9585,2.9592,2.9417,2.9041,2.8841,2.7248,2.3328,2.2403,2.0746,1.7597,1.6825,1.6589,1.6753,1.632,1.6083,1.6083,1.6083,1.6062,1.6071,1.6062,1.6062,1.6071,1.6071,1.6001,1.5967,1.5967,1.5906,1.5791,1.5642,1.5465,1.5398,1.5208,1.5126,1.5126,1.5086,1.5072,1.5072,1.5072,1.5004,1.4909,1.4869,1.4679,1.4441,1.4333,1.4299,1.4299,1.4299,1.4299,1.4299,1.4299,1.4326,1.4373,1.4441,1.4407,1.4401,1.4539,1.457,1.4543,1.4613,1.4801,1.4909,1.4909,1.4909,1.4862,1.466,1.4633,1.4633,1.4633,1.4633,1.4579,1.4475,1.4367,1.434,1.4448,1.4367,1.434,1.4448,1.4455,1.457,1.4835,1.478,1.4855,1.512,1.5112,1.5119,1.5181,1.5337,1.5337,1.5181,1.5337,1.533,1.5181,1.5181,1.5181,2.7001,2.771,2.8179,2.8179,2.8085,2.7817,2.7135,2.6707,2.6172,2.5037,2.4676,2.4369,2.3728,2.4609,2.5575,2.6043,2.7244,2.8338,2.9015,2.9228,2.922,2.9047,2.8032,2.6016,2.2525,2.1262,1.9279,1.5966,1.5798,1.5839,1.5901,1.6051,1.6083,1.6083,1.6083,1.6083,1.6083,1.6083,1.6083,1.6083,1.6064,1.6015,1.6083,1.6058,1.5983,1.5894,0.0,1.5506,1.5398,1.5248,1.5181,1.5181,1.5181,1.5181,1.5181,1.5181,1.5133,1.5105,1.5037,1.4814,1.4584,1.4441,1.4394,1.438,1.4319,1.4299,1.4299,1.4299,1.4346,1.4414,1.4489,1.4502,1.4491,1.4654,1.4626,1.4606,1.4808,1.4909,1.5037,1.5098,1.5057,1.4964,1.4936,1.4882,1.4841,1.4841,1.4841,1.4787,1.4631,1.4482,1.4421,1.4502,1.4441,1.4448,1.4597,1.4611,1.4713,1.5003,1.4889,1.4943,1.5174,1.5106,1.5099,1.5181,1.5337,1.5337,1.5181,1.5337,1.533,1.5181,1.5181,1.5181,2.7602,2.7991,2.8179,2.8179,2.7898,2.7281,2.6198,2.5545,2.4823,2.3434,2.3113,2.3006,2.2773,2.3452,2.4309,2.5113,2.6154,2.7216,2.8226,2.8625,2.8871,2.9141,2.6899,2.4582,2.2601,2.0128,1.7907,1.6069,1.6029,1.6092,1.5942,1.6058,1.6083,1.6083,1.6083,1.6083,1.6083,1.6083,1.6083,1.6083,1.5996,1.6003,1.6076,1.5976,1.5901,1.5894,1.5683,1.5533,1.5398,1.5248,1.5181,1.5181,1.5181,1.5181,1.5181,1.5181,1.5181,1.5167,1.5085,1.4909,1.4721,1.4577,1.4502,1.4462,1.434,1.4299,1.4306,1.4326,1.4414,1.4523,1.4563,1.4613,1.4708,1.4741,1.4741,1.4814,1.501,1.5044,1.5085,1.516,1.5132,1.5038,1.516,1.5079,1.5051,1.5071,1.5057,1.495,1.4769,1.4652,1.4543,1.4543,1.4543,1.4559,1.4714,1.4721,1.4835,1.4991,1.5044,1.5098,1.5174,1.5181,1.5181,1.5181,1.5309,1.5316,1.5181,1.5316,1.5309,1.5181,1.5201,1.5215,2.8018,2.8138,2.8179,2.8179,2.7549,2.6734,2.5798,2.4609,2.3385,2.2418,2.2064,2.1877,2.1823,2.2672,2.3713,2.4737,2.5615,2.6563,2.7696,2.8078,2.83,2.836,2.6445,2.4402,2.2509,2.0245,1.8117,1.6191,1.6185,1.6205,1.6049,1.6069,1.6083,1.6083,1.6083,1.6083,1.6083,1.6083,1.6083,1.6083,1.6056,1.6056,1.6076,1.5976,1.5901,1.5888,1.5567,0.0,1.5398,1.5248,1.5181,1.5181,1.5181,1.5181,1.5181,1.5181,1.5181,1.5181,1.5153,1.5126,1.5038,1.4638,1.4434,1.4333,1.4306,1.4299,1.4326,1.4441,1.4489,1.457,1.4821,1.4814,1.4755,1.5045,1.5018,1.497,1.5113,1.5194,1.5153,1.5174,1.516,1.5153,1.5181,1.516,1.5187,1.5316,1.5228,1.5133,1.5113,1.4869,1.4654,1.4654,1.4654,1.4714,1.4916,1.493,1.4991,1.514,1.5194,1.52,1.5181,1.5181,1.5181,1.5181,1.5208,1.5208,1.5181,1.5208,1.5208,1.5187,1.5309,1.5371,2.8098,2.8179,2.8152,2.7991,2.7255,2.6199,2.4716,2.3545,2.2444,2.1067,2.1075,2.1227,2.0875,2.1901,2.2856,2.3082,2.3947,2.5026,2.6344,2.6856,2.7375,2.8089,2.5515,2.3295,2.2379,1.9363,1.7112,1.6182,1.6151,1.6157,1.6083,1.6083,1.6083,1.6083,1.6083,1.6083,1.6083,1.6083,1.6083,1.6083,1.6051,1.6051,1.6076,1.5845,1.5744,1.573,1.5506,1.5364,1.5289,1.5215,1.5181,1.5181,1.5181,1.5181,1.5181,1.5181,1.5181,1.5181,1.5181,1.5133,1.5025,1.4726,1.4638,1.4618,1.4462,1.4407,1.4407,1.4401,1.4455,1.4563,1.4794,1.4855,1.4916,1.5133,1.5133,1.5099,1.5167,1.5181,1.5181,1.5181,1.5181,1.5181,1.5181,1.5181,1.5208,1.5282,1.5228,1.5153,1.5079,1.5011,1.4943,1.4869,1.4862,1.495,1.5181,1.5201,1.5228,1.5296,1.5303,1.5262,1.5187,1.5181,1.5181,1.5181,1.5181,1.5181,1.5181,1.5181,1.5221,1.5303,1.5377,1.5493,2.8098,2.8179,2.8112,2.7776,2.6947,2.5692,2.3732,2.2678,2.1646,2.0046,2.0292,2.0648,2.0176,2.1068,2.1829,2.1637,2.2435,2.3446,2.4524,2.5239,2.5928,2.6722,2.3739,2.1655,2.1655,1.8285,1.6083,1.6083,1.6083,1.6083,1.6083,1.6083,1.6083,1.6083,1.6083,1.6083,1.6083,1.6083,1.6083,1.6083,1.601,1.6017,1.6076,1.5805,1.5621,1.558,1.5479,1.5323,1.5181,1.5181,1.5181,1.5181,1.5181,1.5181,1.5181,1.5181,1.5181,1.5181,1.5181,1.5113,1.5044,1.4875,1.4875,1.4862,1.4557,1.4509,1.4536,1.4428,1.4502,1.4645,1.4748,1.4923,1.5091,1.5153,1.5181,1.5181,1.5181,1.5181,1.5181,1.5181,1.5181,1.5181,1.5181,1.5181,1.5194,1.5228,1.5201,1.5153,1.5119,1.5133,1.514,1.5025,1.5064,1.5126,1.5391,1.5411,1.5425,1.5459,1.5432,1.5357,1.5235,1.5201,1.5181,1.5181,1.5181,1.5181,1.5181,1.5215,1.5309,1.5459,1.5527,1.5696,2.8098,2.8179,2.8112,2.7776,2.664,2.5197,2.3639,2.2211,2.0916,1.9916,1.9763,1.9866,2.0081,2.0173,2.0518,2.1445,2.2056,2.2395,2.2388,2.3194,2.3399,2.2427,2.065,1.9462,1.9462,1.7402,1.6083,1.6083,1.6083,1.6083,1.6083,1.6083,1.6083,1.6083,1.6083,1.6083,1.6083,1.6083,1.6083,1.6083,1.6069,1.6069,1.6076,1.5956,1.5764,1.558,1.5479,1.5323,0.0,1.5181,1.5181,1.5181,1.5181,1.5181,1.5181,1.5181,1.5181,1.5181,1.5181,1.5174,1.516,1.5147,1.497,1.466,1.4407,1.4509,1.4674,1.466,1.4808,1.4964,1.5106,1.5153,1.5167,1.5181,1.5181,1.5181,1.5181,1.5181,1.5181,1.5181,1.5181,1.5181,1.5181,1.5181,1.5228,1.5371,1.5269,1.5228,1.5357,1.5262,1.5174,1.5167,1.516,1.5228,1.5398,1.5411,1.5472,1.556,1.5486,1.5404,1.5391,1.5255,1.5181,1.5181,1.5181,1.5181,1.5181,1.5323,1.5466,1.558,1.5893,1.611,2.7696,2.8045,2.8072,2.7603,2.6308,2.4776,2.3139,2.1581,2.0225,1.9277,1.9285,1.9463,1.9484,1.9651,1.994,2.0468,2.0733,2.1222,2.2301,2.3044,2.3263,2.2851,2.1395,2.0066,1.9281,1.7398,1.6218,1.6218,1.6137,1.6083,1.6083,1.6083,1.6083,1.6083,1.6083,1.6083,1.6083,1.6083,1.6083,1.6083,1.6083,1.6083,1.6076,1.5832,1.5689,1.558,1.5377,1.5242,0.0,1.5181,1.5181,1.5181,1.5181,1.5181,1.5181,1.5181,1.5181,1.5181,1.5181,1.5181,1.5167,1.5132,1.5031,1.497,1.4767,1.4787,1.4862,1.4721,1.4848,1.503,1.5085,1.512,1.5181,1.5181,1.5181,1.5181,1.5181,1.5181,1.5181,1.5181,1.5181,1.5181,1.5181,1.5181,1.5201,1.5262,1.5221,1.5208,1.5262,1.5221,1.5181,1.5181,1.5181,1.5242,1.5398,1.5411,1.5438,1.5499,1.5445,1.5371,1.5276,1.5215,1.5181,1.5181,1.5276,1.5316,1.5323,1.556,1.5757,1.5913,1.6123,1.6347,2.7041,2.7563,2.7629,2.7012,2.5766,2.4264,2.2501,2.1042,1.9815,1.8877,1.8981,1.9212,1.9115,1.9357,1.95,1.9264,1.9457,1.984,2.0413,2.1011,2.1222,2.0887,1.9977,1.902,1.8161,1.6985,1.6246,1.6246,1.6144,1.6083,1.6083,1.6083,1.6083,1.6083,1.6083,1.6083,1.6083,1.6083,1.6083,1.6083,1.6035,1.6064,1.6008,1.5757,1.5566,1.5512,1.5343,1.5221,0.0,1.5181,1.5181,1.5181,1.5181,1.5181,1.5181,1.5181,1.5181,1.5181,1.5181,1.5181,1.5167,1.5112,1.5099,1.516,1.5112,1.5078,1.5004,1.4848,1.4916,1.5078,1.5078,1.5106,1.5181,1.5181,1.5181,1.5181,1.5181,1.5181,1.5181,1.5181,1.5181,1.5181,1.5181,1.5181,1.5181,1.5181,1.5181,1.5181,1.5181,1.5181,1.5181,1.5181,1.5181,1.5242,1.5398,1.5411,1.5432,1.5479,1.5438,1.5364,1.5255,1.5208,1.5201,1.5248,1.5398,1.5499,1.554,1.5839,1.6069,1.6218,1.6368,1.6527,2.6092,2.6613,2.664,2.599,2.4982,2.3643,2.1821,2.0737,1.9815,1.8877,1.8914,1.9092,1.9088,1.9322,1.9083,1.7815,1.8417,1.8127,1.5611,1.6014,1.6066,1.4775,1.4879,1.5139,1.5438,1.5825,1.6083,1.6083,1.6083,1.6083,1.6083,1.6083,1.6083,1.6083,1.6083,1.6083,1.6083,1.6083,1.6083,1.6083,1.5976,1.5901,1.5901,1.5703,1.5506,1.5411,1.5411,1.5323,0.0,1.5181,1.5181,1.5181,1.5181,1.5181,1.5181,1.5181,1.5181,1.5181,1.5181,1.5181,1.5181,1.5181,1.5181,1.5181,1.5181,1.5181,1.5153,1.5011,1.5072,1.5181,1.5181,1.5181,1.5181,1.5181,1.5181,1.5181,1.5181,1.5181,1.5181,1.5181,1.5181,1.5181,1.5181,1.5181,1.5181,1.5181,1.5181,1.5181,1.5181,1.5181,1.5181,1.5181,1.5181,1.5242,1.5398,1.5411,1.5479,1.558,1.5445,1.5411,1.5411,1.5262,1.5255,1.5404,1.5512,1.571,1.5901,1.6157,1.6381,1.6524,1.6621,1.6777,2.4195,2.4759,2.5044,2.4009,2.3132,2.2166,2.0809,1.9938,1.9262,1.8813,1.8782,1.8945,1.933,1.9443,1.9723,2.0427,1.9639,1.8959,1.9006,1.8435,1.7554,1.6358,1.5934,1.5805,1.6008,1.6062,1.6123,1.6232,1.6144,1.6083,1.6083,1.6083,1.6083,1.6083,1.6083,1.6083,1.6083,1.6083,1.6083,1.6083,1.5976,1.5901,1.5894,1.5594,1.5459,1.5404,1.5303,1.5228,1.5181,1.5181,1.5181,1.5181,1.5181,1.5181,1.5181,1.5181,1.5181,1.5181,1.5181,1.5181,1.5181,1.5181,1.5181,1.5181,1.5181,1.5181,1.5174,1.5126,1.5147,1.5181,1.5181,1.5181,1.5181,1.5181,1.5181,1.5181,1.5181,1.5181,1.5181,1.5181,1.5181,1.5181,1.5181,1.5181,1.5181,1.5181,1.5181,1.5181,1.5181,1.5181,1.5181,1.5181,1.5181,1.5201,1.5248,1.5255,1.5276,1.5323,1.5282,1.5255,1.5255,1.5309,1.5309,1.5255,1.5458,1.571,1.5901,1.6157,1.649,1.6836,1.6883,1.6937,2.2529,2.309,2.3355,2.2349,2.1616,2.0923,1.9948,1.9301,1.8911,1.8722,1.879,1.8995,1.9418,1.9588,1.9642,1.9562,1.8743,1.8021,1.7787,1.7208,1.6612,1.6174,1.5988,1.5954,1.6049,1.6069,1.6123,1.6218,1.6137,1.6083,1.6083,1.6083,1.6083,1.6083,1.6083,1.6083,1.6083,1.6083,1.6083,1.6083,1.5872,1.5771,1.5764,1.5466,1.5323,1.5316,1.5221,1.5181,0.0,1.5181,1.5181,1.5181,1.5181,1.5181,1.5181,1.5181,1.5181,1.5181,1.5181,1.5181,1.5181,1.5181,1.5181,1.5181,1.5181,1.5181,1.5181,1.5181,1.5181,1.5181,1.5181,1.5181,1.5181,1.5181,1.5181,1.5181,1.5181,1.5181,1.5181,1.5181,1.5181,1.5181,1.5181,1.5181,1.5181,1.5181,1.5181,1.5181,1.5181,1.5181,1.5181,1.5181,1.5181,1.5181,1.5181,1.5181,1.5181,1.5181,1.5181,1.5181,1.5181,1.5276,1.5337,1.5357,1.5594,1.5845,1.6103,1.6415,1.6707,1.6978,1.6978,1.6978,0.0,2.1581,2.167,2.0894,2.0339,1.9807,1.9176,1.8862,0.0,1.8686,1.8828,1.904,1.9331,1.9492,1.8778,1.63,1.6341,1.5814,1.3351,1.3425,1.3964,1.4687,1.5296,1.5648,1.5641,1.5934,1.6096,1.6083,1.6083,1.6083,1.6083,1.6083,1.6083,1.6083,1.6083,1.6083,1.6083,1.6083,1.6083,1.6076,1.5778,1.5593,1.5593,1.5323,1.5187,0.0,1.5187,1.5181,1.5181,1.5181,1.5181,1.5181,1.5181,1.5181,1.5181,1.5181,1.5181,1.5181,1.5181,1.5181,1.5181,1.5181,1.5181,1.5181,1.5181,1.5181,1.5181,1.5181,1.5181,1.5181,1.5181,1.5181,1.5181,1.5181,1.5181,1.5181,1.5181,1.5181,1.5181,1.5181,1.5181,1.5181,1.5181,1.5181,1.5181,1.5181,1.5181,1.5181,1.5181,1.5181,1.5181,1.5181,1.5181,1.5181,1.5181,1.5181,1.5181,1.5181,1.5181,1.5181,1.5181,1.5194,1.5323,1.5553,1.5778,1.6126,1.649,1.6822,1.6978,1.6978,1.6978,1.6978,1.9154,0.0,2.0035,1.8954,1.8722,1.8698,0.0,1.8463,1.8686,1.8686,1.8042,1.7686,1.8321,1.7384,1.6803,1.7636,1.6511,1.5632,1.5822,1.5256,1.5011,1.5527,1.6022,1.6273,1.6164,1.6212,1.6205,1.609,1.6083,1.6083,1.6083,1.6083,1.6083,1.6083,1.6083,1.6083,1.6083,1.6083,1.6083,1.6076,1.5778,1.5696,1.584,1.5371,1.5248,1.535,1.5235,1.5181,1.5181,1.5181,1.5181,1.5181,1.5181,1.5181,1.5181,1.5181,1.5181,1.5181,1.5181,1.5181,1.5181,1.5181,1.5181,1.5181,1.5181,1.5181,1.5181,1.5181,1.5181,1.5181,1.5181,1.5181,1.5181,1.5181,1.5181,1.5181,1.5181,1.5181,1.5181,1.5181,1.5181,1.5181,1.5181,1.5181,1.5181,1.5181,1.5181,1.5181,1.5181,1.5181,1.5181,1.5181,1.5181,1.5181,1.5181,1.5181,1.5181,1.5181,1.5181,1.5181,1.5181,1.5296,1.5337,1.5289,1.5778,1.6083,1.6185,1.672,1.6978,1.6978,1.6978,1.6978,1.8128,1.8763,1.9117,1.748,1.7708,1.8167,1.7376,1.7784,1.8379,1.8481,1.7616,1.6979,1.7573,1.6623,1.5914,1.6445,1.5824,1.5387,1.5716,1.5551,1.5506,1.5867,1.6246,1.649,1.6415,1.6347,1.6273,1.6191,1.6123,1.6083,1.6083,1.6083,1.6083,1.6083,1.6083,1.6083,1.6083,1.6083,1.6083,1.6076,1.5778,1.5683,1.5744,1.5357,1.5228,1.5303,1.5215,1.5181,1.5181,1.5181,1.5181,1.5181,1.5181,1.5181,1.5181,1.5181,1.5181,1.5181,1.5181,1.5181,1.5181,1.5181,1.5181,1.5181,1.5181,1.5181,1.5181,1.5181,1.5181,1.5181,1.5181,1.5181,1.5181,1.5181,1.5181,1.5181,1.5181,1.5181,1.5181,1.5181,1.5181,1.5181,1.5181,1.5181,1.5181,1.5181,1.5181,1.5181,1.5181,1.5181,1.5181,1.5181,1.5181,1.5181,1.5181,1.5181,1.5181,1.5181,1.5181,1.5181,1.5181,1.5262,1.5303,1.5289,1.5879,1.6185,1.6185,1.672,1.6978,1.6978,1.691,1.691,1.723,1.7889,1.823,1.6389,1.6823,1.7356,1.6233,1.6686,1.7395,1.7645,1.6787,1.6145,1.6653,1.5996,1.5102,1.4311,1.4773,1.51,1.4641,1.5194,1.5703,1.5915,1.6266,1.651,1.649,1.6381,1.63,1.6279,1.6157,1.6083,1.6083,1.6083,1.6083,1.6083,1.6083,1.6069,1.6049,1.6069,1.6083,1.6076,1.5805,1.5669,1.5662,1.5357,1.5215,1.5215,0.0,0.0,1.5181,1.5181,1.5181,1.5181,1.5181,1.5181,1.5181,1.5181,1.5181,1.5181,1.5181,1.5181,1.5181,1.5181,1.5181,1.5181,1.5181,1.5181,1.5181,1.5181,1.5181,1.5181,1.5181,1.5181,1.5181,1.5181,1.5181,1.5181,1.5181,1.5181,1.5181,1.5181,1.5181,1.5181,1.5181,1.5181,1.5181,1.5181,1.5181,1.5181,1.5181,1.5181,1.5181,1.5181,1.5181,1.5181,1.5181,1.5181,1.5181,1.5181,1.5181,1.5181,1.5181,1.5181,1.5242,1.5371,1.5967,1.6273,1.6279,1.6748,1.6978,1.6978,1.6842,1.6856,1.5236,1.56,1.6087,1.5743,1.5217,1.4628,1.4216,1.4408,1.4738,1.4863,1.4006,1.3475,1.4396,1.3429,1.2705,1.3574,1.4138,1.4571,1.4874,1.5323,1.5737,1.6015,1.6327,1.6476,1.6354,1.632,1.6252,1.613,1.6096,1.6083,1.6083,1.6083,1.6083,1.6083,1.6083,1.6071,1.5942,1.6015,1.6083,1.6083,1.5956,1.5867,1.586,1.5513,1.5377,1.5371,0.0,1.5181,1.5181,1.5181,1.5181,1.5181,1.5181,1.5181,1.5181,1.5181,1.5181,1.5181,1.5181,1.5181,1.5181,1.5181,1.5181,1.5181,1.5181,1.5181,1.5181,1.5181,1.5181,1.5181,1.5181,1.5181,1.5181,1.5181,1.5181,1.5181,1.5181,1.5181,1.5181,1.5181,1.5181,1.5181,1.5181,1.5181,1.5181,1.5181,1.5181,1.5181,1.5181,1.5181,1.5181,1.5181,1.5181,1.5181,1.5181,1.5181,1.5181,1.5181,1.5181,1.5181,1.5181,1.5181,1.5194,1.5215,1.5811,1.6117,1.6117,1.67,1.6978,1.6978,1.6958,1.6958,1.3819,1.3744,1.3786,1.3854,1.4391,1.4677,1.3709,1.3942,1.4435,1.4633,1.3716,1.3076,1.3789,1.3042,1.2645,1.381,1.4299,1.4638,1.493,1.5357,1.5716,1.5983,1.6225,1.6415,1.6422,1.6354,1.6279,1.6212,1.613,1.6083,1.6083,1.6051,1.601,1.601,1.5886,1.5811,1.5737,1.5935,1.592,1.5839,1.5689,1.5615,1.5608,1.5384,1.5289,1.5282,0.0,1.5181,1.5181,1.5181,1.5181,1.5181,1.5181,1.5181,1.5181,1.4852,1.4758,1.4711,1.4482,1.4388,1.4388,1.4388,1.4388,1.4388,1.4388,1.4388,1.4388,1.4388,1.4758,1.5181,1.5181,1.5181,1.5181,1.5181,1.5181,1.5181,1.5181,1.5181,1.5181,1.5181,1.5181,1.5181,1.5181,1.5181,1.5181,1.5181,1.5181,1.5181,1.5181,1.5181,1.5181,1.5181,1.5181,1.5181,1.5181,1.5181,1.5181,1.5181,1.5181,1.5181,1.5181,1.5181,1.5221,1.5303,1.5818,1.6123,1.6205,1.6727,1.6821,1.6499,1.6733,1.674,1.2351,1.204,1.182,1.1959,1.3195,1.4087,1.313,1.3322,1.3853,1.4276,1.3566,1.3011,1.3526,1.3272,1.3329,1.4204,1.4597,1.4862,1.5045,1.5398,1.5689,1.5888,1.6062,1.6246,1.6354,1.6239,1.6151,1.6151,1.6076,1.6015,1.5981,1.5949,1.5888,1.5854,1.5696,1.5573,1.5539,1.5696,1.571,1.5587,1.5554,1.5479,1.5404,1.5289,1.5215,1.5181,1.5181,1.5181,1.5181,1.5181,1.5134,1.4993,1.4993,1.4946,1.4811,1.4382,1.4241,1.4194,1.3823,1.3682,1.3682,1.3682,1.3682,1.3682,1.3682,1.3682,1.3682,1.3682,1.4247,1.4852,1.4852,1.4852,1.4852,1.4852,1.4852,1.4852,1.4852,1.4946,1.4993,1.4993,1.4993,1.504,1.5181,1.5087,1.504,1.5181,1.5181,1.5181,1.5181,1.5181,1.5181,1.5181,1.5181,1.5181,1.5181,1.5181,1.5181,1.5181,1.5181,1.5181,1.5181,1.5181,1.5235,1.5357,1.5832,1.6137,1.6259,1.6748,1.6768,1.6288,1.6491,1.6445,1.0402,1.0419,1.0644,1.0795,1.0755,1.0869,1.155,1.1427,1.1414,1.2324,1.2319,1.2364,1.297,1.3561,1.4089,1.4441,1.4753,1.5052,1.5337,1.5479,1.5689,1.5888,1.5922,1.5942,1.5949,1.5771,1.5641,1.5641,1.5798,1.5811,1.5627,1.5784,1.5791,1.5607,1.5593,1.5519,1.5432,1.5438,1.5506,1.5593,1.5764,1.5676,1.5411,1.5398,1.5316,1.5181,1.5181,1.5181,1.5181,1.5181,1.4899,1.4469,1.4469,1.4194,1.3776,1.3776,1.3729,1.3729,1.3735,1.3682,1.3682,1.3682,1.3682,1.3682,1.3682,1.3682,1.3682,1.3682,1.3729,1.3823,1.3823,1.3823,1.3823,1.3823,1.3823,1.3823,1.3823,1.4146,1.4469,1.4469,1.4469,1.461,1.5087,1.4805,1.4617,1.5134,1.5181,1.5181,1.5181,1.5181,1.5181,1.5181,1.5181,1.5181,1.5181,1.5181,1.5181,1.5181,1.5181,1.5181,1.5181,1.5181,1.5187,1.5201,1.5778,1.609,1.6096,1.6693,1.6978,1.6926,1.6387,1.644,0.9703,1.0053,1.0555,1.0765,1.0745,1.0874,1.1714,1.1837,1.2013,1.2813,1.2901,1.2921,1.3302,1.3756,1.417,1.4462,1.4767,1.5038,1.5242,1.5398,1.5513,1.5574,1.5662,1.5716,1.5716,1.5621,1.5593,1.5593,1.5689,1.5696,1.5593,1.5601,1.5554,1.5499,1.5071,1.4849,1.4796,1.4549,1.4438,1.4406,1.5125,1.5235,1.479,1.479,1.4575,1.4247,1.4247,1.4247,1.4247,1.4247,1.4153,1.3964,1.3964,1.387,1.3641,1.3305,1.3211,1.3163,1.288,1.2786,1.2786,1.2786,1.2786,1.2786,1.2786,1.2786,1.2786,1.2786,1.2786,1.2928,1.3541,1.3682,1.3682,1.3682,1.3682,1.3682,1.3682,1.3823,1.3964,1.3964,1.4194,1.4469,1.4664,1.4805,1.4993,1.5181,1.5181,1.5181,1.5181,1.5181,1.5181,1.5181,1.5181,1.5181,1.5181,1.5181,1.5181,1.5181,1.5181,1.5181,1.5181,1.5181,1.5228,1.5323,1.5825,1.613,1.6225,1.6734,1.6821,1.6446,1.661,1.6558,0.951,0.9964,1.0507,1.0826,1.0988,1.1259,1.2094,1.2318,1.2596,1.3437,1.3492,1.3444,1.3612,1.3865,1.4095,1.4394,1.4699,1.495,1.5139,1.5289,1.5411,1.5411,1.5506,1.5519,1.5519,1.552,1.5397,1.5253,1.53,1.523,1.5079,1.4987,1.4928,1.4928,1.4459,1.4194,1.4194,1.3957,1.3767,1.3735,1.4388,1.4523,1.4194,1.4194,1.4005,1.3682,1.3682,1.3682,1.3682,1.3682,1.3588,1.3446,1.3258,1.3211,1.3163,1.2833,1.2692,1.2644,1.2314,1.2219,1.2219,1.2219,1.2219,1.2219,1.2219,1.2219,1.2219,1.2219,1.2219,1.2361,1.3069,1.3211,1.3211,1.3211,1.3211,1.3211,1.3211,1.3352,1.3446,1.3446,1.3729,1.3958,1.4146,1.4335,1.4523,1.4717,1.4852,1.4946,1.4946,1.5087,1.5181,1.5181,1.5181,1.5181,1.5181,1.5181,1.5181,1.5181,1.5181,1.5181,1.5181,1.5181,1.5228,1.5337,1.5737,1.6042,1.6239,1.6639,1.6674,1.6394,1.661,1.661,0.9751,1.0046,1.0392,1.0806,1.1144,1.1633,1.249,1.2617,1.2807,1.3901,1.3953,1.3802,1.3802,1.3802,1.3903,1.4251,1.4498,1.4794,1.495,1.5221,1.5404,1.5411,1.5411,1.5411,1.5411,1.5269,1.4993,1.4429,1.4564,1.4451,1.3925,1.3919,1.3919,1.3919,1.3749,1.3682,1.3682,1.3682,1.3682,1.3682,1.3682,1.3682,1.3682,1.3682,1.3682,1.3682,1.3682,1.3682,1.3682,1.3682,1.3352,1.2833,1.2361,1.2219,1.2219,1.2219,1.2219,1.2219,1.2219,1.2219,1.2219,1.2219,1.2219,1.2219,1.2219,1.2219,1.2219,1.2219,1.2219,1.2219,1.2219,1.2219,1.2219,1.2219,1.2219,1.2219,1.2219,1.255,1.288,1.288,1.288,1.3069,1.3588,1.3258,1.3069,1.3635,1.4099,1.4375,1.4422,1.4852,1.5181,1.5181,1.5181,1.5181,1.5181,1.5181,1.5181,1.5181,1.5181,1.5181,1.5181,1.5181,1.5181,1.5181,1.5486,1.5784,1.6076,1.6374,1.668,1.6978,1.6394,1.6446,0.9557,1.012,1.0772,1.1043,1.164,1.2325,1.2908,1.3091,1.3342,1.4082,1.4109,1.4,1.4,1.4,1.4068,1.4272,1.4455,1.4672,1.4983,1.5091,1.514,1.5242,1.4918,1.4682,1.4682,1.436,1.4144,1.4048,1.4004,1.3969,1.3919,1.3792,1.3743,1.3743,1.337,1.3116,1.3116,1.2833,1.2644,1.2644,1.2644,1.2833,1.3116,1.3116,1.2975,1.2644,1.2644,1.2644,1.2644,1.2644,1.255,1.2408,1.2267,1.2219,1.2219,1.2219,1.2219,1.2219,1.2219,1.2219,1.2219,1.2219,1.2219,1.2219,1.2219,1.2219,1.2219,1.2219,1.2219,1.2219,1.2219,1.2219,1.2219,1.2219,1.2219,1.2219,1.2219,1.2314,1.2408,1.2408,1.2692,1.2928,1.3116,1.3305,1.3635,1.4099,1.4335,1.4516,1.4899,1.5087,1.5181,1.5181,1.5181,1.5181,1.5181,1.5181,1.5181,1.5181,1.5181,1.5181,1.5181,1.5181,1.5181,1.5181,1.5486,1.5634,1.5771,1.6178,1.6469,1.6659,1.656,1.6668,0.9897,1.046,1.1138,1.1586,1.2149,1.2759,1.3424,1.36,1.379,1.4211,1.4177,1.4132,1.415,1.4159,1.4122,1.4278,1.4421,1.4532,1.4532,1.4613,1.4626,1.4525,1.4303,1.4099,1.4099,1.387,1.3671,1.3507,1.3441,1.3364,1.3298,1.3186,1.314,1.3192,1.2815,1.2597,1.2597,1.2361,1.2145,1.2102,1.2145,1.2311,1.2457,1.2552,1.2456,1.2219,1.2219,1.2219,1.2219,1.2219,1.2219,1.2167,1.2118,1.2129,1.2209,1.2063,1.2091,1.2214,1.2159,1.2176,1.2219,1.2219,1.2219,1.2219,1.2219,1.2219,1.2219,1.2219,1.2219,1.2219,1.2219,1.2219,1.2219,1.2219,1.2219,1.2219,1.2219,1.2219,1.2219,1.2219,1.2408,1.2597,1.2597,1.288,1.3211,1.3487,1.3864,1.4382,1.5087,1.5181,1.5181,1.5181,1.5181,1.5181,1.5181,1.5181,1.5181,1.5181,1.5181,1.5181,1.5181,1.5181,1.5181,1.5181,1.5364,1.5472,1.5593,1.5967,1.6266,1.6524,1.6628,1.6836,1.0495,1.0928,1.1431,1.2284,1.2678,1.3031,1.3905,1.4139,1.4129,1.4272,1.419,1.418,1.4272,1.4183,1.4136,1.4278,1.4407,1.4316,1.388,1.4016,1.4012,1.3567,1.3543,1.3623,1.3635,1.3588,1.3358,1.2898,1.2839,1.2701,1.2442,1.2285,1.2269,1.2383,1.2274,1.2219,1.2219,1.2219,1.2107,1.1987,1.2102,1.2036,1.183,1.2063,1.2219,1.2219,1.215,1.2198,1.2219,1.2209,1.2209,1.2209,1.2047,1.211,1.2129,1.1928,1.1982,1.2187,1.2042,1.208,1.2219,1.2219,1.2219,1.2219,1.2219,1.2219,1.2219,1.2219,1.2219,1.2219,1.2219,1.2219,1.2219,1.2219,1.2219,1.2219,1.2219,1.2219,1.2219,1.2219,1.2219,1.2219,1.2219,1.2219,1.2219,1.2314,1.3211,1.4153,1.5087,1.5181,1.5181,1.5181,1.5181,1.5181,1.5181,1.5181,1.5181,1.5181,1.5181,1.5181,1.5181,1.5181,1.5181,1.5181,1.5181,1.5316,1.5546,1.5744,1.6035,1.6463,1.6567,1.6781,1.0304,1.0846,1.1531,1.2305,1.3146,1.3865,1.4177,1.4251,1.4258,1.4292,1.4272,1.4265,1.4292,1.4272,1.4265,1.4292,1.4326,1.4202,1.3867,1.3842,1.3782,1.3548,1.3132,1.2958,1.3057,1.2739,1.2494,1.2499,1.2416,1.2369,1.2394,1.2285,1.223,1.2258,1.223,1.2219,1.2219,1.2219,1.2107,1.1987,1.2015,1.1955,1.183,1.2063,1.2219,1.2209,1.1976,1.1998,1.2214,1.2069,1.2132,1.2214,1.2187,1.2091,1.2031,1.208,1.2069,1.2036,1.2107,1.2198,1.2219,1.2219,1.2219,1.2219,1.2219,1.2219,1.2219,1.2219,1.2219,1.2219,1.2219,1.2219,1.2219,1.2219,1.2219,1.2219,1.2219,1.2219,1.2219,1.2219,1.2219,1.2219,1.2219,1.2219,1.2456,1.3258,1.4247,1.4946,1.5181,1.5181,1.5181,1.5181,1.5181,1.5181,1.5181,1.5181,1.5181,1.5181,1.5181,1.5181,1.5181,1.5181,1.5181,1.5181,1.5181,1.5215,1.5282,1.5432,1.5676,1.6051,1.6151,1.6368,1.046,1.0989,1.164,1.2671,1.3505,1.4159,1.4265,1.4299,1.4299,1.4299,1.4299,1.4299,1.4299,1.4122,1.3945,1.3945,1.3768,1.3483,1.3101,1.3079,1.2945,1.2632,1.238,1.2303,1.2371,1.2143,1.2053,1.2219,1.2069,1.2053,1.2219,1.2118,1.2085,1.2085,1.2187,1.2192,1.2085,1.2085,1.1993,1.1819,1.1879,1.1879,1.1778,1.1944,1.2004,1.1993,1.1873,1.1889,1.1998,1.1933,1.1944,1.1998,1.1938,1.1911,1.1906,1.1911,1.1911,1.1917,1.1982,1.2036,1.2085,1.2085,1.217,1.2219,1.2219,1.2219,1.2219,1.2219,1.2219,1.2203,1.2102,1.2085,1.2069,1.2015,1.2047,1.2102,1.2209,1.2085,1.2036,1.2198,1.217,1.2102,1.2209,1.2219,1.255,1.3541,1.4153,1.467,1.5134,1.5181,1.5181,1.5181,1.5181,1.5181,1.5181,1.5181,1.5181,1.5181,1.5181,1.5181,1.5181,1.5181,1.5181,1.5181,1.5181,1.5181,1.5181,1.5337,1.556,1.5908,1.6058,1.6239,1.0576,1.1185,1.1837,1.3057,1.3682,1.4034,1.419,1.4217,1.4217,1.4217,1.4265,1.4299,1.421,1.3856,1.3591,1.3502,1.3141,1.2742,1.2254,1.2258,1.2108,1.1634,1.1681,1.1751,1.1819,1.1819,1.1857,1.1949,1.1873,1.1862,1.1955,1.196,1.196,1.196,1.2058,1.2063,1.196,1.196,1.1851,1.1594,1.1716,1.1754,1.1754,1.1754,1.1781,1.1819,1.1775,1.1781,1.1819,1.1797,1.1797,1.1808,1.1681,1.1692,1.1781,1.1697,1.1708,1.1746,1.1835,1.1895,1.196,1.196,1.2025,1.2112,1.2112,1.2112,1.2112,1.2112,1.2112,1.2085,1.1987,1.196,1.1938,1.1841,1.1873,1.196,1.2085,1.1955,1.1879,1.2074,1.2047,1.202,1.217,1.225,1.2644,1.3541,1.3776,1.4153,1.5087,1.5181,1.5181,1.5181,1.5181,1.5181,1.5181,1.5181,1.5181,1.5181,1.5181,1.5181,1.5181,1.5181,1.5181,1.5181,1.5181,1.5181,1.5181,1.5309,1.5513,1.5826,1.5906,1.6123,1.0229,1.1253,1.2338,1.3071,1.3444,1.3687,1.3829,1.3862,1.3862,1.3862,1.4116,1.4166,1.3768,1.3635,1.3458,1.3053,1.292,1.2742,1.2254,1.2227,1.2056,1.1668,1.1605,1.1659,1.1808,1.1819,1.1824,1.1841,1.183,1.1824,1.1841,1.1841,1.1841,1.1841,1.1857,1.1857,1.1841,1.1841,1.1775,1.1589,1.1547,1.1548,1.1548,1.1548,1.1618,1.1808,1.1641,1.1623,1.1808,1.1659,1.1675,1.183,1.1911,1.1824,1.1654,1.1993,1.1911,1.1643,1.1895,1.1911,1.1841,1.1841,1.1851,1.1868,1.1868,1.1868,1.1868,1.1868,1.1868,1.1862,1.1846,1.1841,1.1835,1.1778,1.1703,1.167,1.1841,1.1841,1.183,1.1862,1.1933,1.1993,1.2009,1.2477,1.3022,1.3588,1.4052,1.4523,1.5134,1.5181,1.5181,1.5181,1.5181,1.5181,1.5181,1.5181,1.5181,1.5181,1.5181,1.5181,1.5181,1.5181,1.5181,1.5181,1.5181,1.5181,1.5181,1.5201,1.5303,1.5472,1.5493,1.5662,1.031,1.1206,1.2074,1.2752,1.3152,1.3437,1.3626,1.3741,1.3795,1.3795,1.3903,1.3894,1.3543,1.3312,1.3053,1.2565,1.2299,1.2032,1.1855,1.181,1.1743,1.157,1.1536,1.1558,1.1612,1.1612,1.1645,1.171,1.1656,1.1645,1.167,1.167,1.167,1.167,1.174,1.174,1.167,1.167,1.1656,1.1536,1.1526,1.1499,1.1499,1.1499,1.1559,1.1607,1.1548,1.1559,1.1612,1.1558,1.1569,1.1629,1.1743,1.1688,1.1569,1.1868,1.1786,1.1558,1.1732,1.1759,1.167,1.167,1.1764,1.1819,1.1819,1.1819,1.1819,1.1819,1.1819,1.1757,1.1692,1.167,1.1699,1.1634,1.1574,1.1552,1.1601,1.1612,1.1656,1.1792,1.1911,1.2009,1.208,1.2322,1.2692,1.3163,1.3682,1.4194,1.4711,1.4973,1.5112,1.5112,1.5112,1.5112,1.5112,1.514,1.5181,1.5181,1.5181,1.5181,1.5181,1.5181,1.5181,1.5181,1.5181,1.5181,1.5181,1.5181,1.5262,1.5411,1.5411,1.5527,1.0297,1.0901,1.1511,1.2226,1.2698,1.303,1.3288,1.3497,1.3626,1.3499,1.3517,1.3475,1.3027,1.2854,1.2607,1.2069,1.1649,1.1423,1.145,1.1428,1.1423,1.145,1.1455,1.1466,1.1499,1.1499,1.1537,1.1585,1.1554,1.1537,1.1585,1.159,1.159,1.159,1.1677,1.1683,1.159,1.159,1.1542,1.1499,1.1499,1.1499,1.1499,1.1499,1.1499,1.1499,1.1499,1.1499,1.1499,1.1499,1.1499,1.151,1.159,1.1563,1.1526,1.1732,1.1667,1.1515,1.1596,1.1573,1.159,1.159,1.165,1.1726,1.1726,1.1726,1.1726,1.1726,1.1726,1.1705,1.1612,1.159,1.1569,1.1521,1.1499,1.1499,1.1499,1.1499,1.1565,1.1732,1.1868,1.1982,1.2148,1.2198,1.235,1.2787,1.324,1.3704,1.4232,1.4593,1.4818,1.4916,1.4909,1.493,1.5017,1.5065,1.5147,1.5181,1.5181,1.5181,1.5181,1.5181,1.5181,1.5181,1.5181,1.5181,1.5181,1.5181,1.5242,1.535,1.535,1.5438,0.9886,1.0278,1.0731,1.1455,1.2006,1.2413,1.2712,1.3003,1.3084,1.2675,1.2813,1.2754,1.1871,1.2142,1.2268,1.1483,1.1237,1.1161,1.1308,1.1188,1.1161,1.1313,1.1324,1.1374,1.1488,1.1499,1.1504,1.151,1.1504,1.1504,1.151,1.151,1.151,1.151,1.1515,1.1515,1.151,1.151,1.1504,1.1499,1.1499,1.1499,1.1499,1.1499,1.1499,1.1499,1.1499,1.1499,1.1499,1.1499,1.1499,1.151,1.159,1.1563,1.1526,1.1732,1.1667,1.1515,1.1596,1.1563,1.151,1.151,1.1515,1.1521,1.1521,1.1521,1.1521,1.1521,1.1521,1.1515,1.151,1.151,1.151,1.1499,1.1499,1.1499,1.1499,1.1499,1.1537,1.1623,1.1697,1.1862,1.1976,1.2143,1.2322,1.2667,1.2847,1.3216,1.3924,1.4145,1.4356,1.4675,1.4708,1.4808,1.4957,1.5023,1.5038,1.5174,1.5181,1.5181,1.5181,1.5181,1.5181,1.5181,1.5181,1.5181,1.5181,1.5181,1.5187,1.5194,1.5194,1.5276,0.971,1.0021,1.03,1.0777,1.1382,1.1827,1.1669,1.2063,1.2395,1.2043,1.2131,1.2096,1.147,1.1715,1.1845,1.1285,1.1128,1.1118,1.1156,1.1128,1.1118,1.1161,1.1161,1.1183,1.1226,1.1232,1.1232,1.1232,1.1232,1.1232,1.1232,1.1232,1.1264,1.1379,1.1384,1.1417,1.1499,1.1499,1.1499,1.1499,1.1499,1.1499,1.1499,1.1499,1.1499,1.1499,1.1499,1.1499,1.1499,1.1499,1.1499,1.151,1.159,1.1563,1.1521,1.1639,1.1596,1.1504,1.1548,1.1537,1.1499,1.1499,1.1499,1.1499,1.1499,1.1499,1.1499,1.1499,1.1499,1.1499,1.1499,1.1499,1.1499,1.1499,1.1499,1.1499,1.1499,1.1514,1.1607,1.1732,1.1846,1.1966,1.2132,1.2187,1.2223,1.2242,1.2818,1.3347,1.3526,1.4062,1.4425,1.4552,1.4633,1.4714,1.4821,1.4997,1.5126,1.5181,1.5181,1.5181,1.5181,1.5181,1.5181,1.5181,1.5181,1.5181,1.5181,1.5181,1.5181,1.5181,1.5181,1.5215,0.9372,0.9677,0.9984,1.0373,1.0817,1.1118,1.1111,1.1422,1.1668,1.1382,1.1476,1.1475,1.1027,1.1155,1.1238,1.1062,1.1041,1.1041,1.1041,1.1003,1.0998,1.1036,1.1041,1.1058,1.1101,1.1101,1.1101,1.1101,1.1101,1.1101,1.1101,1.1101,1.1156,1.1313,1.1357,1.1417,1.1499,1.1499,1.1499,1.1499,1.1499,1.1499,1.1499,1.1499,1.1499,1.1499,1.1499,1.1499,1.1499,1.1499,1.1499,1.151,1.1542,1.1525,1.151,1.1547,1.1525,1.1499,1.1499,1.1499,1.1499,1.1499,1.1499,1.1499,1.1499,1.1499,1.1499,1.1499,1.1499,1.1499,1.1499,1.1499,1.1499,1.1499,1.1499,1.1499,1.1499,1.152,1.1612,1.1686,1.1819,1.1922,1.2085,1.2107,1.2069,1.1949,1.2557,1.3091,1.3242,1.3712,1.4178,1.4545,1.459,1.4606,1.4801,1.495,1.5079,1.5174,1.5181,1.5181,1.5181,1.5181,1.5181,1.5181,1.5181,1.5181,1.5181,1.5181,1.5181,1.5181,1.5181,1.5181,0.0,0.0,0.0,1.0292,1.0294,1.0361,1.1057,1.1069,1.0876,1.0616,1.0792,1.085,1.0459,1.0384,1.0503,1.0846,1.0905,1.0911,1.0911,1.0766,1.0739,1.09,1.0874,1.096,1.1079,1.109,1.109,1.109,1.109,1.109,1.109,1.1096,1.115,1.1308,1.1428,1.1494,1.1499,1.1494,1.1494,1.1499,1.1499,1.1499,1.1499,1.1499,1.1499,1.1499,1.1499,1.1499,1.1499,1.1499,1.1499,1.1499,1.1499,1.1499,1.1499,1.1499,1.1499,1.1499,1.1499,1.1499,1.1499,1.1499,1.1499,1.1499,1.1499,1.1499,1.1499,1.1499,1.1499,1.1499,1.1499,1.1499,1.1499,1.1499,1.1499,1.1499,1.1499,1.1499,1.1537,1.1612,1.1594,1.167,1.1944,1.1982,1.1944,1.183,1.2009,1.2404,1.3035,1.3187,1.3592,1.4596,1.4482,1.4496,1.4983,1.4835,1.4869,1.5167,1.5181,1.5181,1.5181,1.5181,1.5181,1.5181,1.5181,1.5181,1.5181,1.5181,1.5181,1.5181,1.5181,1.5181,0.8872,0.0,0.0,0.0,0.0,0.0,0.9369,0.955,0.98,0.9923,1.0009,1.0103,1.0244,1.0394,1.0555,1.053,1.0601,1.0697,1.0697,1.0704,1.0706,1.0739,1.0744,1.076,1.0793,1.0798,1.0798,0.0,1.0798,1.0798,1.0798,1.0879,1.1025,1.1145,1.1183,1.1281,1.1499,1.1412,1.1412,1.1499,1.1499,1.1499,1.1499,1.1499,1.1499,1.1499,1.1499,1.1499,1.1499,1.1499,1.1499,1.1499,1.1499,1.1499,1.1499,1.1499,1.1499,1.1499,1.1499,1.1499,1.1499,1.1499,1.1499,1.1499,1.1499,1.1499,1.1499,1.1499,1.1499,1.1499,1.1499,1.1499,1.1499,1.1499,1.1499,1.1499,1.1499,1.1499,1.1537,1.1612,1.1665,1.1792,1.1857,1.1868,1.1824,1.1659,1.2088,1.2541,1.2928,1.3448,1.3965,1.4493,1.4604,1.4713,1.4996,1.493,1.4984,1.5167,1.5181,1.5181,1.5181,1.5181,1.5181,1.5181,1.5181,1.5181,1.5181,1.5181,1.5181,1.5181,1.5181,1.5181,0.8906,0.8902,0.8922,0.8998,0.0,0.0,0.8906,0.8946,0.9074,0.9381,0.9525,0.9693,0.9867,1.0096,1.0222,1.0161,1.0297,1.0484,1.0582,1.0661,1.0695,1.0695,1.0695,1.0695,1.0695,1.0695,1.0695,1.0695,1.0695,1.0695,1.0695,1.0809,1.0954,1.1025,1.1074,1.1166,1.1352,1.1281,1.1259,1.1423,1.1423,1.145,1.1499,1.1499,1.1499,1.1499,1.1499,1.1499,1.1499,1.1499,1.1499,1.1499,1.1499,1.1499,1.1499,1.1499,1.1499,1.1499,1.1499,1.1499,1.1499,1.1499,1.1499,1.1499,1.1499,1.1499,1.1499,1.1499,1.1499,1.1499,1.1499,1.1499,1.1499,1.1499,1.1499,1.1499,1.1499,1.1499,1.1521,1.1547,1.1618,1.1683,1.1686,1.174,1.1751,1.1675,1.2081,1.2581,1.3066,1.354,1.4041,1.4702,1.476,1.4782,1.5038,1.5051,1.5078,1.5174,1.5181,1.5181,1.5181,1.5181,1.5181,1.5181,1.5181,1.5181,1.5181,1.5181,1.5181,1.5181,1.5181,1.5181,0.9027,0.8959,0.9038,0.9414,0.8958,0.0,0.9039,0.8851,0.8649,0.8968,0.9231,0.9378,0.9421,0.953,0.9644,0.9704,0.9948,1.0248,1.0522,1.0645,1.069,1.0679,1.0684,1.0695,1.0695,1.0695,1.0695,1.0695,1.0695,1.0695,1.0695,1.0798,1.0863,1.0922,1.1014,1.1074,1.1101,1.109,1.1139,1.1297,1.1297,1.1352,1.1461,1.1461,1.1466,1.1477,1.1477,1.1488,1.1499,1.1499,1.1499,1.1499,1.1499,1.1499,1.1499,1.1499,1.1499,1.1499,1.1499,1.1499,1.1499,1.1499,1.1499,1.1499,1.1499,1.1499,1.1499,1.1499,1.1499,1.1499,1.1499,1.1499,1.1499,1.1499,1.1499,1.1499,1.1499,1.1499,1.1499,1.1499,1.1499,1.1532,1.1596,1.1705,1.1781,1.1781,1.1982,1.2466,1.3264,1.3474,1.3914,1.4959,1.4863,1.4809,1.5133,1.5011,1.4991,1.5147,1.5147,1.5147,1.5181,1.5167,1.5167,1.5181,1.5181,1.5181,1.5181,1.5181,1.5181,1.5181,1.5181,1.5181,0.9521,0.9297,0.9125,0.9051,0.8785,0.0,0.8359,0.8317,0.8345,0.8638,0.866,0.8681,0.8968,0.9119,0.9211,0.9233,0.9591,0.9953,1.0237,1.0541,1.0699,1.0642,1.0677,1.0695,1.0695,1.0695,1.0695,1.0695,1.0695,1.0695,1.0695,1.0717,1.0777,1.0916,1.0804,1.0858,1.1101,1.1003,1.1014,1.1134,1.1134,1.115,1.1172,1.1172,1.1221,1.1352,1.1352,1.1406,1.1499,1.1499,1.1499,1.1499,1.1499,1.1499,1.1499,1.1499,1.1499,1.1499,1.1499,1.1499,1.1499,1.1499,1.1499,1.1499,1.1499,1.1499,1.1499,1.1499,1.1499,1.1499,1.1499,1.1499,1.1499,1.1499,1.1499,1.1499,1.1499,1.1499,1.1499,1.1499,1.1499,1.1504,1.1532,1.1554,1.157,1.157,1.1732,1.2024,1.2494,1.3212,1.3849,1.4321,1.4573,1.4769,1.4997,1.476,1.4719,1.5044,1.4896,1.493,1.5174,1.5119,1.5112,1.5181,1.5181,1.5181,1.5181,1.5181,1.5181,1.5181,1.5181,1.5181,0.99,0.9466,0.9122,0.9154,0.8747,0.0,0.0,0.8187,0.8231,0.8524,0.8497,0.8475,0.8807,0.891,0.8992,0.9082,0.9481,0.9775,0.9835,1.0259,1.0541,1.0517,1.0525,1.0585,1.0639,1.0645,1.0672,1.069,1.0695,1.0695,1.0695,1.0695,1.0722,1.0787,1.0728,1.0755,1.0916,1.0814,1.0889,1.1009,1.1009,1.1041,1.1101,1.1101,1.1134,1.1188,1.1188,1.1297,1.1406,1.1406,1.1444,1.1499,1.1499,1.1499,1.1499,1.1499,1.1499,1.1499,1.1499,1.1499,1.1499,1.1499,1.1499,1.1499,1.1499,1.1499,1.1499,1.1499,1.1499,1.1499,1.1499,1.1499,1.1499,1.1499,1.1499,1.1499,1.1499,1.1499,1.1499,1.1499,1.1499,1.1499,1.1499,1.1548,1.1547,1.1547,1.1699,1.2026,1.2733,1.3214,1.3734,1.4402,1.4604,1.4728,1.4848,1.4713,1.4692,1.4848,1.478,1.4841,1.5065,1.5057,1.5038,1.5181,1.5181,1.5181,1.5181,1.5181,1.5181,1.5181,1.5181,1.5181,1.0346,0.9768,0.9285,0.9402,0.8851,0.8301,0.0,0.0,0.0,0.8432,0.8378,0.8378,0.8628,0.8667,0.8738,0.8892,0.9264,0.9496,0.9362,0.9829,1.0193,1.0242,1.0307,1.0384,1.0522,1.0506,1.0514,1.0614,1.0603,1.0614,1.0699,1.0684,1.0695,1.0695,1.0695,1.0695,1.0695,1.0695,1.0744,1.0842,1.0842,1.0938,1.1031,1.1031,1.1047,1.1069,1.1069,1.1134,1.1237,1.1237,1.1341,1.1434,1.1483,1.1499,1.1499,1.1499,1.1499,1.1499,1.1499,1.1499,1.1499,1.1499,1.1499,1.1499,1.1499,1.1499,1.1499,1.1499,1.1499,1.1499,1.1499,1.1499,1.1499,1.1499,1.1499,1.1499,1.1499,1.1499,1.1499,1.1499,1.1499,1.1499,1.1499,1.1536,1.1601,1.1601,1.175,1.2192,1.3008,1.3306,1.3729,1.4466,1.4622,1.4654,1.4654,1.4626,1.462,1.4647,1.4626,1.474,1.4916,1.493,1.4984,1.5092,1.5099,1.5113,1.514,1.5113,1.5126,1.5181,1.5181,1.5181,1.1124,1.0642,1.0133,0.0,0.9222,0.8823,0.8132,0.0,0.8134,0.8017,0.0,0.8006,0.8143,0.0,0.0,0.8285,0.8638,0.8901,0.8885,0.9182,0.9508,0.9764,1.003,1.0226,1.0242,1.0144,1.0177,1.0411,1.0324,1.0356,1.0604,1.0677,1.0695,1.0695,1.0695,1.0695,1.0695,1.0695,1.0701,1.0717,1.0717,1.0722,1.0739,1.0739,1.0798,1.0938,1.0938,1.1009,1.1123,1.1123,1.1128,1.1161,1.1417,1.1499,1.1499,1.1499,1.1499,1.1499,1.1499,1.1499,1.1499,1.1499,1.1499,1.1499,1.1499,1.1499,1.1499,1.1499,1.1499,1.1499,1.1499,1.1499,1.1499,1.1499,1.1499,1.1499,1.1499,1.1499,1.1499,1.1499,1.1499,1.1499,1.1499,1.151,1.1521,1.1521,1.1939,1.2289,1.2379,1.3296,1.3964,1.4055,1.4346,1.4536,1.4536,1.4421,1.4407,1.4529,1.4421,1.4475,1.4708,1.4721,1.4728,1.4741,1.4741,1.4855,1.5037,1.4855,1.4923,1.5181,1.5181,1.5181,1.0933,1.0585,0.0,0.0,0.0,0.0,0.8193,0.0,0.8035,0.0,0.0,0.0,0.0,0.0,0.0,0.0,0.8475,0.8638,0.8573,0.8812,0.9111,0.9421,0.959,0.9737,0.9878,0.997,1.009,1.0264,1.0166,1.0231,1.0582,1.0648,1.0666,1.069,1.0695,1.0695,1.0695,1.0695,1.0695,1.0695,1.0695,1.0695,1.0695,1.0695,1.0722,1.0771,1.0771,1.0842,1.0998,1.0998,1.1036,1.1112,1.121,1.1335,1.1401,1.1472,1.1499,1.1499,1.1499,1.1499,1.1499,1.1499,1.1499,1.1499,1.1499,1.1499,1.1499,1.1499,1.1499,1.1499,1.1499,1.1499,1.1499,1.1499,1.1499,1.1499,1.1499,1.1499,1.1499,1.1499,1.1499,1.1499,1.1499,1.1499,1.1499,1.1499,1.1677,1.1933,1.2202,1.2651,1.3181,1.372,1.3892,1.4075,1.4342,1.4333,1.4326,1.4387,1.4407,1.4475,1.4559,1.4647,1.4694,1.4694,1.4694,1.4728,1.4835,1.4728,1.4755,1.493,1.5018,1.5153,1.097,0.0,0.0,0.0,0.0,0.0,0.0,0.0,0.0,0.0,0.0,0.0,0.0,0.0,0.8133,0.8188,0.0,0.8465,0.8345,0.8513,0.8747,0.9068,0.9193,0.934,0.9583,0.9666,0.9769,0.9992,0.9894,1.0008,1.0478,1.0533,1.0579,1.069,1.0695,1.0695,1.0695,1.0695,1.0695,1.0695,1.0695,1.0695,1.0695,1.0695,1.0695,1.0695,1.0695,1.0744,1.0867,1.0867,1.0879,1.1003,1.1041,1.1101,1.1188,1.1357,1.1423,1.145,1.145,1.1472,1.1499,1.1499,1.1499,1.1499,1.1499,1.1499,1.1499,1.1499,1.1499,1.1499,1.1499,1.1499,1.1499,1.1499,1.1499,1.1499,1.1499,1.1499,1.1499,1.1499,1.1499,1.1499,1.1499,1.1499,1.1499,1.1499,1.1632,1.181,1.2165,1.2299,1.2654,1.3325,1.3502,1.3723,1.4078,1.421,1.4299,1.4299,1.4394,1.4455,1.4455,1.4563,1.4572,1.4572,1.4572,1.4593,1.4633,1.4593,1.4613,1.4694,1.4855,1.4984,0.0,0.0,0.0,1.027,0.0,0.0,0.0,0.0,0.9265,0.0,0.0,0.0,0.0,0.828,0.8199,0.8204,0.821,0.0,0.0,0.8215,0.8307,0.8584,0.8927,0.9152,0.9302,0.9082,0.9098,0.9481,0.9394,0.9584,1.0182,1.0329,1.0498,1.069,1.0695,1.0695,1.0695,1.0695,1.0695,1.0695,1.0695,1.0695,1.0695,1.0695,1.0695,1.0695,1.0695,1.0695,1.0701,1.0701,1.0701,1.0717,1.0878,1.0927,1.0949,1.1069,1.1183,1.1319,1.1319,1.1401,1.1499,1.1499,1.1499,1.1499,1.1499,1.1499,1.1499,1.1499,1.1499,1.1499,1.1499,1.1499,1.1499,1.1499,1.1499,1.1499,1.1499,1.1499,1.1499,1.1499,1.1499,1.1499,1.1499,1.1499,1.1499,1.1499,1.1899,1.2165,1.221,1.2609,1.2875,1.292,1.3325,1.3591,1.3635,1.4033,1.4299,1.4299,1.4306,1.4306,1.4306,1.4312,1.4312,1.4312,1.4312,1.438,1.4516,1.438,1.4462,1.4694,1.4701,1.4828,0.0,0.0,1.0435,0.9971,0.0,0.0,0.0,0.0,0.0,0.0,0.0,0.0,0.0,0.8511,0.8524,0.8236,0.8166,0.8121,0.0,0.8062,0.8176,0.8334,0.8671,0.891,0.8983,0.8914,0.9033,0.9345,0.9329,0.953,1.0052,1.0275,1.0454,1.0612,1.0693,1.0695,1.0695,1.0695,1.0695,1.0695,1.0695,1.0695,1.0695,1.0695,1.0695,1.0695,1.0695,1.0695,1.0695,1.0695,1.0695,1.0701,1.0739,1.0755,1.0782,1.1031,1.1128,1.1172,1.1292,1.1395,1.1499,1.1499,1.1499,1.1499,1.1499,1.1499,1.1499,1.1499,1.1499,1.1499,1.1499,1.1499,1.1499,1.1499,1.1499,1.1499,1.1499,1.1499,1.1499,1.1499,1.1499,1.1499,1.1499,1.1499,1.1499,1.1499,1.1632,1.1721,1.1721,1.1899,1.2077,1.2387,1.2565,1.292,1.3546,1.4033,1.4299,1.4299,1.4299,1.4299,1.4299,1.4299,1.4299,1.4299,1.4299,1.4326,1.4373,1.4326,1.4353,1.4448,1.4448,1.4584,1.1283,1.0922,0.0,1.0065,0.9842,0.0,0.9619,0.0,0.9588,0.0,0.0,0.0,0.0,0.8634,0.8591,0.8301,0.816,0.8107,0.0,0.8324,0.8491,0.8385,0.8541,0.8677,0.8798,0.8802,0.8903,0.922,0.9168,0.9369,0.9888,1.0144,1.0346,1.0593,1.0672,1.0695,1.0695,1.0695,1.0695,1.0695,1.0695,1.0695,1.0695,1.0695,1.0695,1.0695,1.0695,1.0695,1.0695,1.0695,1.0695,1.0695,1.0695,1.0695,1.0717,1.0874,1.0998,1.1058,1.1259,1.1368,1.1439,1.1483,1.1499,1.1499,1.1499,1.1499,1.1499,1.1499,1.1499,1.1499,1.1499,1.1499,1.1499,1.1499,1.1499,1.1499,1.1499,1.1499,1.1499,1.1499,1.1499,1.1499,1.1499,1.1499,1.1499,1.1499,1.1499,1.1499,1.1499,1.1499,1.1632,1.1899,1.2254,1.2831,1.3768,1.4122,1.4299,1.4299,1.4299,1.4299,1.4299,1.4299,1.4299,1.4299,1.4299,1.4299,1.4299,1.4299,1.4299,1.4299,1.4299,1.4401]},{"header":{"parameterUnit":"m.s-1","parameterCategory":1,"la1":30.6,"la2":29.2853,"lo1":-89.7004,"lo2":-87.6739,"dy":0.0162,"dx":0.0183,"nx":112,"ny":82,"refTime":"2024-09-05T06:00:00:Z","depth":0,"parameterNumber":3,"parameterNumberName":"V-component_of_WINDS"},"data":[0.0,0.0,0.0,0.0,0.0,0.0,0.0,0.0,0.0,0.0,0.0,0.0,0.0,0.0,0.0,0.0,0.0,0.0,0.0,0.0,0.0,0.0,0.0,0.0,0.0,0.0,0.0,0.0,0.0,0.0,0.0,0.0,0.0,0.0,0.0,0.0,0.0,0.0,0.0,0.0,0.0,0.0,0.0,0.0,0.0,0.0,0.0,0.0,0.0,0.0,0.0,0.0,0.0,0.0,0.0,0.0,0.0,0.0,0.0,0.0,0.0,0.0,0.0,0.0,0.0,0.0,0.0,0.0,0.0,0.0,0.0,0.0,0.0,0.0,0.0,0.0,0.0,0.0,0.0,0.0,0.0,0.0,0.0,0.0,0.0,0.0,0.0,0.0,0.0,0.0,5.4373,5.6841,5.9003,6.0121,5.9639,5.9551,5.7534,5.2871,0.0,0.0,0.0,0.0,0.0,0.0,0.0,0.0,0.0,0.0,0.0,0.0,0.0,0.0,0.0,0.0,0.0,0.0,0.0,0.0,0.0,0.0,0.0,0.0,0.0,0.0,0.0,0.0,0.0,0.0,0.0,0.0,0.0,0.0,0.0,0.0,0.0,0.0,0.0,0.0,0.0,0.0,0.0,0.0,0.0,0.0,0.0,0.0,0.0,0.0,0.0,0.0,0.0,0.0,0.0,0.0,0.0,0.0,0.0,0.0,0.0,0.0,0.0,0.0,0.0,0.0,0.0,0.0,0.0,0.0,0.0,0.0,0.0,0.0,0.0,0.0,0.0,0.0,0.0,0.0,0.0,0.0,0.0,0.0,0.0,0.0,0.0,0.0,0.0,0.0,0.0,0.0,0.0,0.0,0.0,0.0,0.0,0.0,0.0,0.0,0.0,0.0,0.0,0.0,5.4167,5.7928,5.9285,5.9587,5.8838,5.8456,5.684,5.3535,0.0,0.0,0.0,0.0,0.0,0.0,0.0,0.0,0.0,0.0,0.0,0.0,0.0,0.0,0.0,0.0,0.0,0.0,0.0,0.0,0.0,0.0,0.0,0.0,0.0,0.0,0.0,0.0,0.0,0.0,0.0,0.0,0.0,0.0,0.0,0.0,0.0,0.0,0.0,0.0,0.0,0.0,0.0,0.0,0.0,0.0,0.0,0.0,0.0,0.0,0.0,0.0,0.0,0.0,0.0,0.0,0.0,0.0,0.0,0.0,0.0,0.0,0.0,0.0,0.0,0.0,0.0,0.0,0.0,0.0,0.0,0.0,0.0,0.0,0.0,0.0,0.0,0.0,0.0,0.0,0.0,0.0,0.0,0.0,0.0,0.0,0.0,0.0,0.0,0.0,0.0,0.0,0.0,0.0,0.0,0.0,0.0,0.0,0.0,0.0,0.0,0.0,0.0,5.543,5.7288,5.9374,6.0705,6.0969,5.9693,5.9398,5.7529,5.3386,5.2746,0.0,0.0,0.0,0.0,0.0,0.0,0.0,0.0,0.0,0.0,0.0,0.0,0.0,0.0,0.0,0.0,0.0,0.0,0.0,0.0,0.0,0.0,0.0,0.0,0.0,0.0,0.0,0.0,0.0,0.0,0.0,0.0,0.0,0.0,0.0,0.0,0.0,0.0,0.0,0.0,0.0,0.0,0.0,0.0,0.0,0.0,0.0,0.0,0.0,0.0,0.0,0.0,0.0,0.0,0.0,0.0,0.0,0.0,0.0,0.0,0.0,0.0,0.0,0.0,0.0,0.0,0.0,0.0,0.0,0.0,0.0,0.0,0.0,0.0,0.0,0.0,0.0,0.0,0.0,0.0,0.0,0.0,0.0,0.0,0.0,0.0,0.0,0.0,0.0,0.0,0.0,0.0,0.0,0.0,0.0,0.0,0.0,0.0,0.0,0.0,0.0,0.0,5.9075,6.0559,6.0279,6.1941,6.2277,6.0423,5.98,5.7587,5.3078,5.2237,0.0,0.0,0.0,0.0,0.0,0.0,0.0,0.0,0.0,0.0,0.0,0.0,0.0,0.0,0.0,0.0,0.0,0.0,0.0,0.0,0.0,0.0,0.0,0.0,0.0,0.0,0.0,0.0,0.0,0.0,0.0,0.0,0.0,0.0,0.0,0.0,0.0,0.0,0.0,0.0,0.0,0.0,0.0,0.0,0.0,0.0,0.0,0.0,0.0,0.0,0.0,0.0,0.0,0.0,0.0,0.0,0.0,0.0,0.0,0.0,0.0,0.0,0.0,0.0,0.0,0.0,0.0,0.0,0.0,0.0,0.0,0.0,0.0,0.0,0.0,0.0,0.0,0.0,0.0,0.0,0.0,0.0,0.0,0.0,0.0,0.0,0.0,0.0,0.0,0.0,0.0,0.0,0.0,0.0,0.0,0.0,0.0,0.0,0.0,0.0,0.0,0.0,5.9856,6.2387,6.0069,6.1995,6.2488,6.004,5.7994,5.5715,5.2964,5.0633,0.0,0.0,0.0,0.0,0.0,0.0,0.0,0.0,0.0,0.0,0.0,0.0,0.0,0.0,0.0,0.0,0.0,0.0,0.0,0.0,0.0,0.0,0.0,0.0,0.0,0.0,0.0,0.0,0.0,0.0,0.0,0.0,0.0,0.0,0.0,0.0,0.0,0.0,0.0,0.0,0.0,0.0,0.0,0.0,0.0,0.0,0.0,0.0,0.0,0.0,0.0,0.0,0.0,0.0,0.0,0.0,0.0,0.0,0.0,0.0,0.0,0.0,0.0,0.0,0.0,0.0,0.0,0.0,0.0,0.0,0.0,0.0,0.0,0.0,0.0,0.0,0.0,0.0,0.0,0.0,0.0,0.0,0.0,0.0,0.0,0.0,0.0,0.0,0.0,0.0,0.0,0.0,0.0,0.0,0.0,0.0,0.0,0.0,0.0,0.0,0.0,0.0,5.9412,6.198,6.1035,6.2711,6.2902,6.0395,5.9435,5.7205,5.3078,0.0,0.0,0.0,0.0,0.0,0.0,0.0,0.0,0.0,0.0,0.0,0.0,0.0,0.0,0.0,0.0,0.0,0.0,0.0,0.0,0.0,0.0,0.0,0.0,0.0,0.0,0.0,0.0,0.0,0.0,0.0,0.0,0.0,0.0,0.0,0.0,0.0,0.0,0.0,0.0,0.0,0.0,0.0,0.0,0.0,0.0,0.0,0.0,0.0,0.0,0.0,0.0,0.0,0.0,0.0,0.0,0.0,0.0,0.0,0.0,0.0,0.0,0.0,0.0,0.0,0.0,0.0,0.0,0.0,0.0,0.0,0.0,0.0,0.0,0.0,0.0,0.0,0.0,0.0,0.0,0.0,0.0,0.0,0.0,0.0,0.0,0.0,0.0,0.0,0.0,0.0,0.0,0.0,0.0,0.0,0.0,0.0,0.0,0.0,0.0,0.0,0.0,5.5496,5.9962,6.251,6.1707,6.3388,6.3434,6.0644,5.9422,5.7084,5.304,0.0,0.0,0.0,0.0,0.0,0.0,0.0,0.0,0.0,0.0,0.0,0.0,0.0,0.0,0.0,0.0,0.0,0.0,0.0,0.0,0.0,0.0,0.0,0.0,0.0,0.0,0.0,0.0,0.0,0.0,0.0,0.0,0.0,0.0,0.0,0.0,0.0,0.0,0.0,0.0,0.0,0.0,0.0,0.0,0.0,0.0,0.0,0.0,0.0,0.0,0.0,0.0,0.0,0.0,0.0,0.0,0.0,0.0,0.0,0.0,0.0,0.0,0.0,0.0,0.0,0.0,0.0,0.0,0.0,0.0,0.0,0.0,0.0,0.0,0.0,0.0,0.0,0.0,0.0,0.0,0.0,0.0,0.0,0.0,0.0,0.0,0.0,0.0,0.0,0.0,0.0,0.0,0.0,0.0,0.0,0.0,0.0,0.0,0.0,0.0,0.0,0.0,5.6249,6.1745,6.442,6.1898,6.3885,6.4038,6.0683,5.7351,5.4677,0.0,0.0,0.0,0.0,0.0,0.0,0.0,0.0,0.0,0.0,0.0,0.0,0.0,0.0,0.0,0.0,0.0,0.0,0.0,0.0,0.0,0.0,0.0,0.0,0.0,0.0,0.0,0.0,0.0,0.0,0.0,0.0,0.0,0.0,0.0,0.0,0.0,0.0,0.0,0.0,0.0,0.0,0.0,0.0,0.0,0.0,0.0,0.0,0.0,0.0,0.0,0.0,0.0,0.0,0.0,0.0,0.0,0.0,0.0,0.0,0.0,0.0,0.0,0.0,0.0,0.0,0.0,0.0,0.0,0.0,0.0,0.0,0.0,0.0,0.0,0.0,0.0,0.0,0.0,0.0,0.0,0.0,0.0,0.0,0.0,0.0,0.0,0.0,0.0,0.0,0.0,0.0,0.0,0.0,0.0,0.0,0.0,0.0,0.0,0.0,0.0,0.0,0.0,5.6442,6.0791,6.3579,6.3434,6.3541,6.3006,6.1363,5.9262,5.6504,5.304,0.0,0.0,0.0,0.0,0.0,0.0,0.0,0.0,0.0,0.0,0.0,0.0,0.0,0.0,0.0,0.0,0.0,0.0,0.0,0.0,0.0,0.0,0.0,0.0,0.0,0.0,0.0,0.0,0.0,0.0,0.0,0.0,0.0,0.0,0.0,0.0,0.0,0.0,0.0,0.0,0.0,0.0,0.0,0.0,0.0,0.0,0.0,0.0,0.0,0.0,0.0,0.0,0.0,0.0,0.0,0.0,0.0,0.0,0.0,0.0,0.0,0.0,0.0,0.0,0.0,0.0,0.0,0.0,0.0,0.0,0.0,0.0,0.0,0.0,0.0,0.0,0.0,0.0,0.0,0.0,0.0,0.0,0.0,0.0,0.0,0.0,0.0,0.0,0.0,0.0,0.0,0.0,0.0,0.0,0.0,0.0,0.0,0.0,0.0,0.0,0.0,0.0,5.7437,6.1363,6.4114,6.4619,6.3923,6.3083,6.2204,6.0248,5.7459,5.3569,0.0,0.0,0.0,0.0,0.0,0.0,0.0,0.0,0.0,0.0,0.0,0.0,0.0,0.0,0.0,0.0,0.0,0.0,0.0,0.0,0.0,0.0,0.0,0.0,0.0,0.0,0.0,0.0,0.0,0.0,0.0,0.0,0.0,0.0,0.0,0.0,0.0,0.0,0.0,0.0,0.0,0.0,0.0,0.0,0.0,0.0,0.0,0.0,0.0,0.0,0.0,0.0,0.0,0.0,0.0,0.0,0.0,0.0,0.0,0.0,0.0,0.0,0.0,0.0,0.0,0.0,0.0,0.0,0.0,0.0,0.0,0.0,0.0,0.0,0.0,0.0,0.0,0.0,0.0,0.0,0.0,0.0,0.0,0.0,0.0,0.0,0.0,0.0,0.0,0.0,0.0,0.0,0.0,0.0,0.0,0.0,0.0,0.0,0.0,0.0,0.0,0.0,5.8661,6.2671,6.5337,6.5375,6.4695,6.3854,6.2961,6.063,5.7803,5.4448,0.0,0.0,0.0,0.0,0.0,0.0,0.0,0.0,0.0,0.0,0.0,0.0,0.0,0.0,0.0,0.0,0.0,0.0,0.0,0.0,0.0,0.0,0.0,0.0,0.0,0.0,0.0,0.0,0.0,0.0,0.0,0.0,0.0,0.0,0.0,0.0,0.0,0.0,0.0,0.0,0.0,0.0,0.0,0.0,0.0,0.0,0.0,0.0,0.0,0.0,0.0,0.0,0.0,0.0,0.0,0.0,0.0,0.0,0.0,0.0,4.7192,0.0,0.0,0.0,0.0,0.0,0.0,0.0,0.0,0.0,0.0,0.0,0.0,0.0,0.0,0.0,0.0,0.0,0.0,0.0,0.0,0.0,0.0,0.0,0.0,0.0,0.0,0.0,0.0,0.0,0.0,0.0,0.0,0.0,0.0,0.0,0.0,0.0,0.0,0.0,0.0,0.0,5.8056,6.1902,6.4695,6.5337,6.4695,6.3854,6.2961,6.1172,5.8689,5.532,5.2722,0.0,0.0,0.0,0.0,0.0,0.0,0.0,0.0,0.0,0.0,0.0,0.0,0.0,0.0,0.0,0.0,0.0,0.0,0.0,0.0,0.0,0.0,0.0,0.0,0.0,0.0,0.0,0.0,0.0,0.0,0.0,0.0,0.0,0.0,0.0,0.0,0.0,0.0,0.0,0.0,0.0,0.0,0.0,0.0,0.0,0.0,0.0,0.0,0.0,0.0,0.0,0.0,0.0,0.0,0.0,0.0,0.0,0.0,0.0,0.0,4.9582,0.0,0.0,0.0,0.0,0.0,0.0,0.0,0.0,0.0,0.0,0.0,0.0,0.0,0.0,0.0,0.0,0.0,0.0,0.0,0.0,0.0,0.0,0.0,0.0,0.0,0.0,0.0,0.0,0.0,0.0,0.0,0.0,0.0,0.0,0.0,0.0,0.0,0.0,0.0,0.0,5.9533,6.2719,6.5108,6.5948,6.4924,6.4007,6.3541,6.1975,5.972,5.6778,5.4982,0.0,0.0,0.0,0.0,0.0,0.0,0.0,0.0,0.0,0.0,0.0,0.0,0.0,0.0,0.0,0.0,0.0,0.0,0.0,0.0,0.0,0.0,0.0,0.0,0.0,0.0,0.0,0.0,0.0,0.0,0.0,0.0,0.0,0.0,0.0,0.0,0.0,0.0,0.0,0.0,0.0,0.0,0.0,0.0,0.0,0.0,0.0,0.0,0.0,0.0,0.0,0.0,0.0,5.6645,5.7369,5.8456,5.8456,5.8903,5.9509,5.6079,5.4496,5.4146,5.2021,0.0,0.0,0.0,0.0,0.0,0.0,0.0,0.0,0.0,0.0,0.0,0.0,0.0,0.0,0.0,0.0,0.0,0.0,0.0,0.0,0.0,0.0,0.0,0.0,6.1538,6.1652,5.59,0.0,0.0,0.0,0.0,0.0,0.0,0.0,0.0,0.0,0.0,0.0,6.1262,6.3779,6.5719,6.659,6.5337,6.4428,6.4428,6.2968,6.0981,5.8498,5.7504,5.5944,0.0,0.0,0.0,0.0,0.0,0.0,0.0,0.0,0.0,0.0,0.0,0.0,0.0,0.0,0.0,0.0,0.0,0.0,0.0,0.0,0.0,0.0,0.0,0.0,0.0,0.0,0.0,0.0,0.0,0.0,0.0,0.0,4.9267,5.039,0.0,0.0,0.0,0.0,0.0,0.0,0.0,0.0,0.0,0.0,0.0,0.0,0.0,5.6391,5.8492,6.0,6.1195,6.2128,6.3526,6.3925,6.3454,6.3454,6.3973,6.4752,6.3516,0.0,5.6645,5.5643,0.0,0.0,0.0,0.0,0.0,0.0,0.0,0.0,0.0,0.0,0.0,0.0,0.0,0.0,0.0,0.0,0.0,0.0,0.0,0.0,0.0,0.0,6.4124,6.4428,6.4498,6.4327,0.0,6.0387,5.6965,5.5426,5.4128,0.0,0.0,0.0,0.0,0.0,0.0,0.0,6.1015,6.3657,6.5719,6.659,6.5834,6.5222,6.5222,6.4389,6.2784,6.0224,5.9262,5.7963,5.6173,5.46,0.0,0.0,0.0,0.0,0.0,0.0,0.0,0.0,0.0,0.0,0.0,0.0,0.0,0.0,0.0,0.0,0.0,0.0,0.0,0.0,0.0,0.0,0.0,0.0,0.0,0.0,0.0,0.0,0.0,4.8858,5.2082,5.1973,5.2444,5.2118,0.0,0.0,0.0,0.0,0.0,0.0,0.0,0.0,0.0,6.0251,6.0669,6.1614,6.3234,6.4385,6.5367,6.6203,6.6895,6.7244,6.7317,6.7317,6.7527,6.7927,6.7563,6.5932,6.3307,6.0251,5.8104,5.6588,0.0,0.0,0.0,0.0,5.536,5.5262,5.7216,5.7288,5.6349,5.5114,0.0,0.0,0.0,0.0,0.0,0.0,0.0,0.0,0.0,0.0,6.6494,6.7886,6.8433,6.8701,6.8905,6.7217,6.4467,0.0,5.9433,5.8301,5.5496,0.0,0.0,0.0,0.0,6.2734,6.4075,6.5718,6.695,6.7324,6.6636,6.5948,6.5452,6.4657,6.3319,6.1211,6.0714,5.9988,5.8772,5.7122,5.5479,0.0,0.0,0.0,0.0,0.0,0.0,0.0,0.0,0.0,0.0,0.0,0.0,0.0,0.0,0.0,0.0,0.0,0.0,0.0,0.0,0.0,0.0,0.0,0.0,0.0,0.0,0.0,0.0,5.1828,5.4363,5.3784,5.5341,5.5438,0.0,0.0,0.0,0.0,0.0,0.0,6.0167,6.09,6.2466,6.5136,6.5683,6.6557,6.7923,6.8544,6.915,6.9705,6.9705,6.9997,7.0492,7.031,7.034,7.0551,7.015,6.9668,6.8871,6.4616,6.223,6.1135,5.914,5.8227,5.819,5.9407,5.9602,5.9627,6.1933,6.2081,6.1068,5.9871,5.8819,5.7723,5.6203,0.0,0.0,0.0,0.0,6.2353,6.4832,6.6729,6.8537,7.0582,7.146,7.1884,7.2007,7.1849,7.0223,0.0,6.4559,6.3453,5.9756,0.0,0.0,0.0,6.2985,6.5176,6.6544,6.74,6.7981,6.8211,6.7515,6.6751,6.6101,6.5306,6.4,6.2051,6.1936,6.1478,6.0453,5.9192,5.8039,5.6938,0.0,0.0,0.0,0.0,0.0,0.0,0.0,0.0,0.0,0.0,0.0,0.0,0.0,0.0,0.0,0.0,0.0,0.0,0.0,0.0,0.0,0.0,0.0,0.0,0.0,0.0,0.0,0.0,0.0,5.6971,5.9165,0.0,0.0,0.0,0.0,5.9589,6.0489,6.2021,6.4466,6.5341,6.6888,6.9296,6.9442,7.0573,7.2909,7.2982,7.3003,7.2972,7.2972,7.2972,7.2972,7.2222,7.2406,7.3236,7.1699,7.1076,7.0934,6.8168,6.6085,6.4589,6.369,6.2874,6.223,6.2419,6.2982,6.352,6.2963,6.327,6.3906,6.3796,6.2695,6.1409,6.1756,6.1374,0.0,0.0,6.39,6.6284,6.8387,6.9576,7.07,7.2444,7.2563,7.2405,7.2834,7.2233,7.1285,0.0,6.8752,6.7614,6.7346,0.0,6.4681,6.5024,6.5626,6.6189,6.6635,6.74,6.8211,6.9043,6.8363,6.7828,6.779,6.7056,6.5482,6.2999,6.2846,6.2089,6.0453,6.03,5.9498,5.7886,5.7657,0.0,0.0,0.0,0.0,0.0,0.0,0.0,0.0,0.0,0.0,0.0,0.0,0.0,0.0,0.0,0.0,0.0,0.0,0.0,0.0,0.0,0.0,0.0,0.0,0.0,0.0,0.0,0.0,6.0617,6.2781,0.0,6.0548,6.1073,6.223,6.3836,6.5172,6.7039,6.9512,7.034,7.1428,7.2995,7.2958,7.3382,7.4314,7.4314,7.4314,7.4299,7.4299,7.4299,7.4262,7.4021,7.4051,7.4389,7.3802,7.3575,7.3546,7.26,7.0629,6.8174,6.7369,6.6856,6.6636,6.6676,6.718,6.7907,6.7935,6.8148,6.821,6.696,6.5769,6.4804,6.4696,6.4661,6.487,6.5977,6.7136,6.8532,7.063,7.1406,7.2003,7.3424,7.3648,7.37,7.4452,7.435,7.401,7.3738,7.2072,7.0451,6.9652,6.8869,6.8264,6.7881,6.8,6.8349,6.8989,6.9341,6.9616,6.9952,6.9234,6.8516,6.7943,6.7171,6.5597,6.3075,6.2884,6.2166,6.0453,6.0415,6.0109,5.9536,5.8459,5.6473,0.0,0.0,0.0,0.0,0.0,0.0,0.0,0.0,0.0,0.0,0.0,0.0,0.0,0.0,0.0,0.0,0.0,0.0,0.0,0.0,0.0,0.0,0.0,0.0,0.0,6.1103,6.3861,6.3726,6.6359,6.7227,6.4829,6.5856,6.7223,6.8539,6.9659,7.1128,7.3061,7.358,7.4284,7.527,7.5217,7.5363,7.5711,7.5711,7.5564,7.5322,7.5322,7.5322,7.5322,7.5014,7.5132,7.5557,7.5277,7.5281,7.544,7.544,7.4195,7.2132,7.068,6.9779,6.933,6.9496,6.9858,7.0394,7.0896,7.1079,7.0877,6.9573,6.8779,6.8259,6.8146,6.8307,6.8703,6.9686,7.0194,7.0817,7.2519,7.2927,7.3211,7.4379,7.4622,7.4851,7.5739,7.5891,7.5891,7.5891,7.4283,7.2659,7.1829,7.1442,7.1107,7.0572,7.0228,7.0228,7.0763,7.0563,7.0411,7.0411,6.9922,6.912,6.802,6.7171,6.5757,6.3465,6.2777,6.1975,6.0835,6.053,6.0415,6.0415,5.9033,5.7886,5.7084,0.0,0.0,0.0,0.0,0.0,0.0,0.0,0.0,0.0,0.0,0.0,0.0,0.0,0.0,0.0,0.0,0.0,0.0,0.0,0.0,0.0,0.0,0.0,6.15,6.4931,6.7193,6.6441,6.9915,7.145,6.9099,7.1118,7.2899,7.3707,7.378,7.4111,7.494,7.4977,7.5307,7.613,7.613,7.6533,7.7289,7.7289,7.6922,7.613,7.613,7.613,7.613,7.5307,7.5682,7.6874,7.6071,7.6028,7.6551,7.6525,7.6537,7.6253,7.3642,7.1671,7.0321,7.0781,7.0909,7.1008,7.1554,7.1695,7.1669,7.1669,7.1669,7.1718,7.2152,7.2318,7.2405,7.2876,7.3009,7.3208,7.4049,7.4269,7.4507,7.5356,7.5548,7.5777,7.6532,7.6685,7.6685,7.6685,7.5386,7.4269,7.4231,7.3552,7.3055,7.3055,7.2261,0.0,7.1688,7.0954,7.0411,7.0411,7.0411,6.9769,6.8096,6.7247,6.6025,6.4313,6.2586,6.1631,6.1631,6.0874,6.0492,6.053,5.9682,5.9644,6.0492,0.0,0.0,0.0,0.0,0.0,0.0,0.0,0.0,0.0,0.0,0.0,0.0,0.0,0.0,0.0,0.0,0.0,0.0,0.0,0.0,0.0,6.3638,6.6445,6.5883,6.8773,7.1106,7.1537,7.3142,7.3942,7.3245,7.3824,7.4588,7.5395,7.5432,7.5799,7.6592,7.6628,7.6738,7.6959,7.6959,7.7069,7.7289,7.7289,7.7179,7.6959,7.6959,7.6959,7.6959,7.6738,7.683,7.7179,7.6973,7.6951,7.7117,7.749,7.733,7.6709,7.5744,7.4786,7.3902,7.401,7.3868,7.3727,7.4476,7.4167,7.3478,7.3478,7.3097,7.2575,7.2367,7.2547,7.2881,7.3279,7.3617,7.4087,7.4927,7.5577,7.6074,7.6303,7.6838,7.7182,7.68,7.6685,7.6685,7.6685,7.6341,7.5844,7.5242,7.4431,7.3858,7.3858,7.2635,0.0,7.1688,7.0954,7.0411,7.0411,7.0954,7.0648,6.9005,6.8623,6.7286,6.4389,6.3159,6.2541,6.2541,6.2319,6.251,6.3128,6.2937,6.2586,0.0,0.0,0.0,0.0,0.0,0.0,0.0,0.0,0.0,0.0,0.0,0.0,0.0,0.0,0.0,0.0,0.0,0.0,0.0,0.0,0.0,0.0,6.8262,7.0855,7.1075,7.2724,7.4095,7.4661,7.5432,7.5894,7.5894,7.5894,7.6114,7.6555,7.6592,7.6812,7.7289,7.7289,7.7289,7.7289,7.7289,7.7289,7.7289,7.7656,7.7656,7.7289,7.7656,7.7656,7.7289,7.7525,7.7768,7.7988,7.82,7.8442,7.8639,7.8964,7.8834,0.0,0.0,0.0,0.0,0.0,7.5862,7.558,7.6055,7.5569,7.4736,7.4736,7.4431,7.4014,7.3733,7.3814,7.4091,7.4295,7.4767,7.5348,7.5883,7.6644,7.7273,7.7267,7.7703,7.8044,7.7849,7.7826,7.7853,7.7811,7.7791,0.0,7.6694,7.5806,7.5271,7.5271,7.3819,7.275,7.275,7.2024,7.1489,7.1489,7.1947,7.1688,7.0351,6.9578,0.0,0.0,0.0,6.4129,6.451,6.4547,0.0,0.0,0.0,0.0,0.0,0.0,0.0,0.0,6.7256,6.7806,0.0,0.0,0.0,0.0,0.0,0.0,0.0,0.0,0.0,0.0,0.0,0.0,0.0,0.0,0.0,0.0,7.2313,7.4551,7.6166,7.6387,7.635,7.624,7.6885,7.7362,7.7436,7.7436,7.7472,7.7582,7.7582,7.7582,7.7582,7.7582,0.0,0.0,0.0,7.7582,7.7582,7.8369,7.8363,7.769,7.844,7.8413,7.7642,7.8122,7.8544,7.8928,7.9403,7.9895,8.0335,8.0383,8.0468,8.0325,7.8564,7.7441,7.6858,7.723,7.715,7.6838,7.6838,0.0,0.0,7.5662,7.5624,7.5624,7.5548,7.5509,7.5509,7.5624,7.6168,7.6741,7.6817,7.7538,7.8232,7.8191,7.8373,7.8718,7.9212,7.9424,7.9446,7.9365,7.9354,7.9198,7.845,7.7514,7.6817,7.6741,7.5374,7.4342,7.4265,7.3509,7.3012,7.3012,0.0,0.0,7.195,7.049,6.9572,6.9381,6.7355,6.6514,6.7361,6.7817,6.8652,6.9956,7.0922,7.2111,7.3492,7.5141,7.6023,7.61,7.0616,7.054,0.0,0.0,0.0,0.0,0.0,0.0,0.0,0.0,0.0,0.0,0.0,0.0,0.0,0.0,0.0,7.1609,7.4059,7.6203,7.7892,7.8112,7.7855,7.7142,7.7215,7.7582,7.8295,7.8369,7.8626,7.925,7.9323,7.9323,7.9323,7.9323,7.9323,7.9323,7.9323,7.9323,7.9323,7.9486,7.9713,7.9976,0.0,0.0,7.9648,7.9765,7.9479,7.8903,7.9001,7.9097,7.9227,7.9686,8.0129,8.042,7.9391,7.8913,7.8694,7.8075,7.7806,7.7755,7.7755,7.764,7.7411,7.6685,7.6456,7.6341,7.57,7.5509,0.0,7.6303,7.667,7.6999,7.7679,7.8514,7.9233,7.9216,7.9778,8.017,7.9608,7.9472,7.9489,7.9455,7.9463,7.9655,8.0174,7.8918,7.7602,7.6943,7.6016,7.5184,7.4525,7.369,7.3153,7.3153,7.3805,7.3843,7.2969,7.2624,7.1858,7.0517,7.0601,7.08,7.0969,7.3591,7.4558,7.3522,7.5018,7.5632,7.5295,7.6284,7.7473,7.873,7.6911,7.6596,0.0,0.0,0.0,0.0,0.0,0.0,0.0,0.0,0.0,0.0,0.0,6.57,6.7313,0.0,7.2679,7.5139,7.657,7.7781,7.9045,7.9192,7.9029,7.8589,7.8552,7.8736,7.914,7.9192,7.9507,8.0351,8.0388,8.0388,8.0388,8.0388,8.022,7.9816,7.9816,7.9936,8.0199,8.0606,8.0858,8.1014,8.1425,8.1348,8.0806,8.1077,8.0957,8.0554,8.0416,8.0363,8.0336,8.0179,8.0248,8.0468,8.0057,7.9904,7.9866,7.9398,7.9016,7.8634,7.8634,7.8366,7.7946,7.7487,7.737,7.7329,7.6908,7.6828,7.6986,7.7407,7.7824,7.828,7.8701,7.9497,8.0199,8.0157,8.0561,8.0786,8.0281,8.0216,8.0257,8.0166,8.0183,8.0314,8.0724,8.0064,7.9203,7.8318,7.7163,7.6199,7.5816,7.5355,7.5087,7.5087,7.5509,7.5739,7.5739,7.5355,7.455,7.3331,7.3676,7.4121,7.4543,7.6233,7.694,7.6525,7.7746,7.8207,7.7792,7.9052,8.0089,8.0896,8.0934,8.0679,0.0,0.0,0.0,0.0,0.0,0.0,0.0,6.0933,6.2802,6.4877,6.7596,7.022,7.2334,7.3927,7.5726,7.8405,7.8809,7.9103,7.9926,8.0036,8.011,8.0257,8.0,7.9853,8.0036,8.0036,8.0424,8.1399,8.1489,8.1509,8.1709,8.1709,8.1443,8.094,8.0903,8.1079,8.1447,8.2132,8.2312,8.2047,8.2762,8.2699,8.1992,8.2426,8.2516,8.2347,8.1965,8.1805,8.1729,8.085,8.0506,8.0506,8.0525,8.0534,8.0534,8.0515,8.0095,7.9522,7.9549,7.909,7.847,7.8335,7.8321,7.8343,7.819,7.8203,7.8338,7.85,7.9007,7.956,7.9714,8.0356,8.0934,8.086,8.0989,8.1053,8.0877,8.0997,8.1053,8.0877,8.0902,8.0926,8.086,8.0902,8.0619,7.9692,7.8388,7.7483,7.7329,7.7291,7.7291,7.7291,7.7291,7.7598,7.8281,7.7705,7.7022,7.6378,7.6548,7.6963,7.7585,7.7869,7.833,7.8984,7.9862,8.0277,8.0277,8.1823,8.2554,8.2554,8.3447,8.3368,5.3159,5.425,5.5915,5.9737,6.0359,6.1885,0.0,6.9825,7.0059,7.3839,7.5454,7.6555,7.7598,7.8531,7.9229,7.9596,7.9669,7.9963,8.0755,8.0865,8.1122,8.1856,8.0661,8.0073,8.0791,8.0865,8.1489,8.3014,8.3124,8.3418,8.4168,8.4205,8.4391,8.4873,8.4851,8.4777,8.4607,8.4682,8.4619,8.4339,8.4441,8.4289,8.3969,8.4047,8.3657,8.2855,8.213,8.1805,8.1729,8.085,8.0506,8.0515,8.0569,8.0596,8.0587,8.0505,8.043,8.0372,8.0416,8.0405,8.0193,7.9553,7.9357,7.9212,7.8483,7.83,7.8462,7.9152,7.9517,7.9843,8.0564,8.0898,8.1077,8.1069,8.1077,8.1085,8.1069,8.1077,8.1085,8.1069,8.1069,8.1077,8.1069,8.1069,8.0746,7.9804,7.9553,7.9223,7.8415,7.8346,7.8346,7.8346,7.8346,7.8377,7.8454,7.8377,7.8308,7.8192,7.8923,7.9385,7.95,8.0239,8.0708,8.0823,8.1593,8.2016,8.2016,8.2986,8.3447,8.3486,8.4362,8.4277,5.8385,5.9761,6.0958,6.3157,6.5223,6.7596,7.1013,7.2018,7.2936,7.5542,7.6738,7.7582,7.8442,7.8883,7.9396,8.0351,8.0498,8.0791,8.1599,8.1709,8.1636,8.1525,8.1305,8.1305,8.1672,8.1709,8.237,8.3985,8.4095,8.4608,8.5768,8.582,8.5875,8.6003,8.6032,8.5899,8.5696,8.62,8.6055,8.5355,8.5851,8.576,8.5159,8.5159,8.4738,8.3866,8.3053,8.2402,8.1904,8.1024,8.0679,8.0679,8.0723,8.0732,8.0693,8.0688,8.0679,8.0679,8.0723,8.0732,8.0664,8.0362,8.0298,8.0263,7.9917,7.9873,7.999,8.0336,8.0475,8.0584,8.0922,8.1069,8.1093,8.1093,8.1093,8.1093,8.1093,8.1093,8.1093,8.1093,8.1093,8.1093,8.1093,8.1093,8.0962,8.0584,8.0108,7.9669,7.9285,7.9246,7.9246,7.9246,7.9708,7.9823,7.9285,7.9708,8.0015,8.0015,8.0362,8.0785,8.1246,8.117,8.1554,8.2562,8.2401,8.2554,8.3062,8.3939,8.4362,8.4362,8.5209,8.5401,6.1726,6.3403,6.4824,6.6536,6.9472,7.2078,7.2518,7.3707,7.5102,7.6497,7.7268,7.7913,7.8772,7.9103,7.9653,8.0828,8.1195,8.1525,8.2113,8.2003,8.1636,8.1085,8.1305,8.1636,8.1856,8.2076,8.2774,8.4168,8.4657,8.5435,8.6696,8.7161,8.738,8.7372,8.7385,8.7194,8.6741,8.759,8.736,8.6161,8.6812,8.6774,8.6161,8.5931,8.547,8.4866,8.4013,8.3332,8.268,8.1606,8.1176,8.1146,8.0895,8.0826,8.0835,8.086,8.0835,8.0801,8.0818,8.0826,8.0835,8.086,8.091,8.0959,8.0959,8.1007,8.1093,8.1093,8.1093,8.1093,8.1093,8.1093,8.1093,8.1093,8.1285,8.1362,8.1131,8.1285,8.1362,8.1131,8.1093,8.1093,8.1093,8.1093,8.1093,8.1093,8.0554,8.0162,8.0162,8.0162,8.0162,8.0162,8.0708,8.0823,8.0208,8.0746,8.1093,8.1093,8.1323,8.1708,8.2285,8.1977,8.2362,8.3563,8.3208,8.3324,8.3947,8.4824,8.5239,8.5239,8.5824,8.6094,6.1594,6.3429,6.6206,7.0132,7.2386,7.4037,7.5616,7.6592,7.7436,7.8332,7.8552,7.8809,7.9596,8.0388,8.0938,8.1012,8.1636,8.215,8.2186,8.1525,8.1048,8.1012,8.0314,8.0167,8.0975,8.1746,8.2553,8.3381,8.4772,8.5946,8.6855,8.8254,8.9289,8.9893,8.9905,8.9403,8.8356,8.9133,8.872,8.7052,8.709,8.709,8.7052,8.6199,8.5777,8.5739,8.4904,8.4559,8.4406,8.2757,8.2066,8.1998,8.1201,8.088,8.0896,8.1053,8.0981,8.0809,8.0855,8.088,8.0934,8.1061,8.1085,8.1093,8.1093,8.1093,8.1093,8.1093,8.1093,8.1093,8.1093,8.1093,8.1093,8.1093,8.1708,8.2054,8.1285,8.1708,8.2016,8.1246,8.1093,8.1093,8.1093,8.1093,8.1093,8.1093,8.1093,8.1054,8.1054,8.1054,8.1054,8.1054,8.1093,8.1093,8.1054,8.1093,8.1093,8.1093,8.1823,8.2285,8.2285,8.3101,8.3563,8.3601,8.4401,8.4816,8.4854,8.567,8.6055,8.6055,8.6094,8.6094,6.491,6.743,6.9839,7.2275,7.4111,7.5579,7.6628,7.7546,7.8075,7.7803,7.7729,7.7656,7.7378,7.8002,7.872,7.9323,8.0534,8.1599,8.2113,8.1966,8.1415,8.0314,8.0918,8.1234,8.0896,8.1622,8.2609,8.3965,8.5419,8.679,8.8016,8.912,8.9992,9.0572,9.0582,9.0185,8.9331,9.0137,8.9742,8.8162,8.8162,8.8162,8.8162,8.7854,8.7431,8.6808,8.5962,8.5271,8.4694,8.3588,8.3089,8.3058,8.2814,8.2707,8.2715,8.2739,8.2369,8.1705,8.1191,8.1007,8.1053,8.1085,8.1093,8.1093,8.1093,8.1093,8.1093,8.1093,8.1093,8.1093,8.1093,8.1093,8.1093,8.1093,8.1323,8.1439,8.117,8.1747,8.2208,8.1939,8.19,8.19,8.19,8.1439,8.1093,8.1093,8.1093,8.1093,8.1093,8.1093,8.1093,8.1093,8.1093,8.1093,8.1093,8.1093,8.1323,8.1862,8.1631,8.2247,8.3978,8.3208,8.3516,8.5247,8.5555,8.5709,8.5709,8.6555,8.6671,8.6094,8.6094,8.6094,6.7944,7.033,7.2261,7.4441,7.5763,7.6665,7.7179,7.7509,7.7488,7.6628,7.6004,7.5417,7.4918,7.5234,7.6151,7.7855,7.925,8.0608,8.2003,8.1929,8.1379,8.0367,8.0929,8.1385,8.1233,8.1965,8.2949,8.4216,8.5977,8.7406,8.8281,8.9668,9.0633,9.0972,9.102,9.0625,8.9853,9.0651,9.0417,8.9133,8.9133,8.8979,8.8718,8.8718,8.841,8.7833,8.694,8.6286,8.5709,8.4555,8.4055,8.4016,8.3717,8.3601,8.3601,8.3601,8.3255,8.2639,8.1823,8.1323,8.1093,8.1093,8.1093,8.1093,8.1093,8.1093,8.1093,8.1093,8.1323,8.1477,8.117,8.1323,8.1477,8.117,8.1323,8.1516,8.1516,8.217,8.2747,8.2747,8.2747,8.267,8.2362,8.1862,8.1516,8.1516,8.1516,8.14,8.1131,8.1093,8.1093,8.1093,8.1093,8.1093,8.1093,8.1093,8.1439,8.2247,8.2093,8.2862,8.4816,8.4093,8.4439,8.6055,8.6401,8.6401,8.6094,8.6978,8.694,8.6094,8.6094,8.6094,7.0573,7.2078,7.3472,7.6555,7.7289,7.7289,7.7252,7.6628,7.5799,7.4903,7.3487,7.2349,7.2239,7.2349,7.3509,7.6628,7.8002,7.9507,8.1946,8.1615,8.1138,8.1138,8.0598,8.0725,8.2063,8.29,8.3692,8.4376,8.6485,8.7787,8.7826,8.9975,9.121,9.121,9.121,9.0778,8.997,9.0778,9.0778,8.997,8.997,8.9556,8.8833,8.8833,8.8795,8.8718,8.7825,8.744,8.7286,8.5632,8.497,8.4901,8.4055,8.3717,8.3717,8.3717,8.3717,8.3563,8.2708,8.1862,8.1131,8.1093,8.1093,8.1093,8.1093,8.1093,8.1093,8.1093,8.1631,8.2054,8.1362,8.1708,8.2054,8.14,8.1785,8.2324,8.2362,8.3062,8.3678,8.3678,8.3678,8.3409,8.2516,8.2362,8.2362,8.2362,8.2362,8.2054,8.1285,8.1131,8.1131,8.117,8.1131,8.1131,8.117,8.117,8.1516,8.2362,8.3178,8.4016,8.4931,8.5662,8.6055,8.6094,8.6978,8.6978,8.6094,8.6978,8.694,8.6094,8.6094,8.6094,7.2386,7.4536,7.6261,7.7105,7.7289,7.7142,7.6533,7.5784,7.4647,7.2628,7.1431,7.0146,6.8348,7.0477,7.2973,7.4404,7.7341,8.0378,8.2969,8.3132,8.307,8.3161,8.3024,8.3396,8.4657,8.5472,8.6412,8.7466,8.8095,8.8696,8.9301,9.0533,9.121,9.121,9.121,9.1095,9.0855,9.1095,9.1095,9.0855,9.0855,9.0748,9.0556,9.0556,9.021,8.9556,8.8709,8.7987,8.7325,8.6247,8.5786,8.5786,8.5555,8.5478,8.5478,8.5478,8.5093,8.4555,8.4324,8.3247,8.19,8.1285,8.1093,8.1093,8.1093,8.1093,8.1093,8.1093,8.1246,8.1516,8.19,8.1708,8.167,8.2716,8.2631,8.2477,8.3139,8.3939,8.4555,8.4555,8.4555,8.4286,8.3409,8.3255,8.3255,8.3255,8.3255,8.2947,8.2093,8.1477,8.1323,8.1939,8.1477,8.1323,8.1939,8.1977,8.2631,8.4132,8.3824,8.4247,8.5747,8.5431,8.547,8.6094,8.6978,8.6978,8.6094,8.6978,8.694,8.6094,8.6094,8.6094,7.4184,7.6004,7.7289,7.7289,7.7032,7.6298,7.4426,7.3377,7.1908,6.8788,6.7797,6.6953,6.5191,6.7614,7.0505,7.2412,7.5882,7.9474,8.2797,8.3551,8.3967,8.4358,8.47,8.526,8.6127,8.6889,8.7871,8.9128,8.9594,8.9825,8.9893,9.074,9.121,9.121,9.121,9.121,9.121,9.121,9.121,9.121,9.0816,9.0825,9.121,9.0778,9.0355,8.9855,0.0,8.8218,8.7325,8.6478,8.6094,8.6094,8.6094,8.6094,8.6094,8.6094,8.5824,8.5393,8.5008,8.4016,8.2708,8.19,8.1631,8.1554,8.1208,8.1093,8.1093,8.1093,8.1362,8.1747,8.217,8.2247,8.2447,8.337,8.3216,8.3101,8.3978,8.4555,8.5008,8.5354,8.5124,8.4863,8.4709,8.4401,8.417,8.417,8.417,8.3862,8.2978,8.2131,8.1785,8.2247,8.19,8.1939,8.2785,8.2862,8.3439,8.4816,8.4439,8.4747,8.6055,8.567,8.5632,8.6094,8.6978,8.6978,8.6094,8.6978,8.694,8.6094,8.6094,8.6094,7.5836,7.6775,7.7289,7.7289,7.6518,7.4955,7.1857,7.0183,6.8201,6.4383,6.3503,6.3209,6.2462,6.4543,6.7473,7.0795,7.4114,7.7799,8.212,8.3429,8.4294,8.5234,8.5968,8.6618,8.7196,8.784,8.8758,8.9983,9.0902,9.097,9.0124,9.0778,9.121,9.121,9.121,9.121,9.121,9.121,9.121,9.121,9.0432,9.047,9.1171,9.0316,8.9893,8.9855,8.894,8.8094,8.7325,8.6478,8.6094,8.6094,8.6094,8.6094,8.6094,8.6094,8.6094,8.6017,8.5277,8.4555,8.3755,8.267,8.2247,8.2016,8.1323,8.1093,8.1131,8.1246,8.1747,8.2362,8.2593,8.3139,8.3678,8.387,8.387,8.4016,8.4854,8.5047,8.5277,8.5978,8.5547,8.5286,8.5978,8.5517,8.5085,8.5201,8.5124,8.4786,8.4024,8.3093,8.2477,8.2477,8.2477,8.2832,8.3717,8.3755,8.4132,8.5016,8.5047,8.5354,8.6055,8.6094,8.6094,8.6094,8.6824,8.6863,8.6094,8.6863,8.6824,8.6094,8.6209,8.6286,7.6848,7.7179,7.7289,7.7289,7.5689,7.345,7.0881,6.7614,6.436,6.1594,6.0517,6.0003,5.9857,6.3039,6.6732,6.9975,7.3351,7.7281,8.2177,8.3614,8.4735,8.632,8.7007,8.7805,8.9035,8.9697,9.031,9.0953,9.1787,9.1902,9.1018,9.1133,9.121,9.121,9.121,9.121,9.121,9.121,9.121,9.121,9.1056,9.1056,9.1171,9.0316,8.9893,8.9816,8.8286,0.0,8.7325,8.6478,8.6094,8.6094,8.6094,8.6094,8.6094,8.6094,8.6094,8.6094,8.594,8.5786,8.5286,8.3016,8.1862,8.1285,8.1131,8.1093,8.1246,8.19,8.217,8.2631,8.4055,8.4016,8.3947,8.5324,8.517,8.4901,8.5709,8.5893,8.594,8.6055,8.5978,8.594,8.6094,8.5978,8.6132,8.6863,8.6363,8.5824,8.5709,8.4324,8.337,8.337,8.337,8.3717,8.4593,8.467,8.5016,8.5863,8.5893,8.5931,8.6094,8.6094,8.6094,8.6094,8.6247,8.6247,8.6094,8.6247,8.6247,8.6132,8.6824,8.7171,7.7069,7.7289,7.7215,7.6775,7.4882,7.1982,6.7907,6.48,6.1875,5.8676,5.83,5.8619,5.8745,6.1738,6.4881,6.7036,7.0167,7.4255,7.9745,8.1592,8.3477,8.6449,8.7895,8.8873,8.955,9.037,9.0943,9.1192,9.1595,9.1633,9.121,9.121,9.121,9.121,9.121,9.121,9.121,9.121,9.121,9.121,9.074,9.074,9.1171,8.9863,8.9286,8.921,8.794,8.7132,8.6709,8.6286,8.6094,8.6094,8.6094,8.6094,8.6094,8.6094,8.6094,8.6094,8.6094,8.5824,8.5209,8.3516,8.3016,8.2901,8.2016,8.1708,8.1708,8.167,8.1977,8.2593,8.3901,8.4247,8.4593,8.5824,8.5824,8.5632,8.6017,8.6094,8.6094,8.6094,8.6094,8.6094,8.6094,8.6094,8.6247,8.6671,8.6363,8.594,8.5517,8.5132,8.4747,8.4324,8.4286,8.4786,8.6094,8.6209,8.6363,8.6748,8.6786,8.6555,8.6132,8.6094,8.6094,8.6094,8.6094,8.6094,8.6094,8.6094,8.6324,8.6786,8.7209,8.7863,7.7069,7.7289,7.7105,7.6313,7.4037,7.0587,6.5314,6.2414,5.9879,5.6511,5.6713,5.7706,5.8286,6.054,6.284,6.4433,6.7296,7.1364,7.7338,7.9897,8.2547,8.6391,8.8593,8.9769,8.9769,9.0635,9.121,9.121,9.121,9.121,9.121,9.121,9.121,9.121,9.121,9.121,9.121,9.121,9.121,9.121,9.0509,9.0547,9.1171,8.9633,8.8872,8.8641,8.7786,8.6901,8.6094,8.6094,8.6094,8.6094,8.6094,8.6094,8.6094,8.6094,8.6094,8.6094,8.6094,8.5709,8.5047,8.4362,8.4362,8.4286,8.2554,8.2285,8.2439,8.1823,8.2247,8.3054,8.3909,8.4632,8.5316,8.594,8.6094,8.6094,8.6094,8.6094,8.6094,8.6094,8.6094,8.6094,8.6094,8.6094,8.617,8.6363,8.6209,8.594,8.547,8.5824,8.5863,8.5209,8.5162,8.5786,8.7286,8.7401,8.7478,8.7671,8.7517,8.7094,8.6401,8.6209,8.6094,8.6094,8.6094,8.6094,8.6094,8.6286,8.6824,8.7671,8.8055,8.9017,7.7069,7.7289,7.7105,7.6313,7.3193,6.9229,6.5057,6.1129,5.7859,5.6142,5.5906,5.6491,5.8113,5.932,6.11,6.4209,6.6887,7.0759,7.6966,8.0555,8.3664,8.6717,8.9003,9.0349,9.0349,9.0848,9.121,9.121,9.121,9.121,9.121,9.121,9.121,9.121,9.121,9.121,9.121,9.121,9.121,9.121,9.1133,9.1133,9.1171,9.0201,8.9402,8.8641,8.7786,8.6901,0.0,8.6094,8.6094,8.6094,8.6094,8.6094,8.6094,8.6094,8.6094,8.6094,8.6094,8.6055,8.5978,8.5901,8.4901,8.3409,8.1708,8.2285,8.3486,8.3409,8.3978,8.4863,8.567,8.594,8.6017,8.6094,8.6094,8.6094,8.6094,8.6094,8.6094,8.6094,8.6094,8.6094,8.6094,8.6094,8.6363,8.7171,8.6594,8.6363,8.7094,8.6555,8.6055,8.6017,8.5978,8.6363,8.7325,8.7401,8.7748,8.8526,8.7825,8.7363,8.7286,8.6517,8.6094,8.6094,8.6094,8.6094,8.6094,8.6901,8.7709,8.8641,9.0133,9.1364,7.6093,7.6922,7.6995,7.5711,7.2773,6.9007,6.4448,6.0733,5.7814,5.6282,5.5908,5.6425,5.8233,5.8836,5.981,6.2187,6.3456,6.6172,7.2098,7.4935,7.8378,8.3816,8.6414,8.8455,9.0228,9.1366,9.1979,9.1979,9.1518,9.121,9.121,9.121,9.121,9.121,9.121,9.121,9.121,9.121,9.121,9.121,9.121,9.121,9.1171,8.9787,8.8979,8.8641,8.7209,8.644,0.0,8.6094,8.6094,8.6094,8.6094,8.6094,8.6094,8.6094,8.6094,8.6094,8.6094,8.6094,8.6017,8.5547,8.5247,8.4901,8.3747,8.3862,8.4286,8.3755,8.4209,8.497,8.5277,8.5747,8.6094,8.6094,8.6094,8.6094,8.6094,8.6094,8.6094,8.6094,8.6094,8.6094,8.6094,8.6094,8.6209,8.6555,8.6324,8.6247,8.6555,8.6324,8.6094,8.6094,8.6094,8.644,8.7325,8.7401,8.7555,8.7902,8.7594,8.7171,8.6632,8.6286,8.6094,8.6094,8.6632,8.6863,8.6901,8.8248,8.9363,9.0248,9.1441,9.271,7.4294,7.5601,7.5909,7.4596,7.1889,6.8402,6.3763,6.0467,5.7956,5.6418,5.6218,5.68,5.8396,5.881,5.9462,6.1097,6.2183,6.4641,6.9892,7.2526,7.6039,8.187,8.4426,8.6688,8.9265,9.1086,9.2133,9.2133,9.1556,9.121,9.121,9.121,9.121,9.121,9.121,9.121,9.121,9.121,9.121,9.121,9.0941,9.0816,9.0787,8.9363,8.8564,8.8256,8.7017,8.6324,0.0,8.6094,8.6094,8.6094,8.6094,8.6094,8.6094,8.6094,8.6094,8.6094,8.6094,8.6094,8.6017,8.5431,8.5632,8.5978,8.5431,8.5239,8.5093,8.4209,8.4593,8.5239,8.5239,8.567,8.6094,8.6094,8.6094,8.6094,8.6094,8.6094,8.6094,8.6094,8.6094,8.6094,8.6094,8.6094,8.6094,8.6094,8.6094,8.6094,8.6094,8.6094,8.6094,8.6094,8.6094,8.644,8.7325,8.7401,8.7517,8.7786,8.7555,8.7132,8.6517,8.6247,8.6209,8.6478,8.7325,8.7902,8.8132,8.9825,9.1133,9.1979,9.2826,9.4027,7.1688,7.312,7.3567,7.2888,7.0303,6.6881,6.2925,6.0118,5.7956,5.6418,5.6735,5.7581,5.8528,5.9356,6.0294,6.1495,6.4492,6.8097,7.2279,7.5747,7.8968,8.196,8.3846,8.5585,8.7278,8.9748,9.121,9.121,9.121,9.121,9.121,9.121,9.121,9.121,9.121,9.121,9.121,9.121,9.121,9.121,9.0316,8.9893,8.9893,8.9056,8.8218,8.7401,8.7401,8.6901,0.0,8.6094,8.6094,8.6094,8.6094,8.6094,8.6094,8.6094,8.6094,8.6094,8.6094,8.6094,8.6094,8.6094,8.6094,8.6094,8.6094,8.6094,8.594,8.5132,8.5478,8.6094,8.6094,8.6094,8.6094,8.6094,8.6094,8.6094,8.6094,8.6094,8.6094,8.6094,8.6094,8.6094,8.6094,8.6094,8.6094,8.6094,8.6094,8.6094,8.6094,8.6094,8.6094,8.6094,8.6094,8.644,8.7325,8.7401,8.7786,8.8641,8.7872,8.7401,8.7401,8.6555,8.6517,8.7363,8.8256,8.9094,8.9893,9.1633,9.2903,9.371,9.4566,9.5451,6.6476,6.8141,6.916,6.7332,6.5778,6.3922,6.1084,5.9481,5.8307,5.7262,5.7272,5.7877,5.9271,5.9728,6.1156,6.4908,6.67,6.8803,7.235,7.5517,7.8571,8.1539,8.6235,8.9633,9.0787,9.1095,9.1441,9.2056,9.1556,9.121,9.121,9.121,9.121,9.121,9.121,9.121,9.121,9.121,9.121,9.121,9.0316,8.9893,8.9855,8.844,8.7671,8.7363,8.6786,8.6363,8.6094,8.6094,8.6094,8.6094,8.6094,8.6094,8.6094,8.6094,8.6094,8.6094,8.6094,8.6094,8.6094,8.6094,8.6094,8.6094,8.6094,8.6094,8.6055,8.5786,8.5901,8.6094,8.6094,8.6094,8.6094,8.6094,8.6094,8.6094,8.6094,8.6094,8.6094,8.6094,8.6094,8.6094,8.6094,8.6094,8.6094,8.6094,8.6094,8.6094,8.6094,8.6094,8.6094,8.6094,8.6094,8.6209,8.6478,8.6517,8.6632,8.6901,8.6671,8.6517,8.6517,8.6824,8.6824,8.6517,8.7948,8.9094,8.9893,9.1633,9.3518,9.548,9.5749,9.6057,6.2426,6.4092,6.516,6.3775,6.2666,6.1417,5.9726,5.8746,5.8093,5.7621,5.7722,5.8353,5.9653,6.0173,6.1592,6.5256,6.716,6.9216,7.2176,7.5285,7.8575,8.2014,8.7059,9.0479,9.1018,9.1133,9.1441,9.1979,9.1518,9.121,9.121,9.121,9.121,9.121,9.121,9.121,9.121,9.121,9.121,9.121,9.0017,8.944,8.9402,8.7709,8.6901,8.6863,8.6324,8.6094,0.0,8.6094,8.6094,8.6094,8.6094,8.6094,8.6094,8.6094,8.6094,8.6094,8.6094,8.6094,8.6094,8.6094,8.6094,8.6094,8.6094,8.6094,8.6094,8.6094,8.6094,8.6094,8.6094,8.6094,8.6094,8.6094,8.6094,8.6094,8.6094,8.6094,8.6094,8.6094,8.6094,8.6094,8.6094,8.6094,8.6094,8.6094,8.6094,8.6094,8.6094,8.6094,8.6094,8.6094,8.6094,8.6094,8.6094,8.6094,8.6094,8.6094,8.6094,8.6094,8.6094,8.6632,8.6978,8.7094,8.844,8.9863,9.1325,9.3095,9.4749,9.6288,9.6288,9.6288,0.0,6.0733,6.1406,6.155,6.0459,5.9196,5.8582,5.7945,0.0,5.7509,5.8161,5.9037,6.0051,6.0779,6.1902,6.3891,6.678,6.9713,7.2253,7.5654,7.9446,8.3563,8.7025,8.9026,8.8987,9.0364,9.1287,9.121,9.121,9.121,9.121,9.121,9.121,9.121,9.121,9.121,9.121,9.121,9.121,9.1171,8.9479,8.8718,8.8718,8.6901,8.6132,0.0,8.6132,8.6094,8.6094,8.6094,8.6094,8.6094,8.6094,8.6094,8.6094,8.6094,8.6094,8.6094,8.6094,8.6094,8.6094,8.6094,8.6094,8.6094,8.6094,8.6094,8.6094,8.6094,8.6094,8.6094,8.6094,8.6094,8.6094,8.6094,8.6094,8.6094,8.6094,8.6094,8.6094,8.6094,8.6094,8.6094,8.6094,8.6094,8.6094,8.6094,8.6094,8.6094,8.6094,8.6094,8.6094,8.6094,8.6094,8.6094,8.6094,8.6094,8.6094,8.6094,8.6094,8.6094,8.6094,8.617,8.6901,8.8487,8.9479,9.1163,9.3518,9.5403,9.6288,9.6288,9.6288,9.6288,5.4754,0.0,5.697,5.5938,5.5852,5.5983,0.0,5.6719,5.7509,5.7509,5.8328,5.9945,6.2731,6.2551,6.3962,7.0081,7.1517,7.2953,7.6067,8.0838,8.5132,8.8055,9.0864,9.2287,9.1672,9.1941,9.1902,9.1248,9.121,9.121,9.121,9.121,9.121,9.121,9.121,9.121,9.121,9.121,9.121,9.1171,8.9479,8.9017,8.9547,8.7171,8.6478,8.7055,8.6401,8.6094,8.6094,8.6094,8.6094,8.6094,8.6094,8.6094,8.6094,8.6094,8.6094,8.6094,8.6094,8.6094,8.6094,8.6094,8.6094,8.6094,8.6094,8.6094,8.6094,8.6094,8.6094,8.6094,8.6094,8.6094,8.6094,8.6094,8.6094,8.6094,8.6094,8.6094,8.6094,8.6094,8.6094,8.6094,8.6094,8.6094,8.6094,8.6094,8.6094,8.6094,8.6094,8.6094,8.6094,8.6094,8.6094,8.6094,8.6094,8.6094,8.6094,8.6094,8.6094,8.6094,8.6094,8.6748,8.6978,8.6709,8.9479,9.121,9.1787,9.4826,9.6288,9.6288,9.6288,9.6288,5.2836,5.4394,5.5718,5.5229,5.5321,5.5706,5.6285,5.6403,5.6459,5.6878,5.7846,5.9459,6.2052,6.3,6.5034,7.0008,7.2312,7.5,7.9237,8.4161,8.794,8.9701,9.2133,9.3518,9.3095,9.271,9.2287,9.1825,9.1441,9.121,9.121,9.121,9.121,9.121,9.121,9.121,9.121,9.121,9.121,9.1171,8.9479,8.894,8.9286,8.7094,8.6363,8.6786,8.6286,8.6094,8.6094,8.6094,8.6094,8.6094,8.6094,8.6094,8.6094,8.6094,8.6094,8.6094,8.6094,8.6094,8.6094,8.6094,8.6094,8.6094,8.6094,8.6094,8.6094,8.6094,8.6094,8.6094,8.6094,8.6094,8.6094,8.6094,8.6094,8.6094,8.6094,8.6094,8.6094,8.6094,8.6094,8.6094,8.6094,8.6094,8.6094,8.6094,8.6094,8.6094,8.6094,8.6094,8.6094,8.6094,8.6094,8.6094,8.6094,8.6094,8.6094,8.6094,8.6094,8.6094,8.6094,8.6555,8.6786,8.6709,9.0056,9.1787,9.1787,9.4826,9.6288,9.6288,9.5903,9.5903,5.293,5.4852,5.663,5.6458,5.6453,5.6659,5.7438,5.6331,5.5379,5.6283,5.736,5.8841,6.1213,6.3565,6.6069,6.8801,7.2614,7.701,8.1984,8.617,8.9056,8.997,9.2249,9.3633,9.3518,9.2903,9.2441,9.2326,9.1633,9.121,9.121,9.121,9.121,9.121,9.121,9.1133,9.1018,9.1133,9.121,9.1171,8.9633,8.8863,8.8825,8.7094,8.6286,8.6286,0.0,0.0,8.6094,8.6094,8.6094,8.6094,8.6094,8.6094,8.6094,8.6094,8.6094,8.6094,8.6094,8.6094,8.6094,8.6094,8.6094,8.6094,8.6094,8.6094,8.6094,8.6094,8.6094,8.6094,8.6094,8.6094,8.6094,8.6094,8.6094,8.6094,8.6094,8.6094,8.6094,8.6094,8.6094,8.6094,8.6094,8.6094,8.6094,8.6094,8.6094,8.6094,8.6094,8.6094,8.6094,8.6094,8.6094,8.6094,8.6094,8.6094,8.6094,8.6094,8.6094,8.6094,8.6094,8.6094,8.644,8.7171,9.0556,9.2287,9.2326,9.498,9.6288,9.6288,9.5518,9.5595,5.5526,5.822,5.9261,5.5587,5.5936,5.6819,5.5594,5.5585,5.6104,5.696,5.8061,6.047,6.5787,6.6748,6.8758,7.4833,7.8185,8.1084,8.4085,8.6901,8.9248,9.0825,9.2595,9.3441,9.2749,9.2556,9.2172,9.1479,9.1287,9.121,9.121,9.121,9.121,9.121,9.121,9.0855,9.0124,9.0825,9.121,9.121,9.0201,8.9701,8.9663,8.7979,8.7209,8.7171,0.0,8.6094,8.6094,8.6094,8.6094,8.6094,8.6094,8.6094,8.6094,8.6094,8.6094,8.6094,8.6094,8.6094,8.6094,8.6094,8.6094,8.6094,8.6094,8.6094,8.6094,8.6094,8.6094,8.6094,8.6094,8.6094,8.6094,8.6094,8.6094,8.6094,8.6094,8.6094,8.6094,8.6094,8.6094,8.6094,8.6094,8.6094,8.6094,8.6094,8.6094,8.6094,8.6094,8.6094,8.6094,8.6094,8.6094,8.6094,8.6094,8.6094,8.6094,8.6094,8.6094,8.6094,8.6094,8.6094,8.617,8.6286,8.9671,9.1402,9.1402,9.4711,9.6288,9.6288,9.6172,9.6172,5.4042,5.6838,5.8836,5.7294,5.8812,6.0551,5.9977,5.892,5.8439,5.9798,6.0616,6.2354,6.6475,6.8695,7.1944,7.8323,8.1093,8.3016,8.467,8.7094,8.9133,9.0355,9.2018,9.3095,9.3133,9.2749,9.2326,9.1941,9.1479,9.121,9.121,9.074,9.0509,9.0509,9.0094,8.9671,8.9248,9.0086,9.0287,8.9825,8.8979,8.8556,8.8517,8.7248,8.6709,8.6671,0.0,8.6094,8.6094,8.6094,8.6094,8.6094,8.6094,8.6094,8.6094,8.6151,8.6167,8.6175,8.6253,8.6269,8.6269,8.6269,8.6269,8.6269,8.6269,8.6269,8.6269,8.6269,8.6167,8.6094,8.6094,8.6094,8.6094,8.6094,8.6094,8.6094,8.6094,8.6094,8.6094,8.6094,8.6094,8.6094,8.6094,8.6094,8.6094,8.6094,8.6094,8.6094,8.6094,8.6094,8.6094,8.6094,8.6094,8.6094,8.6094,8.6094,8.6094,8.6094,8.6094,8.6094,8.6094,8.6094,8.6324,8.6786,8.971,9.1441,9.1902,9.4864,9.6315,9.6331,9.5815,9.5854,5.3234,5.5746,5.8425,5.9274,6.0931,6.2734,6.4178,6.2342,6.1066,6.3573,6.4167,6.5039,6.7805,7.1394,7.5592,8.0554,8.2785,8.4286,8.5324,8.7325,8.8979,8.9816,9.1095,9.2133,9.2749,9.2095,9.1595,9.1595,9.1171,9.0825,9.0633,9.0163,8.9816,8.9624,8.9017,8.8603,8.841,8.9017,8.9094,8.8679,8.8209,8.7786,8.7363,8.6709,8.6286,8.6094,8.6094,8.6094,8.6094,8.6094,8.6102,8.6126,8.6126,8.6135,8.6197,8.6231,8.6254,8.6262,8.6361,8.6384,8.6384,8.6384,8.6384,8.6384,8.6384,8.6384,8.6384,8.6384,8.6293,8.6151,8.6151,8.6151,8.6151,8.6151,8.6151,8.6151,8.6151,8.6135,8.6126,8.6126,8.6126,8.6118,8.6094,8.611,8.6118,8.6094,8.6094,8.6094,8.6094,8.6094,8.6094,8.6094,8.6094,8.6094,8.6094,8.6094,8.6094,8.6094,8.6094,8.6094,8.6094,8.6094,8.6401,8.7094,8.9787,9.1518,9.221,9.498,9.6325,9.6367,9.5659,9.5707,5.5955,5.7977,5.9604,6.045,5.9663,5.992,6.468,6.3789,6.3315,6.8152,6.855,6.9018,7.2402,7.6423,7.99,8.19,8.367,8.5363,8.6978,8.8064,8.8979,8.9816,9.0009,9.0124,9.0163,8.944,8.8987,8.8987,8.9594,8.9671,8.891,8.9517,8.9556,8.8795,8.8718,8.8295,8.7517,8.7555,8.794,8.8718,8.9402,8.8902,8.7401,8.7325,8.6863,8.6094,8.6094,8.6094,8.6094,8.6094,8.6143,8.6176,8.6176,8.6262,8.6369,8.6369,8.6376,8.6376,8.6415,8.6384,8.6384,8.6384,8.6384,8.6384,8.6384,8.6384,8.6384,8.6384,8.6376,8.6361,8.6361,8.6361,8.6361,8.6361,8.6361,8.6361,8.6361,8.6269,8.6176,8.6176,8.6176,8.6153,8.611,8.6159,8.6191,8.6102,8.6094,8.6094,8.6094,8.6094,8.6094,8.6094,8.6094,8.6094,8.6094,8.6094,8.6094,8.6094,8.6094,8.6094,8.6094,8.6094,8.6132,8.6209,8.9479,9.1248,9.1287,9.4672,9.6288,9.6297,9.6311,9.6302,5.4336,5.7011,5.9858,6.1248,6.1133,6.1864,6.6436,6.7128,6.8129,7.2668,7.293,7.3046,7.5438,7.8015,8.0362,8.2016,8.3747,8.5286,8.644,8.7325,8.7979,8.8325,8.8825,8.9133,8.9133,8.8872,8.8718,8.8718,8.8979,8.9017,8.8718,8.8479,8.8209,8.7902,8.7421,8.6984,8.6676,8.7232,8.7449,8.7256,8.7451,8.7234,8.6637,8.6637,8.6515,8.6293,8.6293,8.6293,8.6293,8.6293,8.6308,8.6339,8.6339,8.6354,8.643,8.6443,8.6457,8.6464,8.6507,8.6521,8.6521,8.6521,8.6521,8.6521,8.6521,8.6521,8.6521,8.6521,8.6521,8.65,8.6406,8.6384,8.6384,8.6384,8.6384,8.6384,8.6384,8.6361,8.6339,8.6339,8.6262,8.6176,8.6183,8.6159,8.6126,8.6094,8.6094,8.6094,8.6094,8.6094,8.6094,8.6094,8.6094,8.6094,8.6094,8.6094,8.6094,8.6094,8.6094,8.6094,8.6094,8.6094,8.6363,8.6901,8.9748,9.1479,9.2018,9.4903,9.6315,9.634,9.6352,9.6361,5.3933,5.6511,5.9588,6.1595,6.2518,6.4057,6.859,6.986,7.1437,7.6207,7.6515,7.6245,7.7445,7.8631,7.9939,8.1631,8.3362,8.4786,8.5585,8.6709,8.7401,8.7401,8.794,8.8295,8.8295,8.8017,8.788,8.7905,8.8174,8.8345,8.8331,8.7792,8.7446,8.7446,8.6693,8.6262,8.6262,8.6894,8.6924,8.6415,8.6269,8.6207,8.6262,8.6262,8.6293,8.6384,8.6384,8.6384,8.6384,8.6384,8.6399,8.6421,8.645,8.6457,8.6464,8.6514,8.6535,8.6542,8.659,8.6603,8.6603,8.6603,8.6603,8.6603,8.6603,8.6603,8.6603,8.6603,8.6603,8.6583,8.6479,8.6457,8.6457,8.6457,8.6457,8.6457,8.6457,8.6436,8.6421,8.6421,8.6376,8.63,8.6269,8.6238,8.6207,8.6214,8.6151,8.6135,8.6135,8.611,8.6094,8.6094,8.6094,8.6094,8.6094,8.6094,8.6094,8.6094,8.6094,8.6094,8.6094,8.6094,8.6363,8.6978,8.9248,9.0979,9.2095,9.4364,9.5786,9.6349,9.6352,9.6352,5.5478,5.6973,5.8934,6.1479,6.3403,6.5974,7.1059,7.1552,7.2629,7.8585,7.9131,7.8523,7.8523,7.8523,7.91,8.0823,8.2485,8.3901,8.4786,8.6324,8.7363,8.7401,8.7401,8.7401,8.7401,8.6594,8.6126,8.6223,8.7032,8.7526,8.7611,8.7572,8.7572,8.7572,8.6808,8.6384,8.6384,8.6384,8.6384,8.6384,8.6384,8.6384,8.6384,8.6384,8.6384,8.6384,8.6384,8.6384,8.6384,8.6384,8.6436,8.6514,8.6583,8.6603,8.6603,8.6603,8.6603,8.6603,8.6603,8.6603,8.6603,8.6603,8.6603,8.6603,8.6603,8.6603,8.6603,8.6603,8.6603,8.6603,8.6603,8.6603,8.6603,8.6603,8.6603,8.6603,8.6603,8.6556,8.6507,8.6507,8.6507,8.6479,8.6399,8.645,8.6479,8.6391,8.6277,8.6192,8.6184,8.6151,8.6094,8.6094,8.6094,8.6094,8.6094,8.6094,8.6094,8.6094,8.6094,8.6094,8.6094,8.6094,8.6094,8.6094,8.7825,8.9517,9.1171,9.2864,9.4595,9.6288,9.6349,9.634,5.4203,5.7396,6.1287,6.2627,6.6013,6.9898,7.3206,7.4245,7.5668,7.9862,8.0015,7.94,7.94,7.94,7.9785,8.0939,8.1977,8.3208,8.47,8.5316,8.5863,8.644,8.6536,8.6576,8.6576,8.6393,8.6547,8.7156,8.6886,8.6971,8.7572,8.7078,8.677,8.677,8.6551,8.6472,8.6472,8.6514,8.6542,8.6542,8.6542,8.6514,8.6472,8.6472,8.6493,8.6542,8.6542,8.6542,8.6542,8.6542,8.6556,8.6576,8.6596,8.6603,8.6603,8.6603,8.6603,8.6603,8.6603,8.6603,8.6603,8.6603,8.6603,8.6603,8.6603,8.6603,8.6603,8.6603,8.6603,8.6603,8.6603,8.6603,8.6603,8.6603,8.6603,8.6603,8.6603,8.659,8.6576,8.6576,8.6535,8.65,8.6472,8.6443,8.6391,8.6277,8.6238,8.6168,8.6143,8.611,8.6094,8.6094,8.6094,8.6094,8.6094,8.6094,8.6094,8.6094,8.6094,8.6094,8.6094,8.6094,8.6094,8.6094,8.7825,8.8949,8.944,9.1748,9.3403,9.448,9.5132,9.5747,5.6126,5.9319,6.3166,6.5705,6.8898,7.236,7.5892,7.713,7.8207,8.0592,8.04,7.9892,8.0246,8.0046,8.0092,8.0977,8.1785,8.2678,8.3748,8.4488,8.512,8.5652,8.6046,8.6277,8.6277,8.6354,8.6623,8.7123,8.6698,8.6829,8.7669,8.6935,8.6626,8.6974,8.6714,8.6549,8.6549,8.6583,8.6416,8.6107,8.6416,8.6235,8.5582,8.624,8.6569,8.6603,8.6603,8.6603,8.6603,8.6603,8.6603,8.6571,8.6223,8.63,8.6526,8.5836,8.6029,8.6564,8.6177,8.6293,8.6603,8.6603,8.6603,8.6603,8.6603,8.6603,8.6603,8.6603,8.6603,8.6603,8.6603,8.6603,8.6603,8.6603,8.6603,8.6603,8.6603,8.6603,8.6603,8.6603,8.6576,8.6549,8.6549,8.6507,8.6457,8.6375,8.6315,8.6231,8.611,8.6094,8.6094,8.6094,8.6094,8.6094,8.6094,8.6094,8.6094,8.6094,8.6094,8.6094,8.6094,8.6094,8.6094,8.6094,8.7132,8.8025,8.8718,9.0556,9.2249,9.371,9.4604,9.548,5.971,6.1973,6.4622,6.9667,7.1898,7.4137,7.8861,7.9931,8.0131,8.0939,8.0477,8.0162,8.0939,8.0439,8.0169,8.0977,8.1708,8.224,8.2393,8.3757,8.4867,8.5057,8.5813,8.6314,8.6391,8.6399,8.6474,8.6623,8.6553,8.6928,8.7834,8.7067,8.6951,8.7763,8.699,8.6603,8.6603,8.6603,8.6145,8.5294,8.6107,8.5643,8.4173,8.5836,8.6603,8.6603,8.6455,8.6448,8.6603,8.6526,8.6526,8.6526,8.572,8.5829,8.63,8.4869,8.5256,8.6371,8.5681,8.5952,8.6603,8.6603,8.6603,8.6603,8.6603,8.6603,8.6603,8.6603,8.6603,8.6603,8.6603,8.6603,8.6603,8.6603,8.6603,8.6603,8.6603,8.6603,8.6603,8.6603,8.6603,8.6603,8.6603,8.6603,8.6603,8.659,8.6457,8.6308,8.611,8.6094,8.6094,8.6094,8.6094,8.6094,8.6094,8.6094,8.6094,8.6094,8.6094,8.6094,8.6094,8.6094,8.6094,8.6094,8.6094,8.6863,8.8449,8.9286,9.0941,9.3364,9.4258,9.5172,5.8434,6.1512,6.5397,6.9783,7.4553,7.8631,8.04,8.0823,8.0862,8.1054,8.0939,8.09,8.1054,8.0939,8.09,8.1054,8.1246,8.1585,8.2316,8.2717,8.3479,8.4942,8.5323,8.5745,8.6402,8.6528,8.684,8.755,8.697,8.6976,8.7841,8.7067,8.668,8.6874,8.668,8.6603,8.6603,8.6603,8.6145,8.5294,8.5488,8.5062,8.4173,8.5836,8.6603,8.6526,8.5217,8.5372,8.6564,8.5875,8.5984,8.6564,8.6371,8.6029,8.5604,8.5952,8.5875,8.5643,8.6145,8.6448,8.6603,8.6603,8.6603,8.6603,8.6603,8.6603,8.6603,8.6603,8.6603,8.6603,8.6603,8.6603,8.6603,8.6603,8.6603,8.6603,8.6603,8.6603,8.6603,8.6603,8.6603,8.6603,8.6603,8.6603,8.6569,8.645,8.6293,8.6135,8.6094,8.6094,8.6094,8.6094,8.6094,8.6094,8.6094,8.6094,8.6094,8.6094,8.6094,8.6094,8.6094,8.6094,8.6094,8.6094,8.6094,8.6286,8.6671,8.7517,8.8902,9.074,9.1595,9.2826,5.9319,6.232,6.6013,7.186,7.6592,8.0046,8.09,8.1093,8.1093,8.1093,8.1093,8.1093,8.1093,8.1124,8.1154,8.1154,8.1184,8.1391,8.1849,8.2287,8.2901,8.3898,8.4409,8.4855,8.5319,8.5391,8.5759,8.6603,8.5875,8.5759,8.6603,8.6223,8.5991,8.5991,8.6371,8.641,8.5991,8.5991,8.5333,8.4095,8.4521,8.4521,8.414,8.4985,8.541,8.5333,8.4482,8.4598,8.5372,8.4908,8.4985,8.5372,8.4946,8.4753,8.4714,8.4753,8.4753,8.4792,8.5256,8.5643,8.5991,8.5991,8.6255,8.6603,8.6603,8.6603,8.6603,8.6603,8.6603,8.6487,8.6107,8.5991,8.5875,8.5488,8.572,8.6107,8.6526,8.5991,8.5643,8.6448,8.6255,8.6107,8.6526,8.6603,8.6556,8.6406,8.6308,8.6222,8.6102,8.6094,8.6094,8.6094,8.6094,8.6094,8.6094,8.6094,8.6094,8.6094,8.6094,8.6094,8.6094,8.6094,8.6094,8.6094,8.6094,8.6094,8.6094,8.6978,8.8248,8.9932,9.0778,9.2095,6.0171,6.3435,6.7128,7.4053,7.7592,7.9592,8.0477,8.0631,8.0631,8.0631,8.09,8.1093,8.1108,8.1169,8.1214,8.1229,8.1249,8.1312,8.1387,8.2019,8.2554,8.278,8.3444,8.3947,8.4095,8.4095,8.4366,8.5024,8.4482,8.4405,8.5062,8.5101,8.5101,8.5101,8.5797,8.5836,8.5101,8.5101,8.4327,8.2825,8.336,8.3631,8.3631,8.3631,8.3824,8.4095,8.3786,8.3824,8.4095,8.394,8.394,8.4018,8.3444,8.3521,8.3824,8.356,8.3637,8.3908,8.4211,8.4637,8.5101,8.5101,8.5565,8.6184,8.6184,8.6184,8.6184,8.6184,8.6184,8.5991,8.5294,8.5101,8.4946,8.425,8.4482,8.5101,8.5991,8.5062,8.4521,8.5913,8.572,8.5526,8.6255,8.648,8.6542,8.6406,8.6369,8.6308,8.611,8.6094,8.6094,8.6094,8.6094,8.6094,8.6094,8.6094,8.6094,8.6094,8.6094,8.6094,8.6094,8.6094,8.6094,8.6094,8.6094,8.6094,8.6094,8.6824,8.7979,8.947,9.021,9.1441,5.8011,6.382,6.9975,7.3892,7.6245,7.7869,7.8677,7.8869,7.8869,7.8869,8.0054,8.1116,8.1184,8.1207,8.1236,8.1263,8.1284,8.1312,8.1387,8.151,8.1891,8.2696,8.2902,8.3289,8.4018,8.4095,8.4134,8.425,8.4173,8.4134,8.425,8.425,8.425,8.425,8.4366,8.4366,8.425,8.425,8.3786,8.2786,8.2161,8.1845,8.1845,8.1845,8.2664,8.4018,8.2503,8.2703,8.4018,8.3289,8.3405,8.4173,8.4753,8.4134,8.3251,8.5333,8.4753,8.3173,8.4637,8.4753,8.425,8.425,8.4327,8.4443,8.4443,8.4443,8.4443,8.4443,8.4443,8.4405,8.4289,8.425,8.4211,8.414,8.3599,8.3367,8.425,8.425,8.4173,8.4405,8.4908,8.5333,8.5449,8.6053,8.6486,8.6399,8.6285,8.6207,8.6102,8.6094,8.6094,8.6094,8.6094,8.6094,8.6094,8.6094,8.6094,8.6094,8.6094,8.6094,8.6094,8.6094,8.6094,8.6094,8.6094,8.6094,8.6094,8.6209,8.6786,8.7748,8.7863,8.8825,5.8473,6.3551,6.8475,7.2322,7.4591,7.6207,7.7522,7.8176,7.8484,7.8484,7.91,7.9815,8.039,8.0904,8.1263,8.134,8.138,8.142,8.1446,8.1453,8.162,8.2,8.2084,8.2238,8.2625,8.2625,8.2857,8.3322,8.2935,8.2857,8.3367,8.3367,8.3367,8.3367,8.387,8.387,8.3367,8.3367,8.2935,8.2084,8.1691,8.1497,8.1497,8.1497,8.1923,8.2587,8.1845,8.1923,8.2625,8.2238,8.2316,8.2741,8.3554,8.3167,8.2316,8.4443,8.3863,8.2238,8.3476,8.367,8.3367,8.3367,8.3708,8.4095,8.4095,8.4095,8.4095,8.4095,8.4095,8.3986,8.3521,8.3367,8.3244,8.278,8.2355,8.22,8.2548,8.2625,8.2935,8.3902,8.4753,8.5449,8.5952,8.6312,8.6535,8.6464,8.6384,8.6262,8.6175,8.5733,8.5431,8.5431,8.5431,8.5431,8.5431,8.5863,8.6094,8.6094,8.6094,8.6094,8.6094,8.6094,8.6094,8.6094,8.6094,8.6094,8.6094,8.6094,8.6555,8.7401,8.7401,8.8055,5.8396,6.2018,6.5282,6.9559,7.2014,7.3899,7.5599,7.6791,7.7522,7.7545,7.7898,7.8421,7.917,8.0029,8.074,8.1059,8.0963,8.0956,8.1149,8.0994,8.0956,8.1149,8.1188,8.1265,8.1497,8.1497,8.1768,8.2432,8.1884,8.1768,8.2432,8.2471,8.2471,8.2471,8.3089,8.3128,8.2471,8.2471,8.2122,8.1497,8.1497,8.1497,8.1497,8.1497,8.1497,8.1497,8.1497,8.1497,8.1497,8.1497,8.1497,8.1575,8.2471,8.2277,8.1691,8.3476,8.3012,8.1613,8.2509,8.267,8.2471,8.2471,8.2896,8.3438,8.3438,8.3438,8.3438,8.3438,8.3438,8.3283,8.2625,8.2471,8.2316,8.1652,8.1497,8.1497,8.1497,8.1497,8.1961,8.3476,8.4443,8.5256,8.61,8.6448,8.6505,8.6205,8.6334,8.6222,8.5622,8.5204,8.4848,8.4593,8.4555,8.467,8.4893,8.544,8.5901,8.6094,8.6094,8.6094,8.6094,8.6094,8.6094,8.6094,8.6094,8.6094,8.6094,8.6094,8.644,8.7055,8.7055,8.7555,5.6247,5.8478,6.0858,6.5173,6.809,7.0398,7.2091,7.3745,7.4921,7.4991,7.6314,7.7512,7.7692,7.8322,7.9133,8.0119,7.9641,7.9415,8.0143,7.9608,7.9415,8.0182,8.026,8.0608,8.142,8.1497,8.1536,8.1575,8.1536,8.1536,8.1575,8.1575,8.1575,8.1575,8.1613,8.1613,8.1575,8.1575,8.1536,8.1497,8.1497,8.1497,8.1497,8.1497,8.1497,8.1497,8.1497,8.1497,8.1497,8.1497,8.1497,8.1575,8.2471,8.2277,8.1691,8.3476,8.3012,8.1613,8.2509,8.2277,8.1575,8.1575,8.1613,8.1652,8.1652,8.1652,8.1652,8.1652,8.1652,8.1613,8.1575,8.1575,8.1575,8.1497,8.1497,8.1497,8.1497,8.1497,8.1768,8.2703,8.356,8.4405,8.5217,8.6061,8.6312,8.5394,8.5959,8.5864,8.405,8.4528,8.4651,8.3763,8.3678,8.3978,8.4824,8.4931,8.5286,8.6055,8.6094,8.6094,8.6094,8.6094,8.6094,8.6094,8.6094,8.6094,8.6094,8.6094,8.6132,8.617,8.617,8.6632,5.5247,5.7016,5.8792,6.2515,6.5384,6.7725,6.9496,7.1608,7.3335,7.3947,7.5002,7.5838,7.5896,7.7518,7.896,7.9358,7.9183,7.9105,7.9376,7.9183,7.9105,7.9415,7.9415,7.9569,7.9879,7.9918,7.9918,7.9918,7.9918,7.9918,7.9918,7.9918,8.015,8.0646,8.0685,8.0917,8.1497,8.1497,8.1497,8.1497,8.1497,8.1497,8.1497,8.1497,8.1497,8.1497,8.1497,8.1497,8.1497,8.1497,8.1497,8.1575,8.2471,8.2277,8.1652,8.2819,8.2509,8.1536,8.1845,8.1768,8.1497,8.1497,8.1497,8.1497,8.1497,8.1497,8.1497,8.1497,8.1497,8.1497,8.1497,8.1497,8.1497,8.1497,8.1497,8.1497,8.1497,8.1929,8.2587,8.3476,8.4289,8.514,8.5984,8.6371,8.6287,8.5416,8.545,8.5171,8.3917,8.3472,8.3133,8.2793,8.3255,8.3717,8.4055,8.5055,8.5786,8.6094,8.6094,8.6094,8.6094,8.6094,8.6094,8.6094,8.6094,8.6094,8.6094,8.6094,8.6094,8.6094,8.6094,8.6286,5.3323,5.5054,5.6983,6.0365,6.2746,6.4914,6.7529,6.9655,7.1396,7.2629,7.3761,7.4552,7.4619,7.6061,7.751,7.8403,7.8564,7.8564,7.8564,7.8293,7.8254,7.8525,7.8564,7.868,7.8989,7.8989,7.8989,7.8989,7.8989,7.8989,7.8989,7.8989,7.9376,8.0182,8.0492,8.0917,8.1497,8.1497,8.1497,8.1497,8.1497,8.1497,8.1497,8.1497,8.1497,8.1497,8.1497,8.1497,8.1497,8.1497,8.1497,8.1575,8.2122,8.2006,8.1575,8.2161,8.2006,8.1497,8.1497,8.1497,8.1497,8.1497,8.1497,8.1497,8.1497,8.1497,8.1497,8.1497,8.1497,8.1497,8.1497,8.1497,8.1497,8.1497,8.1497,8.1497,8.1497,8.1968,8.2625,8.3483,8.4095,8.483,8.5991,8.6145,8.5875,8.5024,8.5291,8.5053,8.3606,8.3055,8.2779,8.2755,8.2747,8.3101,8.3939,8.4786,8.5517,8.6055,8.6094,8.6094,8.6094,8.6094,8.6094,8.6094,8.6094,8.6094,8.6094,8.6094,8.6094,8.6094,8.6094,8.6094,0.0,0.0,0.0,5.8555,6.0101,6.1912,6.6073,6.7734,6.8912,7.0771,7.2482,7.3698,7.3833,7.3883,7.4734,7.7171,7.7597,7.7635,7.7635,7.6906,7.6713,7.7558,7.768,7.7983,7.8834,7.8912,7.8912,7.8912,7.8912,7.8912,7.8912,7.895,7.9337,8.0143,8.0994,8.1459,8.1497,8.1459,8.1459,8.1497,8.1497,8.1497,8.1497,8.1497,8.1497,8.1497,8.1497,8.1497,8.1497,8.1497,8.1497,8.1497,8.1497,8.1497,8.1497,8.1497,8.1497,8.1497,8.1497,8.1497,8.1497,8.1497,8.1497,8.1497,8.1497,8.1497,8.1497,8.1497,8.1497,8.1497,8.1497,8.1497,8.1497,8.1497,8.1497,8.1497,8.1497,8.1497,8.1768,8.2625,8.2825,8.3367,8.4985,8.5256,8.4985,8.4173,8.5449,8.5551,8.2887,8.3259,8.3748,8.3579,8.2131,8.2208,8.47,8.4132,8.4324,8.6017,8.6094,8.6094,8.6094,8.6094,8.6094,8.6094,8.6094,8.6094,8.6094,8.6094,8.6094,8.6094,8.6094,8.6094,5.0476,0.0,0.0,0.0,0.0,0.0,6.2228,6.3426,6.5087,6.8701,6.9833,7.0767,7.2601,7.396,7.4806,7.4928,7.543,7.5811,7.5811,7.6165,7.6481,7.6713,7.6751,7.6868,7.71,7.7138,7.7138,0.0,7.7138,7.7138,7.7138,7.7719,7.8448,7.9299,7.9569,8.0266,8.1497,8.0878,8.0878,8.1497,8.1497,8.1497,8.1497,8.1497,8.1497,8.1497,8.1497,8.1497,8.1497,8.1497,8.1497,8.1497,8.1497,8.1497,8.1497,8.1497,8.1497,8.1497,8.1497,8.1497,8.1497,8.1497,8.1497,8.1497,8.1497,8.1497,8.1497,8.1497,8.1497,8.1497,8.1497,8.1497,8.1497,8.1497,8.1497,8.1497,8.1497,8.1497,8.1768,8.2625,8.3328,8.3902,8.4366,8.4443,8.4134,8.3289,8.4017,8.3912,8.1916,8.2861,8.3449,8.2724,8.2824,8.3439,8.4777,8.467,8.4978,8.6017,8.6094,8.6094,8.6094,8.6094,8.6094,8.6094,8.6094,8.6094,8.6094,8.6094,8.6094,8.6094,8.6094,8.6094,5.0668,5.1977,5.3677,5.5249,0.0,0.0,6.0954,6.1698,6.2824,6.649,6.7771,6.8694,7.0208,7.1557,7.2446,7.2297,7.3264,7.4303,7.4999,7.5856,7.6403,7.6403,7.6403,7.6403,7.6403,7.6403,7.6403,7.6403,7.6403,7.6403,7.6403,7.7216,7.7945,7.8448,7.8796,7.9453,8.0453,7.995,8.0111,8.0956,8.0956,8.1149,8.1497,8.1497,8.1497,8.1497,8.1497,8.1497,8.1497,8.1497,8.1497,8.1497,8.1497,8.1497,8.1497,8.1497,8.1497,8.1497,8.1497,8.1497,8.1497,8.1497,8.1497,8.1497,8.1497,8.1497,8.1497,8.1497,8.1497,8.1497,8.1497,8.1497,8.1497,8.1497,8.1497,8.1497,8.1497,8.1497,8.1652,8.2161,8.2664,8.3128,8.3483,8.387,8.3947,8.3405,8.4295,8.4498,8.308,8.3717,8.4188,8.3917,8.3708,8.4101,8.5286,8.5085,8.5239,8.6055,8.6094,8.6094,8.6094,8.6094,8.6094,8.6094,8.6094,8.6094,8.6094,8.6094,8.6094,8.6094,8.6094,8.6094,5.1361,5.2483,5.4371,5.6447,5.6758,0.0,6.0935,6.1278,6.1543,6.4063,6.5682,6.6727,6.7036,6.781,6.8622,6.9324,7.1065,7.2916,7.4574,7.574,7.6365,7.6287,7.6326,7.6403,7.6403,7.6403,7.6403,7.6403,7.6403,7.6403,7.6403,7.7138,7.7603,7.7713,7.837,7.8796,7.8989,7.8912,7.926,8.0066,8.0066,8.0453,8.1226,8.1226,8.1265,8.1343,8.1343,8.142,8.1497,8.1497,8.1497,8.1497,8.1497,8.1497,8.1497,8.1497,8.1497,8.1497,8.1497,8.1497,8.1497,8.1497,8.1497,8.1497,8.1497,8.1497,8.1497,8.1497,8.1497,8.1497,8.1497,8.1497,8.1497,8.1497,8.1497,8.1497,8.1497,8.1497,8.1497,8.1497,8.1497,8.1729,8.2509,8.3283,8.3824,8.3824,8.5256,8.5976,8.4947,8.5072,8.5437,8.5934,8.4563,8.4255,8.5824,8.5132,8.5016,8.5901,8.5901,8.5901,8.6094,8.6017,8.6017,8.6094,8.6094,8.6094,8.6094,8.6094,8.6094,8.6094,8.6094,8.6094,5.417,5.5555,5.7206,5.6348,5.8129,0.0,5.8547,5.8711,5.9614,6.1466,6.1621,6.2012,6.4063,6.5146,6.5804,6.5958,6.8512,7.1103,7.2839,7.5005,7.6127,7.5425,7.5972,7.6403,7.6403,7.6403,7.6403,7.6403,7.6403,7.6403,7.6403,7.6558,7.6984,7.7674,7.7177,7.7564,7.8989,7.8293,7.837,7.9221,7.9221,7.9337,7.9492,7.9492,7.984,8.0453,8.0453,8.084,8.1497,8.1497,8.1497,8.1497,8.1497,8.1497,8.1497,8.1497,8.1497,8.1497,8.1497,8.1497,8.1497,8.1497,8.1497,8.1497,8.1497,8.1497,8.1497,8.1497,8.1497,8.1497,8.1497,8.1497,8.1497,8.1497,8.1497,8.1497,8.1497,8.1497,8.1497,8.1497,8.1497,8.1536,8.1729,8.1884,8.2,8.2,8.3476,8.4224,8.3287,8.4916,8.5922,8.529,8.4257,8.4024,8.5055,8.3708,8.3478,8.5047,8.4478,8.467,8.6055,8.547,8.5431,8.6094,8.6094,8.6094,8.6094,8.6094,8.6094,8.6094,8.6094,8.6094,5.6324,5.6755,5.78,5.7795,5.853,0.0,0.0,5.8255,5.8565,6.0654,6.046,6.0542,6.2665,6.34,6.398,6.4875,6.7462,6.9551,6.9976,7.2993,7.5005,7.4535,7.4889,7.5314,7.5701,7.574,7.5933,7.6365,7.6403,7.6403,7.6403,7.6403,7.6597,7.7061,7.6635,7.6829,7.7674,7.7254,7.7481,7.8332,7.8332,7.8564,7.8989,7.8989,7.9221,7.9608,7.9608,8.0066,8.084,8.084,8.111,8.1497,8.1497,8.1497,8.1497,8.1497,8.1497,8.1497,8.1497,8.1497,8.1497,8.1497,8.1497,8.1497,8.1497,8.1497,8.1497,8.1497,8.1497,8.1497,8.1497,8.1497,8.1497,8.1497,8.1497,8.1497,8.1497,8.1497,8.1497,8.1497,8.1497,8.1497,8.1497,8.1845,8.2161,8.2161,8.3244,8.3908,8.333,8.4322,8.4912,8.4365,8.3894,8.3793,8.4209,8.3439,8.3324,8.4209,8.3824,8.417,8.544,8.5124,8.5286,8.6094,8.6094,8.6094,8.6094,8.6094,8.6094,8.6094,8.6094,8.6094,5.8863,5.8566,5.904,5.9575,5.9225,5.8831,0.0,0.0,0.0,5.9759,5.9609,5.9609,6.1152,6.1423,6.1926,6.3521,6.5915,6.7302,6.6611,6.9938,7.2529,7.2877,7.3342,7.3883,7.4574,7.4458,7.4811,7.5823,7.5746,7.5823,7.6127,7.6326,7.6403,7.6403,7.6403,7.6403,7.6403,7.6403,7.6751,7.7448,7.7448,7.7829,7.8486,7.8486,7.8602,7.8757,7.8757,7.9221,7.9956,7.9956,8.0376,8.1033,8.1381,8.1497,8.1497,8.1497,8.1497,8.1497,8.1497,8.1497,8.1497,8.1497,8.1497,8.1497,8.1497,8.1497,8.1497,8.1497,8.1497,8.1497,8.1497,8.1497,8.1497,8.1497,8.1497,8.1497,8.1497,8.1497,8.1497,8.1497,8.1497,8.1497,8.1497,8.2084,8.2548,8.2548,8.3276,8.3766,8.3603,8.3715,8.3725,8.3641,8.3455,8.337,8.337,8.3216,8.3178,8.3332,8.3216,8.3593,8.4593,8.467,8.4978,8.5593,8.5632,8.5709,8.5863,8.5709,8.5786,8.6094,8.6094,8.6094,6.3089,6.3806,6.4205,0.0,6.1934,6.2781,5.7632,0.0,5.8105,5.682,0.0,5.6743,5.7709,0.0,0.0,5.9188,6.1466,6.3086,6.297,6.5334,6.7655,6.9197,7.1369,7.2761,7.2877,7.2181,7.2413,7.4077,7.3458,7.369,7.5154,7.5972,7.6403,7.6403,7.6403,7.6403,7.6403,7.6403,7.6442,7.6558,7.6558,7.6597,7.6713,7.6713,7.7138,7.7829,7.7829,7.8332,7.9144,7.9144,7.9183,7.9415,8.0917,8.1497,8.1497,8.1497,8.1497,8.1497,8.1497,8.1497,8.1497,8.1497,8.1497,8.1497,8.1497,8.1497,8.1497,8.1497,8.1497,8.1497,8.1497,8.1497,8.1497,8.1497,8.1497,8.1497,8.1497,8.1497,8.1497,8.1497,8.1497,8.1497,8.1497,8.1575,8.1652,8.1652,8.2342,8.2843,8.283,8.336,8.3726,8.3711,8.2948,8.2439,8.2439,8.1785,8.1708,8.2401,8.1785,8.2093,8.3678,8.3755,8.3793,8.387,8.387,8.4247,8.5008,8.4247,8.4632,8.6094,8.6094,8.6094,6.3836,6.433,0.0,0.0,0.0,0.0,5.8294,0.0,5.7172,0.0,0.0,0.0,0.0,0.0,0.0,0.0,6.0306,6.1466,6.1002,6.2704,6.4831,6.7036,6.8236,6.928,7.0286,7.0943,7.1794,7.3032,7.2336,7.28,7.4999,7.5463,7.5895,7.6365,7.6403,7.6403,7.6403,7.6403,7.6403,7.6403,7.6403,7.6403,7.6403,7.6403,7.6597,7.6945,7.6945,7.7448,7.8254,7.8254,7.8525,7.9067,7.9763,8.0337,8.0801,8.1304,8.1497,8.1497,8.1497,8.1497,8.1497,8.1497,8.1497,8.1497,8.1497,8.1497,8.1497,8.1497,8.1497,8.1497,8.1497,8.1497,8.1497,8.1497,8.1497,8.1497,8.1497,8.1497,8.1497,8.1497,8.1497,8.1497,8.1497,8.1497,8.1497,8.1497,8.1788,8.1987,8.1948,8.2196,8.235,8.2262,8.1916,8.1647,8.1601,8.1285,8.1246,8.1593,8.1708,8.2093,8.2832,8.3332,8.3601,8.3601,8.3601,8.3793,8.4132,8.3793,8.3947,8.467,8.517,8.5662,6.49,0.0,0.0,0.0,0.0,0.0,0.0,0.0,0.0,0.0,0.0,0.0,0.0,0.0,5.7869,5.8492,0.0,6.0228,5.9614,6.0576,6.224,6.4522,6.5412,6.6456,6.7921,6.8777,6.9788,7.1098,7.0402,7.1214,7.4264,7.4651,7.5276,7.6365,7.6403,7.6403,7.6403,7.6403,7.6403,7.6403,7.6403,7.6403,7.6403,7.6403,7.6403,7.6403,7.6403,7.6751,7.7326,7.7326,7.7719,7.8293,7.8564,7.8989,7.9608,8.0492,8.0956,8.1149,8.1149,8.1304,8.1497,8.1497,8.1497,8.1497,8.1497,8.1497,8.1497,8.1497,8.1497,8.1497,8.1497,8.1497,8.1497,8.1497,8.1497,8.1497,8.1497,8.1497,8.1497,8.1497,8.1497,8.1497,8.1497,8.1497,8.1497,8.1497,8.1478,8.1453,8.14,8.138,8.1326,8.1258,8.1229,8.1192,8.1131,8.1108,8.1093,8.1093,8.1631,8.1977,8.1977,8.2593,8.2909,8.2909,8.2909,8.3024,8.3255,8.3024,8.3139,8.3601,8.4247,8.4978,0.0,0.0,0.0,6.2205,0.0,0.0,0.0,0.0,5.9122,0.0,0.0,0.0,0.0,5.915,5.8569,5.8608,5.8647,0.0,0.0,5.8685,5.9343,6.1079,6.3516,6.5378,6.6185,6.4875,6.4991,6.7462,6.6843,6.8197,7.2452,7.3496,7.4695,7.6365,7.6403,7.6403,7.6403,7.6403,7.6403,7.6403,7.6403,7.6403,7.6403,7.6403,7.6403,7.6403,7.6403,7.6403,7.6442,7.6442,7.6442,7.6558,7.7403,7.7751,7.7906,7.8757,7.9569,8.0221,8.0221,8.0801,8.1497,8.1497,8.1497,8.1497,8.1497,8.1497,8.1497,8.1497,8.1497,8.1497,8.1497,8.1497,8.1497,8.1497,8.1497,8.1497,8.1497,8.1497,8.1497,8.1497,8.1497,8.1497,8.1497,8.1497,8.1497,8.1497,8.144,8.14,8.1394,8.1333,8.1291,8.1284,8.1258,8.1214,8.1207,8.1139,8.1093,8.1093,8.1131,8.1131,8.1131,8.117,8.117,8.117,8.117,8.1554,8.2324,8.1554,8.2016,8.3601,8.364,8.4093,0.0,0.0,6.8546,6.4547,0.0,0.0,0.0,0.0,0.0,0.0,0.0,0.0,0.0,5.9156,5.8562,5.8604,5.8101,5.7555,0.0,5.7366,5.8178,5.93,6.1698,6.34,6.3666,6.3676,6.4527,6.6495,6.6379,6.781,7.1523,7.3109,7.4386,7.5508,7.6088,7.6403,7.6403,7.6403,7.6403,7.6403,7.6403,7.6403,7.6403,7.6403,7.6403,7.6403,7.6403,7.6403,7.6403,7.6403,7.6403,7.6442,7.6713,7.6829,7.7022,7.8486,7.9183,7.9492,8.0027,8.0762,8.1497,8.1497,8.1497,8.1497,8.1497,8.1497,8.1497,8.1497,8.1497,8.1497,8.1497,8.1497,8.1497,8.1497,8.1497,8.1497,8.1497,8.1497,8.1497,8.1497,8.1497,8.1497,8.1497,8.1497,8.1497,8.1497,8.1478,8.1466,8.1466,8.144,8.1414,8.1367,8.134,8.1284,8.1222,8.1139,8.1093,8.1093,8.1093,8.1093,8.1093,8.1093,8.1093,8.1093,8.1093,8.1246,8.1516,8.1246,8.14,8.1939,8.1939,8.2708,6.952,6.9696,0.0,6.6113,6.4883,0.0,6.0094,0.0,6.0969,0.0,0.0,0.0,0.0,6.0007,5.9026,5.9068,5.8062,5.7004,0.0,5.6973,5.7896,5.8504,6.0296,6.1737,6.2351,6.2627,6.3598,6.5605,6.5494,6.6925,7.0639,7.2181,7.3612,7.5076,7.5933,7.6403,7.6403,7.6403,7.6403,7.6403,7.6403,7.6403,7.6403,7.6403,7.6403,7.6403,7.6403,7.6403,7.6403,7.6403,7.6403,7.6403,7.6403,7.6403,7.6558,7.768,7.8254,7.868,7.9795,8.0569,8.1072,8.1381,8.1497,8.1497,8.1497,8.1497,8.1497,8.1497,8.1497,8.1497,8.1497,8.1497,8.1497,8.1497,8.1497,8.1497,8.1497,8.1497,8.1497,8.1497,8.1497,8.1497,8.1497,8.1497,8.1497,8.1497,8.1497,8.1497,8.1497,8.1497,8.1478,8.144,8.1387,8.1298,8.1184,8.1124,8.1093,8.1093,8.1093,8.1093,8.1093,8.1093,8.1093,8.1093,8.1093,8.1093,8.1093,8.1093,8.1093,8.1093,8.1093,8.167]}]]